[[{"header":{"parameterUnit":"m.s-1","parameterCategory":1,"la1":30.6,"la2":28.766,"lo1":-90.7593,"lo2":-88.6598,"dx":0.0162,"dy":0.0183,"nx":116,"ny":114,"refTime":"2022-12-24T06:00:00:Z","depth":0,"parameterNumber":2,"parameterNumberName":"U-component_of_WINDS"},"data":[0.0,0.0,0.0,0.0,0.0,0.0,0.0,0.0,0.0,0.0,0.0,0.0,0.0,0.0,0.0,0.0,0.0,0.0,0.0,0.0,0.0,0.0,0.0,0.0,0.0,0.0,0.0,0.0,0.0,0.0,0.0,0.0,0.0,0.0,0.0,0.0,0.0,0.0,0.0,0.0,0.0,0.0,0.0,0.0,0.0,0.0,0.0,0.0,0.0,0.0,0.0,0.0,0.0,0.0,0.0,0.0,0.0,0.0,0.0,0.0,0.0,0.0,0.0,0.0,0.0,0.0,0.0,0.0,0.0,0.0,0.0,0.0,0.0,0.0,0.0,0.0,0.0,0.0,0.0,0.0,0.0,0.0,0.0,0.0,0.0,0.0,0.0,0.0,0.0,0.0,0.0,0.0,0.0,0.0,0.0,0.0,0.0,0.0,0.0,0.0,0.0,0.0,0.0,0.0,0.0,0.0,0.0,0.0,0.0,0.0,0.0,0.0,0.0,0.0,0.0,0.0,0.0,0.0,0.0,0.0,0.0,0.0,0.0,0.0,0.0,0.0,0.0,0.0,0.0,0.0,0.0,0.0,0.0,0.0,0.0,0.0,0.0,0.0,0.0,0.0,0.0,0.0,0.0,0.0,0.0,0.0,0.0,0.0,0.0,0.0,0.0,0.0,0.0,0.0,0.0,0.0,0.0,0.0,0.0,0.0,0.0,0.0,0.0,0.0,0.0,0.0,0.0,0.0,0.0,0.0,0.0,0.0,0.0,0.0,0.0,0.0,0.0,0.0,0.0,0.0,0.0,0.0,0.0,0.0,0.0,0.0,0.0,0.0,0.0,0.0,0.0,0.0,0.0,0.0,0.0,0.0,0.0,0.0,0.0,0.0,0.0,0.0,0.0,0.0,0.0,0.0,0.0,0.0,0.0,0.0,0.0,0.0,0.0,0.0,0.0,0.0,0.0,0.0,0.0,0.0,0.0,0.0,0.0,0.0,0.0,0.0,0.0,0.0,0.0,0.0,0.0,0.0,0.0,0.0,0.0,0.0,0.0,0.0,0.0,0.0,0.0,0.0,0.0,0.0,0.0,0.0,0.0,0.0,0.0,0.0,0.0,0.0,0.0,0.0,0.0,0.0,0.0,0.0,0.0,0.0,0.0,0.0,0.0,0.0,0.0,0.0,0.0,0.0,0.0,0.0,0.0,0.0,0.0,0.0,0.0,0.0,0.0,0.0,0.0,0.0,0.0,0.0,0.0,0.0,0.0,0.0,0.0,0.0,0.0,0.0,0.0,0.0,0.0,0.0,0.0,0.0,0.0,0.0,0.0,0.0,0.0,0.0,0.0,0.0,0.0,0.0,0.0,0.0,0.0,0.0,0.0,0.0,0.0,0.0,0.0,0.0,0.0,0.0,0.0,0.0,0.0,0.0,0.0,0.0,0.0,0.0,0.0,0.0,0.0,0.0,0.0,0.0,0.0,0.0,0.0,0.0,0.0,0.0,0.0,0.0,0.0,0.0,0.0,0.0,0.0,0.0,0.0,0.0,0.0,0.0,0.0,0.0,0.0,0.0,0.0,0.0,0.0,0.0,0.0,0.0,0.0,0.0,0.0,0.0,0.0,0.0,0.0,0.0,0.0,0.0,0.0,0.0,0.0,0.0,0.0,0.0,0.0,0.0,0.0,0.0,0.0,0.0,0.0,0.0,0.0,0.0,0.0,0.0,0.0,0.0,0.0,0.0,0.0,0.0,0.0,0.0,0.0,0.0,0.0,0.0,0.0,0.0,0.0,0.0,0.0,0.0,0.0,0.0,0.0,0.0,0.0,0.0,0.0,0.0,0.0,0.0,0.0,0.0,0.0,0.0,0.0,0.0,0.0,0.0,0.0,0.0,0.0,0.0,0.0,0.0,0.0,0.0,0.0,0.0,0.0,0.0,0.0,0.0,0.0,0.0,0.0,0.0,0.0,0.0,0.0,0.0,0.0,0.0,0.0,0.0,0.0,0.0,0.0,0.0,0.0,0.0,0.0,0.0,0.0,0.0,0.0,0.0,0.0,0.0,0.0,0.0,0.0,0.0,0.0,0.0,0.0,0.0,0.0,0.0,0.0,0.0,0.0,0.0,0.0,0.0,0.0,0.0,0.0,0.0,0.0,0.0,0.0,0.0,0.0,0.0,0.0,0.0,0.0,0.0,0.0,0.0,0.0,0.0,0.0,0.0,0.0,0.0,0.0,0.0,0.0,0.0,0.0,0.0,0.0,0.0,0.0,0.0,0.0,0.0,0.0,0.0,0.0,0.0,0.0,0.0,0.0,0.0,0.0,0.0,0.0,0.0,0.0,0.0,0.0,0.0,0.0,0.0,0.0,0.0,0.0,0.0,0.0,0.0,0.0,0.0,0.0,0.0,0.0,0.0,0.0,0.0,0.0,0.0,0.0,0.0,0.0,0.0,0.0,0.0,0.0,0.0,0.0,0.0,0.0,0.0,0.0,0.0,0.0,0.0,0.0,0.0,0.0,0.0,0.0,0.0,0.0,0.0,0.0,0.0,0.0,0.0,0.0,0.0,0.0,0.0,0.0,0.0,0.0,0.0,0.0,0.0,0.0,0.0,0.0,0.0,0.0,0.0,0.0,0.0,0.0,0.0,0.0,0.0,0.0,0.0,0.0,0.0,0.0,0.0,0.0,0.0,0.0,0.0,0.0,0.0,0.0,0.0,0.0,0.0,0.0,0.0,0.0,0.0,0.0,0.0,0.0,0.0,0.0,0.0,0.0,0.0,0.0,0.0,0.0,0.0,0.0,0.0,0.0,0.0,0.0,0.0,0.0,0.0,0.0,0.0,0.0,0.0,0.0,0.0,0.0,0.0,0.0,0.0,0.0,0.0,0.0,0.0,0.0,0.0,0.0,0.0,0.0,0.0,0.0,0.0,0.0,0.0,0.0,0.0,0.0,0.0,0.0,0.0,0.0,0.0,0.0,0.0,0.0,0.0,0.0,0.0,0.0,0.0,0.0,0.0,0.0,0.0,0.0,0.0,0.0,0.0,0.0,0.0,0.0,0.0,0.0,0.0,0.0,0.0,0.0,0.0,0.0,0.0,0.0,0.0,0.0,0.0,0.0,0.0,0.0,0.0,0.0,0.0,0.0,0.0,0.0,0.0,0.0,0.0,0.0,0.0,0.0,0.0,0.0,0.0,0.0,0.0,0.0,0.0,0.0,0.0,0.0,0.0,0.0,0.0,0.0,0.0,0.0,0.0,0.0,0.0,0.0,0.0,0.0,0.0,0.0,0.0,0.0,0.0,0.0,0.0,0.0,0.0,0.0,0.0,0.0,0.0,0.0,0.0,0.0,0.0,0.0,0.0,0.0,0.0,0.0,0.0,0.0,0.0,0.0,0.0,0.0,0.0,0.0,0.0,0.0,0.0,0.0,0.0,0.0,0.0,0.0,0.0,0.0,0.0,0.0,0.0,0.0,0.0,0.0,0.0,0.0,0.0,0.0,0.0,0.0,0.0,0.0,0.0,0.0,0.0,0.0,0.0,0.0,0.0,0.0,0.0,0.0,0.0,0.0,0.0,0.0,0.0,0.0,0.0,0.0,0.0,0.0,0.0,0.0,0.0,0.0,0.0,0.0,0.0,0.0,0.0,0.0,0.0,0.0,0.0,0.0,0.0,0.0,0.0,0.0,0.0,0.0,0.0,0.0,0.0,0.0,0.0,0.0,0.0,0.0,0.0,0.0,0.0,0.0,0.0,0.0,0.0,0.0,0.0,0.0,0.0,0.0,0.0,0.0,0.0,0.0,0.0,0.0,0.0,0.0,0.0,0.0,0.0,0.0,0.0,0.0,0.0,0.0,0.0,0.0,0.0,0.0,0.0,0.0,0.0,0.0,0.0,0.0,0.0,0.0,0.0,0.0,0.0,0.0,0.0,0.0,0.0,0.0,0.0,0.0,0.0,0.0,0.0,0.0,0.0,0.0,0.0,0.0,0.0,0.0,0.0,0.0,0.0,0.0,0.0,0.0,0.0,0.0,0.0,0.0,0.0,0.0,0.0,0.0,0.0,0.0,0.0,0.0,0.0,0.0,0.0,0.0,0.0,0.0,0.0,0.0,0.0,0.0,0.0,0.0,0.0,0.0,0.0,0.0,0.0,0.0,0.0,0.0,0.0,0.0,0.0,0.0,0.0,0.0,0.0,0.0,0.0,0.0,0.0,0.0,0.0,0.0,0.0,0.0,0.0,0.0,0.0,0.0,0.0,0.0,0.0,0.0,0.0,0.0,0.0,0.0,0.0,0.0,0.0,0.0,0.0,0.0,0.0,0.0,0.0,0.0,0.0,0.0,0.0,0.0,0.0,0.0,0.0,0.0,0.0,0.0,0.0,0.0,0.0,0.0,0.0,0.0,0.0,0.0,0.0,0.0,0.0,0.0,0.0,0.0,0.0,0.0,0.0,0.0,0.0,0.0,0.0,0.0,0.0,0.0,0.0,0.0,0.0,0.0,0.0,0.0,0.0,0.0,0.0,0.0,0.0,0.0,0.0,0.0,0.0,0.0,0.0,0.0,0.0,0.0,0.0,0.0,0.0,0.0,0.0,0.0,0.0,0.0,0.0,0.0,0.0,0.0,0.0,0.0,0.0,0.0,0.0,0.0,0.0,0.0,0.0,0.0,0.0,0.0,0.0,0.0,0.0,0.0,0.0,0.0,0.0,0.0,0.0,0.0,0.0,0.0,0.0,0.0,0.0,0.0,0.0,0.0,0.0,0.0,0.0,0.0,0.0,0.0,0.0,0.0,0.0,0.0,0.0,0.0,0.0,0.0,0.0,0.0,0.0,0.0,0.0,0.0,0.0,0.0,0.0,0.0,0.0,0.0,0.0,0.0,0.0,0.0,0.0,0.0,0.0,0.0,0.0,0.0,0.0,0.0,0.0,0.0,0.0,0.0,0.0,0.0,0.0,0.0,0.0,0.0,0.0,0.0,0.0,0.0,0.0,0.0,0.0,0.0,0.0,0.0,0.0,0.0,0.0,0.0,0.0,0.0,0.0,0.0,0.0,0.0,0.0,0.0,0.0,0.0,0.0,0.0,0.0,0.0,0.0,0.0,0.0,0.0,0.0,0.0,0.0,0.0,0.0,0.0,0.0,0.0,0.0,0.0,0.0,0.0,0.0,0.0,0.0,0.0,0.0,0.0,0.0,0.0,0.0,0.0,0.0,0.0,0.0,0.0,0.0,0.0,0.0,0.0,0.0,0.0,0.0,0.0,0.0,0.0,0.0,0.0,0.0,0.0,0.0,0.0,0.0,0.0,0.0,0.0,0.0,0.0,0.0,0.0,0.0,0.0,0.0,0.0,0.0,0.0,0.0,0.0,0.0,0.0,0.0,0.0,0.0,0.0,0.0,0.0,0.0,0.0,0.0,0.0,0.0,0.0,0.0,0.0,0.0,0.0,0.0,0.0,0.0,0.0,0.0,0.0,0.0,0.0,0.0,0.0,0.0,0.0,0.0,0.0,0.0,0.0,0.0,0.0,0.0,0.0,0.0,0.0,0.0,0.0,0.0,0.0,0.0,0.0,0.0,0.0,0.0,0.0,0.0,0.0,0.0,0.0,0.0,0.0,0.0,0.0,0.0,0.0,0.0,0.0,0.0,0.0,0.0,0.0,0.0,0.0,0.0,0.0,0.0,0.0,0.0,0.0,0.0,0.0,0.0,0.0,0.0,0.0,0.0,0.0,0.0,0.0,0.0,0.0,0.0,0.0,0.0,0.0,0.0,0.0,0.0,0.0,0.0,0.0,0.0,0.0,0.0,0.0,0.0,0.0,0.0,0.0,0.0,0.0,0.0,0.0,0.0,0.0,0.0,0.0,0.0,0.0,0.0,0.0,0.0,0.0,0.0,0.0,0.0,0.0,0.0,0.0,0.0,0.0,0.0,0.0,0.0,0.0,0.0,0.0,0.0,0.0,0.0,0.0,0.0,0.0,0.0,0.0,0.0,0.0,0.0,0.0,0.0,0.0,0.0,0.0,0.0,0.0,0.0,0.0,0.0,0.0,0.0,0.0,0.0,0.0,0.0,0.0,0.0,0.0,0.0,0.0,0.0,0.0,0.0,0.0,0.0,-0.189,0.0,0.0,0.0,0.0,0.0,0.0,0.0,0.0,0.0,0.0,0.0,0.0,0.0,0.0,0.0,0.0,0.0,0.0,0.0,0.0,0.0,0.0,0.0,0.0,0.31,0.31,0.31,0.31,0.0,0.0,0.0,0.0,0.0,0.0,0.0,0.0,0.0,0.2374,0.2544,0.2745,0.2796,0.2692,0.2902,0.3007,0.3008,0.0,0.0,0.0,0.0,0.0,0.0,0.0,0.0,0.0,0.0,0.0,0.0,0.0,0.0,0.0,0.0,0.0,0.0,0.0,0.0,0.0,0.0,0.0,0.0,0.0,0.0,0.0,0.0,0.0,0.0,0.0,0.0,0.0,0.0,0.0,0.0,0.0,0.0,0.0,0.0,0.0,0.0,0.0,0.0,0.0,0.0,0.0,0.0,0.0,0.0,0.0,0.0,0.0,0.0,0.0,0.0,0.0,0.0,0.0,0.0,0.0,0.0,0.0,0.0,0.0,0.0,0.0,0.0,0.0,0.0,0.0,-0.1728,0.0,0.0,0.0,0.0,0.0,0.0,0.0,0.0,0.0,0.0,0.0,0.0,0.0,0.0,0.0,0.0,0.0,0.0,0.0,0.0,0.0,0.3171,0.3201,0.3194,0.3187,0.3187,0.3173,0.3117,0.3003,0.2675,0.0,0.0,0.0,0.0,0.0,0.2283,0.2505,0.2642,0.2719,0.2764,0.2781,0.2777,0.2763,0.2742,0.0,0.0,0.0,0.0,0.0,0.0,0.0,0.0,0.0,0.0,0.0,0.0,0.0,0.0,0.0,0.0,0.0,0.0,0.0,0.0,0.0,0.0,0.0,0.0,0.0,0.0,0.0,0.0,0.0,0.0,0.0,0.0,0.0,0.0,0.0,0.0,0.0,0.0,0.0,0.0,0.0,0.0,0.0,0.0,0.0,0.0,0.0,0.0,0.0,0.0,0.0,0.0,0.0,0.0,0.0,0.0,0.0,0.0,0.0,0.0,0.0,0.0,0.0,0.0,-0.5394,-0.5422,-0.5158,-0.4622,-0.4147,-0.3758,-0.3488,-0.2656,-0.1353,0.0586,0.0,0.0,0.0,0.0,0.0,0.0,0.0,0.0,0.0,0.0,0.0,0.0,0.0,0.0,0.0,0.0,0.0,0.0,0.0,0.3427,0.3602,0.3572,0.3532,0.3532,0.348,0.3195,0.2618,0.274,0.0,0.0,0.0,0.0,0.15,0.1709,0.1885,0.2023,0.2139,0.2235,0.2294,0.2288,0.2193,0.2071,0.2898,0.0,0.0,0.0,0.0,0.0,0.0,0.0,0.0,0.0,0.0,0.0,0.0,0.0,0.0,0.0,0.0,0.0,0.0,0.0,0.0,0.0,0.0,0.0,0.0,0.0,0.0,0.0,0.0,0.0,0.0,0.0,0.0,0.0,0.0,0.0,0.0,0.0,0.0,0.0,0.0,0.0,0.0,0.0,-0.3993,-0.4237,0.0,0.0,0.0,0.0,0.0,0.0,0.0,0.0,0.0,0.0,0.0,0.0,0.0,-0.3028,-0.3167,-0.3285,-0.339,-0.3521,-0.4465,-0.454,-0.3864,-0.4394,-0.4156,-0.3276,-0.2945,0.0,-0.0953,0.0651,0.0,0.0,0.0,0.0,0.0,0.0,0.0,0.0,0.0,0.0,0.0,0.0,0.0,0.0,0.0,0.0,0.0,0.0,0.0,0.0,0.0,0.3872,0.3952,0.3836,0.397,0.3726,0.2949,0.2902,0.0,0.0,0.185,0.1826,0.1688,0.18,0.1938,0.2071,0.2208,0.2242,0.2206,0.2203,0.2157,0.2092,0.2492,0.2622,0.2509,0.2571,0.0,0.0,0.0,0.0,0.0,0.0,0.0,0.0,0.0,0.0,0.0,0.0,0.0,0.0,0.0,0.0,0.0,0.0,0.0,0.0,0.0,0.0,0.0,0.0,0.0,0.0,0.0,0.0,0.0,0.0,0.0,0.0,0.0,0.0,0.0,0.0,0.0,0.0,0.0,-0.369,-0.3769,-0.4088,-0.3997,-0.3661,0.0,0.0,0.0,0.0,0.0,0.0,0.0,0.0,0.0,-0.3688,-0.3385,-0.3324,-0.3569,-0.3671,-0.3774,-0.3877,-0.4342,-0.4314,-0.3846,-0.417,-0.3706,-0.2614,-0.2313,-0.1616,-0.0559,0.0928,0.2427,0.3977,0.0,0.0,0.0,0.0,0.5513,0.5271,0.0,0.0,0.0,0.0,0.0,0.0,0.0,0.0,0.0,0.0,0.0,0.0,0.3768,0.4104,0.4266,0.4118,0.4188,0.3924,0.3167,0.2936,0.2566,0.1992,0.1907,0.1857,0.182,0.169,0.1693,0.1875,0.1815,0.1767,0.1735,0.1906,0.1969,0.196,0.2138,0.2216,0.2197,0.222,0.2306,0.0,0.0,0.0,0.0,0.0,0.0,0.0,0.0,0.0,0.0,0.0,0.0,0.0,0.0,0.0,0.0,0.0,0.0,0.0,0.0,0.0,0.0,0.0,0.0,0.0,0.0,0.0,0.0,0.0,0.0,0.0,0.0,0.0,0.0,0.0,0.0,0.0,0.0,-0.3872,-0.3834,-0.3862,-0.4202,-0.3908,0.0,0.0,0.0,0.0,0.0,0.0,-0.2931,-0.2756,-0.2847,-0.3252,-0.3131,-0.3193,-0.3429,-0.3529,-0.3616,-0.3688,-0.3926,-0.3818,-0.3384,-0.3573,-0.3043,-0.1932,-0.1284,-0.0495,0.0443,0.1554,0.2831,0.4212,0.5483,0.6002,0.6017,0.5683,0.5543,0.5535,0.0,0.0,0.0,0.0,0.0,0.0,0.0,0.0,0.0,0.0,0.0,0.3976,0.3985,0.4229,0.4391,0.4382,0.3869,0.3365,0.294,0.2729,0.2325,0.1652,0.1922,0.1932,0.1624,0.0925,0.07,0.0968,0.0395,0.0244,0.0508,0.1151,0.1364,0.1283,0.1991,0.2266,0.2202,0.2266,0.2304,0.2343,0.0,0.0,0.0,0.0,0.0,0.0,0.0,0.0,0.0,0.0,0.0,0.0,0.0,0.0,0.0,0.0,0.0,0.0,0.0,0.0,0.0,0.0,0.0,0.0,0.0,0.0,0.0,0.0,0.0,0.0,0.0,0.0,0.0,0.0,0.0,0.0,0.0,0.0,0.0,-0.3892,-0.5314,0.0,0.0,0.0,0.0,-0.2982,-0.3301,-0.3541,-0.3562,-0.2895,-0.2638,-0.2913,-0.2062,-0.1613,-0.1639,-0.1642,-0.1683,-0.1741,-0.2641,-0.2594,-0.1738,-0.2437,-0.2237,-0.1259,0.0427,0.1639,0.2477,0.2725,0.3012,0.3447,0.5207,0.6031,0.6147,0.582,0.569,0.5669,0.0,0.0,0.0,0.2744,0.2779,0.2811,0.2766,0.2987,0.3199,0.3298,0.3602,0.3912,0.4165,0.4274,0.4333,0.4333,0.3946,0.3378,0.2633,0.2589,0.2322,0.1689,0.1899,0.1944,0.1729,0.0917,0.067,0.1027,0.0036,-0.0129,0.0461,0.0186,0.0296,0.0745,0.0709,0.1078,0.1763,0.2104,0.2284,0.2375,0.2497,0.2464,0.0,0.0,0.0,0.0,0.0,0.0,0.0,0.0,0.0,0.0,0.0,0.0,0.0,0.0,0.0,0.0,0.0,0.0,0.0,0.0,0.0,0.0,0.0,0.0,0.0,0.0,0.0,0.0,0.0,0.0,0.0,0.0,0.0,0.0,0.0,0.0,0.0,-0.3017,-0.3552,0.0,0.0,-0.2439,-0.2485,-0.1968,-0.214,-0.2253,-0.2256,-0.1998,-0.1905,-0.2003,-0.1707,-0.1565,-0.1559,-0.1604,-0.1628,-0.1656,-0.1992,-0.1998,-0.1673,-0.1932,-0.188,-0.1463,0.0283,0.1225,0.1643,0.3409,0.4497,0.5136,0.5769,0.6076,0.6119,0.6006,0.5969,0.5944,0.0,0.0,0.0,0.2854,0.2924,0.2963,0.2846,0.3042,0.3244,0.3353,0.368,0.4067,0.4522,0.4446,0.44,0.446,0.3891,0.3272,0.2646,0.2488,0.224,0.1785,0.1847,0.184,0.1699,0.0898,0.0477,0.0523,-0.0527,-0.0854,-0.0517,-0.0842,-0.0727,-0.021,-0.0301,0.015,0.0981,0.1295,0.1789,0.2356,0.2264,0.2268,0.2363,0.0,0.0,0.0,0.0,0.0,0.0,0.0,0.0,0.0,0.0,0.0,0.0,0.0,0.0,0.0,0.0,0.0,0.0,0.0,0.0,0.0,0.0,0.0,0.0,0.0,0.0,0.0,0.0,0.0,0.0,0.0,0.0,0.0,0.0,0.0,-0.3208,-0.218,-0.2878,-0.2908,-0.1501,-0.1883,-0.1985,-0.1464,-0.1485,-0.1509,-0.154,-0.1527,-0.1537,-0.1572,-0.16,-0.1626,-0.1646,-0.1667,-0.1718,-0.1747,-0.1747,-0.1725,-0.1735,-0.141,-0.1274,-0.1137,0.1015,0.1933,0.2076,0.4541,0.5859,0.6312,0.6172,0.611,0.611,0.611,0.611,0.6121,0.0,0.0,0.3101,0.2774,0.2985,0.3093,0.2766,0.2985,0.3321,0.3653,0.4053,0.4495,0.5014,0.471,0.4546,0.4731,0.3652,0.2965,0.2981,0.2424,0.2042,0.1914,0.0,0.0,0.1498,0.0778,0.0056,-0.0608,-0.136,-0.1993,-0.249,-0.1921,-0.1646,-0.1607,-0.096,-0.0483,-0.0151,-0.0151,0.0764,0.2208,0.195,0.2054,0.2368,0.0,0.0,0.0,0.0,0.0,0.0,0.0,0.0,0.0,0.0,0.0,0.0,0.0,0.0,0.0,0.0,0.0,0.0,0.0,0.0,0.0,0.0,0.0,0.0,0.0,0.0,0.0,0.0,0.0,0.0,0.0,0.0,0.0,-0.143,-0.218,-0.2484,-0.1541,-0.356,-0.4112,-0.176,-0.2873,-0.3122,-0.1624,-0.1506,-0.1543,-0.1598,-0.1604,-0.1633,-0.1688,-0.1691,-0.1705,-0.1705,-0.168,-0.1696,-0.1752,-0.1725,-0.1712,-0.1684,-0.0758,-0.0337,-0.0168,0.2745,0.3943,0.4017,0.6174,0.698,0.6824,0.6317,0.6132,0.6132,0.6132,0.6132,0.6188,0.3763,0.3429,0.3167,0.3076,0.3142,0.3167,0.3076,0.3101,0.3265,0.3653,0.3963,0.4252,0.4499,0.4068,0.3745,0.3647,0.2757,0.2261,0.241,0.2177,0.1989,0.1903,0.0,0.0,0.1576,0.0614,-0.0119,-0.0603,-0.1735,-0.2355,-0.2511,-0.2979,-0.286,-0.2255,-0.2373,-0.1953,-0.1201,-0.1296,-0.0571,0.0652,0.0823,0.0934,0.1046,0.0,0.0,0.0,0.0,0.0,0.0,0.0,0.0,0.0,0.0,0.0,0.0,0.0,0.0,0.0,0.0,0.0,0.0,0.0,0.0,0.0,0.0,0.0,0.0,0.0,0.0,0.0,0.0,0.0,0.0,0.0,0.0,-0.1666,-0.1339,-0.2551,-0.3114,-0.216,-0.3,-0.3235,-0.2173,-0.25,-0.2447,-0.164,-0.1612,-0.1663,-0.1666,-0.1675,-0.1684,-0.1692,-0.1749,-0.1764,-0.1764,-0.1099,-0.0753,-0.0766,-0.0085,0.0227,0.0228,0.0548,0.0922,0.1453,0.3373,0.4479,0.5056,0.7373,0.8273,0.814,0.7043,0.6605,0.6605,0.6605,0.7009,0.7667,0.356,0.3335,0.32,0.32,0.32,0.32,0.32,0.3142,0.3308,0.3878,0.3841,0.3917,0.4336,0.3632,0.3084,0.3004,0.2275,0.1865,0.1986,0.1872,0.1766,0.0,0.0,0.085,0.0894,-0.0102,-0.0926,-0.1523,-0.2263,-0.2801,-0.313,-0.3237,-0.3023,-0.2545,-0.2758,-0.2431,-0.1762,-0.2165,-0.1734,-0.0733,-0.0577,-0.0075,0.0598,0.0699,0.0682,0.0645,0.0783,0.0814,0.0828,0.1004,0.0,0.0,0.0,0.0,0.0,0.0,0.0,0.0,0.0,0.0,0.0,0.0,0.0,0.0,0.0,0.0,0.0,0.0,0.0,0.0,0.0,0.0,0.0,0.0,-0.1725,-0.185,-0.2022,-0.2678,-0.2933,-0.2393,-0.2824,-0.2865,-0.2124,-0.2287,-0.2221,-0.1678,-0.167,-0.1719,-0.1749,-0.175,-0.1567,-0.117,-0.1182,-0.105,-0.0663,-0.0139,0.017,0.0201,0.0746,0.1008,0.1073,0.1756,0.2251,0.0,0.4474,0.549,0.5983,0.7576,0.8268,0.0,0.0,0.0,0.0,0.0,0.8514,0.9065,0.3319,0.3224,0.3208,0.3249,0.3224,0.32,0.32,0.3134,0.3366,0.4172,0.3751,0.3629,0.4284,0.3345,0.2636,0.2579,0.2014,0.1669,0.1679,0.157,0.0,0.147,0.0556,0.0061,0.0061,-0.0856,-0.1749,-0.2633,-0.2738,-0.3157,-0.3823,-0.2981,-0.2605,-0.2602,-0.2525,-0.2303,-0.2027,-0.269,-0.2521,-0.181,-0.1828,-0.0908,0.0473,0.0342,0.0412,0.056,0.0439,0.0485,0.0605,0.0737,0.0,0.0,0.0,0.0,0.0,0.0,0.0,0.0,0.0,0.0,0.0,0.0,0.0,0.0,0.0,0.0,0.0,0.0,0.0,0.0,0.0,0.0,0.0,0.0,-0.2232,-0.2469,-0.2942,-0.2623,-0.2376,-0.248,-0.2908,-0.2837,-0.1873,-0.2222,-0.2298,-0.1763,-0.1605,-0.1591,-0.1644,0.0,0.0,0.0,0.0,0.0141,0.09,0.1014,0.1108,0.1183,0.127,0.1367,0.1474,0.2922,0.36,0.3771,0.5783,0.6676,0.6793,0.7557,0.7996,0.8318,0.9374,0.9865,0.9999,1.0086,1.0237,1.0396,0.367,0.3385,0.329,0.3556,0.3385,0.32,0.32,0.3056,0.3229,0.4036,0.3975,0.3763,0.3487,0.3228,0.2736,0.1881,0.16,0.1481,0.1526,0.0,0.1446,0.1343,0.1134,0.1055,0.1114,0.0194,-0.0712,-0.1597,-0.235,-0.2776,-0.2875,-0.2694,-0.2605,-0.2603,-0.2524,-0.2477,-0.2454,-0.2233,-0.2033,-0.185,-0.1545,-0.1179,-0.0835,-0.0929,-0.0895,-0.0809,-0.0851,-0.0803,-0.0716,-0.0581,-0.0552,-0.0547,-0.0464,0.0,0.0,0.0,0.0,0.0,0.0,0.0,0.0,0.0,0.0,0.0,0.0,0.0,0.0,0.0,0.0,0.0,0.0,0.0,0.0,-0.1676,-0.2066,-0.2411,-0.2519,-0.2484,-0.261,-0.2996,-0.3178,-0.3034,-0.2412,-0.2477,-0.2367,-0.1822,-0.1074,-0.0667,-0.067,0.0,0.0,0.0645,0.0709,0.08,0.0971,0.1738,0.2145,0.2209,0.0,0.0,0.3392,0.4219,0.488,0.5397,0.6401,0.7165,0.7771,0.9459,1.1082,1.2209,0.9169,0.851,0.9283,1.0003,1.0742,1.1536,0.4019,0.3678,0.3446,0.3446,0.3311,0.3192,0.3159,0.3011,0.3142,0.381,0.3633,0.3323,0.2988,0.2773,0.228,0.1385,0.1307,0.1334,0.0,0.1408,0.1372,0.1301,0.0843,0.063,0.0694,-0.0723,-0.1675,-0.2095,-0.2579,-0.2785,-0.2732,-0.1759,-0.1301,-0.13,-0.1229,-0.123,-0.1317,-0.1483,-0.1426,-0.1274,-0.1548,-0.1506,-0.1314,-0.153,-0.1439,-0.1191,-0.1206,-0.1183,-0.1148,-0.1068,-0.1042,-0.1038,-0.093,-0.0823,-0.0744,0.0,0.0,0.0,0.0,0.0,0.0,0.0,0.0,0.0,0.0,0.0,0.0,0.0,0.0,-0.155,0.0,0.0,-0.1917,-0.1949,-0.2204,-0.2513,-0.2818,-0.228,-0.1928,-0.2184,-0.2642,-0.2382,-0.0929,-0.1212,-0.1218,-0.0498,-0.0028,0.0252,0.0252,0.0706,0.1163,0.1589,0.1671,0.1918,0.2383,0.2872,0.3103,0.3158,0.3635,0.3845,0.3876,0.49,0.5518,0.5846,0.6937,0.7869,0.8726,1.0183,1.1363,1.2037,0.9951,1.0036,1.1395,1.1841,1.2287,1.2775,0.4291,0.3986,0.3694,0.336,0.3241,0.3183,0.3134,0.2994,0.3075,0.3576,0.3285,0.2965,0.2755,0.2536,0.2065,0.1265,0.113,0.1128,0.0,0.1215,0.1214,0.1187,0.05,0.0128,0.0131,-0.1532,-0.2419,-0.2419,-0.2553,-0.2509,-0.2306,-0.0727,0.0,0.0,0.0064,0.0062,-0.0061,-0.0691,-0.0783,-0.0553,-0.1296,-0.1451,-0.1244,-0.1493,-0.1498,-0.1335,-0.125,-0.1216,-0.1207,-0.1195,-0.1207,-0.1193,-0.1193,-0.1102,-0.095,-0.08,-0.0786,0.0,0.0,0.0,0.0,0.0,0.0,0.0,0.0,0.0,-0.1896,-0.1977,-0.1991,-0.1893,-0.159,-0.1606,-0.183,-0.22,-0.2199,-0.2303,-0.269,-0.1601,-0.074,-0.0548,-0.1345,-0.1188,0.0728,0.0252,0.014,0.0873,0.107,0.1185,0.1189,0.1403,0.1875,0.2567,0.263,0.3036,0.3816,0.3816,0.3816,0.3816,0.3816,0.3816,0.3878,0.518,0.582,0.5899,0.7494,0.8815,0.994,1.0728,1.1182,1.136,1.136,1.2328,1.3688,1.3474,1.3534,1.3688,0.4347,0.417,0.4035,0.3702,0.3397,0.32,0.3192,0.3019,0.3029,0.3389,0.3486,0.3355,0.2922,0.3213,0.3008,0.1979,0.1139,0.0,0.0928,0.0951,0.0882,0.0774,0.0841,0.0794,0.0625,-0.0224,-0.0672,-0.0672,-0.1276,-0.1142,-0.0314,-0.0112,0.0,0.0,0.0064,0.0021,-0.0084,-0.0123,-0.0101,-0.0081,-0.0124,-0.0314,-0.0584,-0.051,-0.1074,-0.1848,-0.1445,-0.1253,-0.1203,-0.1207,-0.1208,-0.1193,-0.1193,-0.123,-0.1134,-0.0468,0.0,-0.0889,0.0321,0.0,0.0,-0.108,-0.1249,-0.1292,0.0,0.0,-0.1491,-0.155,-0.1606,-0.1635,-0.1596,-0.2028,-0.2245,-0.1847,-0.1527,-0.1192,-0.079,0.0083,0.095,0.1731,0.1033,0.0615,0.0869,0.0813,0.0818,0.0972,0.1718,0.2161,0.2223,0.302,0.3523,0.364,0.3647,0.3735,0.388,0.388,0.388,0.388,0.388,0.388,0.394,0.5208,0.5823,0.6016,0.8197,1.0183,1.1872,1.1993,1.2569,1.3389,1.3389,1.3509,1.3599,1.2689,1.293,1.3688,0.4323,0.4043,0.38,0.347,0.3294,0.3183,0.315,0.3003,0.2968,0.3147,0.325,0.317,0.2823,0.2814,0.2598,0.2003,0.1435,0.1068,0.0905,0.0788,0.0718,0.0701,0.0784,0.078,0.0705,-0.0022,-0.0398,-0.0403,-0.0515,-0.0381,0.0022,0.0553,0.0814,0.0813,0.081,0.0757,0.0715,0.075,0.0761,0.0714,0.0232,-0.0084,-0.0268,-0.0336,-0.0661,-0.0996,-0.0369,-0.0114,0.0,0.0,-0.0094,-0.0095,-0.0135,-0.0175,-0.0137,0.0177,0.0059,0.0,-0.0221,0.0,0.0,0.0,-0.1773,-0.1821,-0.1848,-0.1868,-0.1874,-0.1955,-0.1998,-0.1787,-0.1037,-0.1101,-0.1033,0.0,-0.0082,0.011,0.0332,0.1153,0.1848,0.2216,0.2465,0.2558,0.2533,0.2047,0.1975,0.2589,0.2945,0.3153,0.3205,0.3623,0.3868,0.3843,0.3942,0.3989,0.4015,0.4015,0.398,0.3913,0.3913,0.3876,0.3897,0.5189,0.6552,0.7989,1.0085,1.145,1.2234,1.284,1.3324,1.3688,1.3688,1.3688,1.3658,1.3234,1.3354,1.3688,0.4468,0.4124,0.3776,0.3409,0.3335,0.3286,0.3122,0.2986,0.2911,0.2944,0.3004,0.2998,0.2873,0.2489,0.217,0.1969,0.1581,0.116,0.0765,0.0637,0.0548,0.0508,0.057,0.056,0.0517,0.0065,-0.0174,-0.0176,0.0066,0.0199,0.02,0.0897,0.1242,0.1313,0.1244,0.125,0.1305,0.1305,0.131,0.1245,0.0615,0.0338,0.0267,0.019,0.0146,0.0202,0.0547,0.0673,0.067,0.0693,0.0692,0.0672,0.063,0.0612,0.0649,0.0851,0.1052,0.0891,-0.0607,0.0,0.0,-0.1813,-0.2128,-0.2128,-0.1765,-0.1669,-0.1632,-0.145,-0.1429,-0.1144,-0.0213,-0.0108,0.0027,0.0659,0.0991,0.1163,0.1182,0.2052,0.2703,0.2716,0.3374,0.3813,0.3756,0.3153,0.3048,0.3785,0.3793,0.3804,0.3864,0.3941,0.3954,0.3966,0.4032,0.4077,0.4093,0.4077,0.4019,0.3889,0.4287,0.4408,0.4414,0.6041,0.7933,1.0061,1.1571,1.2359,1.2659,1.3384,1.3688,1.3688,1.3688,1.3688,1.3688,1.3688,1.3688,1.3688,0.4907,0.461,0.4231,0.3763,0.3681,0.3556,0.3163,0.2986,0.2883,0.2811,0.2865,0.3001,0.3252,0.2582,0.2106,0.2093,0.1371,0.0755,0.0336,0.0426,0.0359,0.0041,0.0203,0.0226,0.0021,0.0253,0.0379,0.038,0.057,0.0683,0.0675,0.0719,0.0857,0.1097,0.1031,0.1118,0.1305,0.1305,0.131,0.1305,0.1274,0.1263,0.1281,0.146,0.1548,0.1465,0.0832,0.0599,0.061,0.0684,0.0659,0.0611,0.0684,0.0659,0.0749,0.1451,0.2179,0.2181,0.0,0.0,-0.0445,-0.1767,-0.2198,-0.1965,-0.0647,-0.0362,-0.0126,0.0655,0.0815,0.0818,0.0846,0.0581,0.0392,0.042,0.1177,0.1804,0.186,0.2899,0.3671,0.3759,0.385,0.391,0.0,0.3859,0.3849,0.3911,0.3963,0.4019,0.408,0.4084,0.4086,0.4088,0.4034,0.4034,0.4093,0.4035,0.3977,0.392,0.5204,0.5796,0.5829,0.8129,1.0108,1.1726,1.2053,1.2749,1.3658,1.3688,1.3688,1.3688,1.3688,1.3688,1.3688,1.3688,1.3688,1.3688,0.4923,0.4632,0.4326,0.4075,0.4035,0.3902,0.3491,0.3126,0.2895,0.2871,0.2846,0.0,0.0,0.0,0.0,0.0,0.1316,0.0707,0.0269,0.0185,0.0126,0.0,0.0058,0.0079,0.0,0.0268,0.0394,0.04,0.0611,0.0697,0.0702,0.0692,0.0815,0.103,0.0966,0.1063,0.1297,0.1297,0.1292,0.1305,0.1294,0.1303,0.1333,0.1573,0.1629,0.1614,0.0,0.1763,0.1749,0.1905,0.1981,0.1991,0.1975,0.1981,0.2045,0.2345,0.2544,0.2324,0.0705,0.0,0.0095,-0.0767,-0.0914,-0.0649,0.0125,0.0435,0.0629,0.0849,0.0891,0.1069,0.1663,0.1535,0.1514,0.2101,0.2465,0.2678,0.2751,0.316,0.354,0.3847,0.3726,0.0,0.0,0.0,0.0,0.403,0.4015,0.403,0.4091,0.4093,0.4112,0.4151,0.4173,0.4226,0.4245,0.5144,0.5521,0.5387,0.6639,0.7532,0.8162,0.9627,1.0925,1.2113,1.2874,1.3384,1.3688,1.3688,1.3688,1.3688,1.3688,1.3688,1.3688,1.3688,1.3688,1.3688,0.5163,0.488,0.4584,0.4468,0.4433,0.0,0.0,0.0,0.0,0.0,0.0,0.0,0.0,0.0,0.0,0.0,0.0,0.0888,0.0175,0.0346,0.0439,0.0398,0.0628,0.0758,0.0743,0.0691,0.0659,0.0649,0.0512,0.0454,0.0457,0.0451,0.0613,0.0885,0.0852,0.1011,0.1303,0.1303,0.1309,0.1298,0.1296,0.1305,0.1313,0.1461,0.1486,0.0,0.203,0.2204,0.2217,0.2562,0.2664,0.2657,0.2639,0.2661,0.2709,0.2705,0.265,0.2335,0.1089,0.0625,0.0349,-0.032,-0.033,0.0026,0.0811,0.1215,0.1496,0.1756,0.1823,0.2,0.2548,0.2372,0.2333,0.3022,0.3053,0.302,0.3089,0.3349,0.3537,0.3566,0.3674,0.0,0.0,0.0,0.0,0.4124,0.4109,0.4118,0.4155,0.4158,0.4176,0.4248,0.4288,0.4308,0.4308,0.5208,0.6022,0.6807,0.8001,0.9195,1.0354,1.1137,1.1864,1.2599,1.3359,1.3688,1.3688,1.3688,1.3688,1.3688,1.3688,1.3688,1.3688,1.3688,1.3688,1.3688,0.5589,0.5353,0.5041,0.0,0.0,0.0,0.0,0.0,0.0,0.0,0.0,0.0,0.0,0.0,0.0,0.0,0.0,0.0,0.0159,0.086,0.0,0.1138,0.1746,0.2103,0.2087,0.147,0.1149,0.1149,0.0444,0.0099,0.0101,0.0081,0.0308,0.0733,0.0713,0.0913,0.128,0.13,0.1296,0.1296,0.1301,0.1291,0.129,0.1229,0.1196,0.1254,0.1717,0.189,0.1989,0.0,0.2678,0.2576,0.2643,0.2664,0.2644,0.2517,0.2526,0.2278,0.0953,0.0581,0.039,-0.0312,-0.0316,0.016,0.1468,0.2002,0.2454,0.3256,0.3456,0.3493,0.0,0.0,0.2789,0.3123,0.2959,0.279,0.2884,0.3455,0.3664,0.0,0.0,0.0,0.0,0.0,0.0,0.4226,0.0,0.4308,0.4308,0.4308,0.4308,0.4308,0.4308,0.4342,0.4407,0.4535,0.5816,0.8206,0.9359,1.0717,1.2234,1.2539,1.29,1.3234,1.3569,1.3688,1.3688,1.3688,1.3688,1.3688,1.3703,1.3707,1.3707,1.3717,1.3721,1.3721,0.0,0.0,0.0,0.0,0.0,0.0,0.0,0.0,0.0,0.0,0.0,0.0,0.0,0.0,0.0,0.0,0.0,0.0,0.1348,0.1548,0.0,0.0,0.0,0.0,0.0,0.0,0.1836,0.1836,0.1664,0.1564,0.1555,0.105,0.0966,0.1206,0.0813,0.0757,0.1011,0.1209,0.1293,0.1299,0.1303,0.1272,0.1229,0.1271,0.1251,0.1257,0.161,0.1756,0.0,0.0,0.0,0.2168,0.229,0.2329,0.2324,0.2347,0.2246,0.2074,0.178,0.1575,0.1429,0.1241,0.1367,0.1716,0.2299,0.266,0.2989,0.3394,0.3452,0.3447,0.0,0.0,0.0,0.2805,0.2616,0.0,0.2591,0.2954,0.0,0.0,0.0,0.3903,0.4112,0.4231,0.0,0.0,0.4298,0.4308,0.4308,0.4308,0.4308,0.4308,0.4308,0.4809,0.5843,0.7744,0.9478,1.0966,1.1195,1.173,1.2569,1.2659,1.3024,1.3569,1.3658,1.3688,1.3688,1.3688,1.3688,1.3703,1.3863,1.3929,1.3948,1.4095,1.4151,1.4151,0.0,0.0,0.0,0.0,0.0,0.0,0.0,0.0,0.0,0.0,0.0,0.0,0.0,0.0,0.0,0.0,0.0,0.0,0.0,0.201,0.0,0.0,0.0,0.0,0.0,0.0,0.2496,0.2496,0.2231,0.2079,0.2057,0.1707,0.1689,0.195,0.1659,0.15,0.1482,0.1635,0.154,0.0,0.0,0.1242,0.125,0.1225,0.1183,0.1197,0.1494,0.1626,0.0,0.0,0.0,0.2065,0.2139,0.217,0.2194,0.2176,0.0,0.1985,0.1973,0.1885,0.1835,0.1959,0.2188,0.247,0.2802,0.305,0.3242,0.3427,0.3413,0.0,0.0,0.0,0.0,0.0,0.0,0.0,0.2914,0.3244,0.3469,0.0,0.3777,0.0,0.4068,0.4206,0.4308,0.0,0.4308,0.4308,0.4308,0.4308,0.4308,0.4308,0.4908,0.5858,0.7207,0.9212,1.0535,1.1233,1.1774,1.2342,1.2974,1.2974,1.3342,1.3962,0.0,1.3962,1.3962,1.3962,1.3962,1.3977,1.4095,1.4142,1.4156,1.427,1.4312,1.4312,0.0,0.0,0.0,0.0,0.0,0.0,0.0,0.0,0.0,0.3713,0.3411,0.0,0.0,0.0,0.0,0.0,0.0,0.0,0.0,0.0,0.0,0.0,0.0,0.0,0.0,0.0,0.3121,0.3138,0.2652,0.2388,0.2352,0.2335,0.2512,0.2835,0.2772,0.2578,0.231,0.2238,0.1905,0.1415,0.1262,0.1233,0.1269,0.0,0.1098,0.1114,0.1382,0.0,0.0,0.0,0.1838,0.2015,0.2014,0.2054,0.209,0.2028,0.1999,0.1949,0.1915,0.1889,0.1927,0.2208,0.2437,0.2681,0.3037,0.3168,0.3282,0.3352,0.0,0.3357,0.3628,0.0,0.3236,0.3757,0.0,0.3267,0.3409,0.3766,0.3857,0.3324,0.3871,0.4172,0.3902,0.4139,0.4308,0.4308,0.4308,0.4308,0.4308,0.4475,0.4675,0.4876,0.6243,0.7488,0.8551,0.9867,1.0506,1.0485,1.1731,1.2615,1.3241,1.3268,1.3645,1.4245,1.4276,0.0,1.4312,1.4312,1.4312,1.4312,1.4345,1.4355,1.4328,1.4383,1.4392,1.4392,0.0,0.0,0.0,0.0,0.0,0.0,0.0,0.0,0.0,0.0,0.437,0.3871,0.0,0.0,0.0,0.0,0.0,0.0,0.0,0.0,0.0,0.0,0.0,0.0,0.0,0.0,0.3774,0.3834,0.3951,0.405,0.4143,0.3707,0.3545,0.3585,0.3146,0.2924,0.2833,0.2381,0.214,0.199,0.1426,0.1175,0.1125,0.1109,0.0,0.0,0.0,0.0,0.0,0.0,0.1619,0.1522,0.1578,0.1606,0.1691,0.1992,0.1915,0.1851,0.2328,0.2294,0.2208,0.2523,0.2603,0.2681,0.3037,0.3035,0.0,0.0,0.3189,0.3441,0.4404,0.3631,0.0,0.4339,0.0,0.0,0.0,0.0,0.3661,0.0,0.0,0.0,0.0,0.0,0.0,0.0,0.0,0.4308,0.4308,0.5409,0.661,0.7807,0.9205,0.9968,1.0048,1.1457,1.2091,1.1953,1.2178,1.2493,1.2903,1.3178,1.3519,1.39,1.4182,0.0,1.4312,1.4312,1.4312,1.4326,1.4474,1.4545,1.4568,1.4729,1.4795,1.4795,0.0,0.0,0.0,0.0,0.0,0.0,0.0,0.6421,0.6227,0.5782,0.5592,0.515,0.4224,0.3739,0.3498,0.0,0.0,0.0,0.0,0.0,0.0,0.0,0.0,0.0,0.0,0.0,0.0,0.0,0.0,0.416,0.4178,0.3963,0.3953,0.4107,0.3842,0.3666,0.3563,0.3292,0.3012,0.2686,0.2372,0.2217,0.2153,0.0,0.0,0.0,0.0,0.0,0.0,0.0,0.1715,0.1624,0.1676,0.1704,0.1785,0.2222,0.2232,0.2201,0.2548,0.2566,0.2524,0.2833,0.2861,0.2888,0.3186,0.0,0.0,0.0,0.4283,0.474,0.5354,0.0,0.0,0.0,0.0,0.0,0.0,0.0,0.0,0.0,0.0,0.0,0.0,0.0,0.0,0.0,0.0,0.5409,0.5409,0.6775,0.8207,0.9637,1.0261,1.0874,1.1552,1.2237,1.2556,1.2474,1.2536,1.2838,1.3382,1.3538,1.3892,1.4377,1.4537,0.0,1.4601,1.4601,1.4601,1.4611,1.4715,1.4757,1.4766,1.4865,1.4898,1.4898,0.0,0.0,0.0,0.0,0.0,0.0,0.0,0.7518,0.7416,0.6747,0.697,0.6619,0.5105,0.4189,0.3668,0.0,0.0,0.0,0.0,0.0,0.0,0.0,0.0,0.0,0.0,0.0,0.0,0.0,0.3899,0.0,0.0,0.0,0.0,0.0,0.4512,0.4424,0.4259,0.4101,0.3781,0.0,0.0,0.3166,0.0,0.0,0.0,0.0,0.0,0.0,0.0,0.0,0.23,0.2359,0.2312,0.2129,0.2018,0.251,0.2595,0.2585,0.2825,0.2834,0.2858,0.3124,0.3134,0.3139,0.3326,0.4009,0.0,0.464,0.5302,0.5971,0.6328,0.0,0.0,0.0,0.0,0.0,0.0,0.0,0.0,0.0,0.0,0.0,0.0,0.0,0.0,0.0,0.0,0.0,0.7307,0.8407,0.9703,1.1101,1.1014,1.147,1.2621,1.2653,1.2653,1.2657,1.2837,1.3231,1.3814,1.3945,1.4305,1.48,1.4866,0.0,0.0,1.4898,1.4898,1.4898,1.4898,1.5094,1.5318,1.4996,1.5094,1.5318,0.0,0.0,0.0,0.0,0.0,0.0,0.0,0.883,0.8895,0.8273,0.8551,0.8083,0.6247,0.5179,0.4368,0.0,0.0,0.0,0.0,0.0,0.0,0.0,0.0,0.0,0.0,0.0,0.0,0.3617,0.3986,0.0,0.0,0.0,0.0,0.0,0.0,0.485,0.4782,0.4118,0.0,0.0,0.0,0.0,0.0,0.0,0.0,0.0,0.0,0.0,0.0,0.0,0.0,0.4168,0.3687,0.2814,0.2116,0.2695,0.0,0.0,0.3359,0.3306,0.3126,0.3408,0.3404,0.333,0.3247,0.0,0.4556,0.4449,0.5161,0.6119,0.7086,0.664,0.0,0.0,0.0,0.5119,0.0,0.0,0.0,0.0,0.0,0.0,0.0,0.0,0.0,0.0,0.0,0.0,1.0303,1.0435,1.1137,1.2568,1.2585,1.2643,1.2779,1.2779,1.2779,1.2779,1.3161,1.3367,1.3465,1.408,1.4403,1.4469,1.4768,0.0,0.0,1.4898,1.4898,1.4898,1.4898,1.5666,1.6662,1.5378,1.5699,1.6629,0.0,0.0,0.0,0.0,0.0,0.0,0.887,0.9366,0.9319,0.8345,0.8665,0.8371,0.6686,0.5963,0.5182,0.4133,0.0,0.0,0.0,0.0,0.0,0.0,0.0,0.0,0.0,0.0,0.3843,0.3837,0.3996,0.0,0.0,0.0,0.0,0.0,0.0,0.4584,0.4771,0.456,0.0,0.0,0.0,0.0,0.0,0.0,0.0,0.0,0.0,0.0,0.4268,0.0,0.0,0.0,0.384,0.3127,0.2396,0.0,0.2982,0.3049,0.3436,0.3425,0.3321,0.3467,0.3903,0.4262,0.4132,0.0,0.6307,0.613,0.6831,0.7607,0.8038,0.7894,0.7706,0.0,0.0,0.0,0.0,0.0,0.0,0.0,0.0,0.0,0.0,0.0,0.0,0.0,0.0,0.0,1.1971,1.1971,1.2235,1.277,1.2803,1.2803,1.2803,1.2803,1.2803,1.2803,1.2968,1.3264,1.372,1.3978,1.4305,1.4702,1.4833,0.0,0.0,1.5796,1.6148,1.6241,1.705,1.7721,1.8139,1.756,1.7721,1.8107,0.0,0.0,0.0,0.0,0.0,0.8648,0.9256,0.9646,0.9479,0.8387,0.8705,0.8439,0.6863,0.6441,0.5795,0.4659,0.4286,0.0,0.0,0.0,0.0,0.0,0.0,0.0,0.0,0.0,0.4144,0.4143,0.4247,0.4292,0.0,0.0,0.4405,0.4497,0.0,0.0,0.0,0.0,0.0,0.0,0.0,0.0,0.0,0.0,0.0,0.0,0.0,0.0,0.0,0.0,0.0,0.4688,0.4672,0.4238,0.3635,0.3219,0.3158,0.324,0.3428,0.3443,0.3422,0.3462,0.4167,0.4798,0.0,0.0,0.7376,0.7206,0.793,0.859,0.859,0.8706,0.8643,0.8131,0.0,0.7981,0.0,0.0,0.0,0.0,0.0,0.0,0.0,0.0,0.0,0.0,0.0,0.0,1.2803,1.2803,1.2803,1.2803,1.2803,1.2803,1.2803,1.2803,1.2803,1.2803,1.3034,1.3391,1.3908,1.4109,1.4693,1.5508,1.5508,0.0,0.0,1.7173,1.7587,1.7683,1.862,1.9259,1.9578,1.9164,1.9259,1.9546,0.0,0.0,0.0,0.0,0.0,0.0,0.9561,0.9751,0.9516,0.8699,0.8894,0.8482,0.6873,0.6516,0.6125,0.5443,0.4775,0.0,0.0,0.0,0.0,0.0,0.0,0.0,0.0,0.0,0.4499,0.449,0.483,0.4993,0.4997,0.5125,0.519,0.5182,0.0,0.0,0.0,0.0,0.0,0.0,0.0,0.0,0.5422,0.0,0.0,0.0,0.0,0.0,0.0,0.0,0.0,0.0,0.0,0.6512,0.6111,0.3784,0.3158,0.3232,0.3354,0.3413,0.3413,0.3413,0.4069,0.4685,0.4622,0.5947,0.7176,0.7103,0.79,0.859,0.859,0.8706,0.8858,0.9044,0.8529,0.0,0.0,0.0,0.0,0.0,0.0,0.0,0.0,0.0,0.0,0.0,0.0,0.0,1.2803,1.2803,1.2803,1.2803,1.2803,1.2803,1.2803,1.2803,1.2803,1.2803,1.3551,1.3875,1.3912,1.4604,1.5634,0.0,0.0,0.0,0.0,1.8972,1.8972,1.8972,1.9004,1.9833,2.0918,1.9515,1.9865,2.0886,0.0,0.0,0.0,0.0,0.0,0.0,0.0,0.9169,0.8781,0.8432,0.8055,0.7564,0.69,0.6498,0.6116,0.5771,0.4998,0.0,0.0,0.0,0.0,0.0,0.0,0.0,0.0,0.0,0.5183,0.5729,0.5563,0.5483,0.5483,0.5521,0.5476,0.5337,0.527,0.5195,0.0,0.0,0.0,0.0,0.0,0.6117,0.5962,0.0,0.0,0.0,0.0,0.0,0.0,0.0,0.0,0.0,0.0,0.0,0.0,0.5121,0.4953,0.5036,0.5304,0.5353,0.5318,0.5362,0.6104,0.6743,0.6447,0.7375,0.8268,0.8155,0.8388,0.859,0.859,0.8635,0.881,0.9229,0.9197,0.0,0.0,0.0,0.0,0.0,0.0,0.0,0.0,0.0,0.0,0.0,0.0,0.0,1.2803,1.2803,1.2803,1.2803,1.2803,1.2803,1.2803,1.2803,1.2803,1.2803,1.333,1.3687,1.3908,1.4371,1.4926,0.0,0.0,0.0,0.0,1.9674,2.0436,2.0531,2.1454,2.2059,2.2411,2.1964,2.209,2.2411,0.0,0.0,0.0,0.0,0.0,0.0,0.0,0.8567,0.8132,0.7945,0.73,0.6845,0.6796,0.635,0.5995,0.5869,0.5197,0.0,0.0,0.0,0.0,0.0,0.0,0.0,0.0,0.5471,0.5769,0.6754,0.629,0.6125,0.6184,0.6184,0.6081,0.5887,0.5751,0.5662,0.0,0.0,0.0,0.0,0.6266,0.6278,0.6199,0.0,0.0,0.0,0.0,0.0,0.0,0.0,0.0,0.0,0.0,0.0,0.0,0.0,0.6799,0.6761,0.6283,0.612,0.6093,0.6161,0.6894,0.7506,0.728,0.8015,0.8694,0.8611,0.859,0.859,0.859,0.8643,0.8839,0.9326,0.9588,0.0,0.0,0.0,0.0,0.0,0.0,0.0,0.0,0.0,0.0,0.0,0.0,0.0,1.2803,1.2803,1.2803,1.2803,1.2803,1.2803,1.2803,1.2803,1.2803,1.2803,1.3202,1.3593,1.3908,1.424,1.4856,0.0,0.0,0.0,0.0,2.0943,2.1839,2.1933,2.2755,2.3106,2.3106,2.3106,2.3106,2.3082,0.0,0.0,0.0,0.0,0.0,0.0,0.0,0.8016,0.7541,0.732,0.6653,0.6276,0.6494,0.6068,0.5763,0.5763,0.0,0.0,0.0,0.0,0.0,0.0,0.0,0.0,0.6455,0.5973,0.6319,0.7554,0.7001,0.6815,0.7006,0.7,0.6914,0.6713,0.6375,0.622,0.6183,0.0,0.0,0.0,0.6261,0.6212,0.0,0.0,0.0,0.0,0.0,0.0,0.0,0.0,0.0,0.0,0.0,0.0,0.0,0.0,0.0,0.0,0.0,0.6118,0.6128,0.6195,0.676,0.7338,0.7376,0.8023,0.0,0.859,0.859,0.8594,0.8602,0.8714,0.8946,0.9403,0.9731,0.0,0.0,0.0,0.0,0.0,0.0,0.0,0.0,0.0,0.0,0.0,0.0,0.0,1.2803,1.2803,1.2803,1.2803,1.2803,1.2803,1.2803,1.2803,1.2803,1.2803,1.3235,1.3658,1.4039,1.4432,1.5531,0.0,0.0,0.0,0.0,2.2505,2.3082,2.3106,2.3106,2.3106,2.3106,2.3074,2.3074,2.3012,0.0,0.0,0.0,0.0,0.0,0.0,0.0,0.0,0.0,0.0,0.6032,0.5342,0.5653,0.5483,0.534,0.0,0.0,0.0,0.0,0.0,0.0,0.0,0.0,0.0,0.0,0.6968,0.7249,0.8107,0.7315,0.6947,0.701,0.7112,0.7066,0.6918,0.6681,0.6445,0.6191,0.615,0.0,0.0,0.6331,0.6355,0.0,0.0,0.0,0.0,0.7043,0.7423,0.0,0.0,0.0,0.0,0.0,0.0,0.0,0.0,0.8802,0.8774,0.8561,0.0,0.8131,0.8145,0.828,0.8408,0.0,0.8448,0.859,0.859,0.859,0.8631,0.8735,0.8769,0.9073,0.9954,0.0,1.0391,0.0,0.0,0.0,0.0,0.0,0.0,0.0,0.0,0.0,0.0,0.0,1.2803,1.2803,1.2803,1.2803,1.2803,1.2803,1.2803,1.2803,1.2803,1.2803,1.2803,1.3457,1.4362,1.5456,1.6106,1.7168,0.0,0.0,0.0,2.117,2.2254,2.2856,2.3106,2.3106,2.3106,2.3074,2.2801,2.2731,2.2668,0.0,0.0,0.0,0.0,0.0,0.0,0.0,0.0,0.0,0.0,0.0,0.0,0.0,0.0,0.0,0.0,0.0,0.0,0.0,0.0,0.0,0.0,0.0,0.0,0.7476,0.7063,0.7341,0.8394,0.7617,0.7318,0.7458,0.746,0.7438,0.7347,0.7004,0.6792,0.669,0.6408,0.6387,0.6515,0.6528,0.0,0.0,0.0,0.0,0.0,0.7273,0.7607,0.0,0.8091,0.8156,0.8251,0.0,0.0,0.0,0.0,0.8948,0.9087,0.9108,0.8917,0.8769,0.8966,0.8858,0.8704,0.8739,0.8802,0.8838,0.8726,0.8863,0.8995,0.8953,0.9057,0.9368,0.0,1.0281,0.0,0.0,0.0,0.0,0.0,0.0,0.0,0.0,0.0,0.0,0.0,0.0,1.2803,1.2803,1.2803,1.2803,1.2803,1.2803,1.2803,1.2803,1.2803,1.2902,1.3104,1.41,1.5168,1.6203,1.7232,1.8165,0.0,0.0,0.0,2.1202,2.2348,2.2957,2.3106,2.3106,2.3106,2.305,2.2731,2.2606,2.2519,0.0,0.0,0.0,0.0,0.0,0.0,0.0,0.0,0.0,0.0,0.0,0.0,0.0,0.0,0.0,0.0,0.0,0.0,0.0,0.0,0.0,0.0,0.0,0.6384,0.7432,0.6979,0.7307,0.8463,0.7951,0.7826,0.8074,0.8003,0.7937,0.7814,0.7312,0.7167,0.7257,0.6704,0.6636,0.6884,0.6782,0.0,0.0,0.0,0.0,0.0,0.0,0.0,0.0,0.8336,0.8413,0.8437,0.8437,0.0,0.0,0.0,0.0,0.0,0.9065,0.8845,0.8773,0.9117,0.8915,0.8671,0.8843,0.9048,0.9111,0.8887,0.9192,0.9426,0.922,0.9445,0.0,0.0,0.0,0.0,0.0,0.0,0.0,0.0,0.0,0.0,0.0,0.0,0.0,0.0,0.0,1.2803,1.2803,1.2803,1.2902,1.3095,1.3128,1.3227,1.3453,1.3227,1.3391,1.3954,1.5168,1.6166,1.7082,1.8256,1.9094,1.961,0.0,0.0,2.1423,2.2512,2.3019,2.3106,2.3106,2.3074,2.2988,2.2637,2.248,2.2362,0.0,0.0,0.0,0.0,0.0,0.0,0.0,0.0,0.0,0.0,0.0,0.0,0.0,0.0,0.0,0.0,0.0,0.0,0.0,0.0,0.0,0.0,0.0,0.7229,0.725,0.7916,0.8293,0.8325,0.8518,0.8541,0.8436,0.8693,0.8534,0.8036,0.762,0.7381,0.7282,0.6962,0.6854,0.6897,0.6878,0.0,0.0,0.0,0.0,0.0,0.0,0.0,0.0,0.838,0.8521,0.865,0.865,0.0,0.0,0.0,0.0,0.0,0.9462,0.9297,0.9038,0.8777,0.8741,0.8779,0.8802,0.8967,0.9102,0.9056,0.9241,0.9436,0.9518,0.9709,1.0079,0.0,0.0,0.0,0.0,0.0,0.0,0.0,0.0,1.2803,1.2803,0.0,0.0,0.0,0.0,1.2803,1.2803,1.2803,1.3354,1.4553,1.4586,1.5136,1.6333,1.5168,1.5201,1.6462,1.6953,1.7973,1.9464,2.0024,2.0924,2.2034,0.0,2.2104,2.2355,2.2292,2.2574,2.3106,2.3106,2.2926,2.2644,2.2299,2.2017,2.1702,0.0,0.0,0.0,0.0,0.0,0.0,0.0,0.0,0.0,0.0,0.0,0.0,0.0,0.0,0.0,0.0,0.0,0.0,0.0,0.0,0.0,0.0,0.0,0.0,0.7365,0.7887,0.8337,0.8682,0.8951,0.9141,0.9256,0.9182,0.8897,0.8407,0.8003,0.7798,0.7716,0.737,0.7226,0.7216,0.0,0.0,0.0,0.0,0.0,0.0,0.0,0.0,0.0,0.0,0.914,0.8854,0.8854,0.0,0.0,0.0,0.0,0.0,0.9567,0.9486,0.93,0.8991,0.895,0.9018,0.9247,0.944,0.9553,0.9409,0.9723,1.0049,1.003,0.0,1.0584,1.1343,0.0,1.2055,0.0,0.0,0.0,0.0,0.0,1.2803,1.2803,0.0,0.0,0.0,0.0,0.0,1.3875,1.394,1.4586,1.5976,1.6041,1.6683,1.8069,1.7613,1.7361,1.7276,1.839,1.9413,2.0373,2.1461,2.2285,2.2863,0.0,2.2644,2.2574,2.2425,2.2456,2.255,2.255,2.248,2.2292,2.1954,2.1607,2.1299,0.0,0.0,0.0,0.0,0.0,0.0,0.0,0.0,0.0,0.0,0.0,0.0,0.0,0.0,0.0,0.0,0.0,0.0,0.0,0.0,0.0,0.0,0.0,0.0,0.0,0.7947,0.8442,0.9157,0.9495,0.9773,0.9993,0.9575,0.9158,0.8763,0.8402,0.818,0.8083,0.7717,0.7542,0.7505,0.0,0.0,0.0,0.0,0.0,0.0,0.0,0.0,0.0,0.0,0.0,0.0,0.0,0.0,0.0,0.9377,0.9488,0.9522,0.9527,0.9606,0.9639,0.9493,0.9323,0.9302,0.9601,0.9858,1.0,0.9775,1.0218,1.0618,0.0,1.0847,0.0,1.1803,1.1939,1.2132,1.2539,1.2633,1.2678,1.2787,1.2803,1.2803,1.2803,0.0,0.0,0.0,0.0,0.0,1.5331,1.5396,1.6041,1.7426,1.7458,1.8165,1.9584,1.9865,1.9483,1.8466,1.9897,2.0728,2.1114,2.2418,2.2988,2.2988,2.2887,2.2731,2.2487,2.2393,2.2268,2.2111,2.2111,2.2048,2.1954,2.1607,2.133,2.1109,0.0,0.0,0.0,0.0,0.0,0.0,0.0,0.0,0.0,0.0,0.0,0.0,0.0,0.0,0.0,0.0,0.0,0.0,0.0,0.0,0.0,0.0,0.0,0.0,0.0,0.8646,0.9151,0.9649,1.0417,1.0599,1.0264,0.9801,0.9353,0.8976,0.876,0.8453,0.8083,0.7867,0.7671,0.7505,0.7505,0.0,0.0,0.0,0.0,0.0,0.0,0.0,0.0,0.0,0.0,0.0,0.0,0.0,0.8899,0.9647,0.9606,0.933,0.9324,0.9728,1.0156,1.0206,0.9894,0.9567,0.9604,0.9901,1.0175,1.0149,1.0434,0.0,0.0,1.1656,1.2115,1.2169,1.2366,1.2551,1.2588,0.0,1.2791,1.2803,1.2803,1.2803,1.2803,0.0,0.0,0.0,0.0,0.0,1.678,1.6845,1.7458,1.8812,1.8876,1.968,2.1418,2.145,2.1418,2.1317,2.1758,2.2135,2.2449,2.2581,2.2644,2.2606,2.2299,2.2174,2.2111,2.1796,2.1828,2.2111,2.2111,2.1922,2.1607,2.1267,2.1109,2.1109,0.0,0.0,0.0,0.0,0.0,0.0,0.0,0.0,0.0,0.0,0.0,0.0,0.0,0.0,0.0,0.0,0.0,0.0,0.0,0.0,0.0,0.0,0.0,0.7636,0.8869,0.9085,0.9657,1.0632,1.1051,1.1,1.0475,1.0173,0.9672,0.9005,0.9047,0.8789,0.8264,0.8074,0.7865,0.7679,0.7546,0.7749,0.0,0.0,0.0,0.0,0.0,0.0,0.0,0.0,0.9469,0.9804,0.9304,0.9292,0.9437,0.9367,0.9319,0.9359,0.9665,0.9943,1.0147,1.0178,1.015,1.013,1.0266,1.031,1.0449,1.086,1.0994,0.0,0.0,0.0,1.2121,1.2676,1.2463,1.2308,1.2564,1.2532,1.2475,1.2475,1.2601,1.2986,1.3848,0.0,0.0,0.0,0.0,0.0,1.8165,1.8235,1.8876,2.0265,2.0519,2.0938,2.1576,2.2017,2.2237,2.2237,2.2362,2.2487,2.2613,2.2825,2.2926,2.2887,2.255,2.2292,2.208,2.1734,2.1544,2.1488,2.1488,2.1393,2.1267,2.1141,2.1109,2.1109,0.0,0.0,0.0,0.0,0.0,0.0,0.0,0.0,0.0,0.0,0.0,0.0,0.0,0.0,0.0,0.0,0.0,0.0,0.0,0.0,0.0,0.0,0.0,0.7586,0.8981,0.9203,0.9871,1.1,1.108,1.0834,1.0277,1.014,0.9734,0.9104,0.0,0.0,0.8481,0.8287,0.8163,0.8102,0.7966,0.8283,0.0,0.0,0.0,0.0,0.0,0.0,0.0,0.0,0.991,1.011,0.9503,0.9401,0.9509,0.9404,0.933,0.9382,0.977,1.0026,1.0189,1.0128,1.0318,1.0578,1.0756,1.0643,1.0642,1.1225,1.152,1.182,1.2192,0.0,0.0,0.0,1.2459,1.2203,1.2478,1.2381,1.2462,1.2863,1.3033,1.3611,1.4967,0.0,0.0,0.0,0.0,0.0,0.0,1.9587,2.0106,2.1387,2.1551,2.1702,2.1922,2.2355,2.2637,2.2769,2.2769,2.2769,2.2762,2.3012,2.3043,2.2918,2.2574,2.2268,2.1922,2.1576,2.1299,2.1109,2.1109,2.1109,2.1109,2.1109,2.1109,2.1109,0.0,0.0,0.0,0.0,0.0,0.0,0.0,0.0,0.0,0.0,0.0,0.0,0.0,0.0,0.0,0.0,0.0,0.0,0.5596,0.597,0.6374,0.6788,0.0,0.7579,0.8382,0.8986,0.9729,1.0598,1.0399,1.0064,0.9602,0.9611,0.0,0.0,0.0,0.0,0.0,0.0,0.0,0.8811,0.8811,0.9091,0.9502,0.0,0.0,0.0,0.0,0.0,0.0,0.0,0.9621,0.9556,1.0347,0.973,0.8913,0.9919,0.9781,0.9361,0.9552,0.9986,1.0362,1.0234,1.0507,1.0827,1.0971,1.0858,1.0798,1.1126,1.2043,1.2664,1.2268,1.2789,0.0,1.2586,1.2405,1.23,1.2336,1.2332,1.2796,1.406,1.4217,1.4716,1.599,0.0,0.0,0.0,0.0,0.0,0.0,2.0885,2.1144,2.2066,2.1758,2.1915,2.2574,2.2606,2.2762,2.3106,2.3106,2.3106,2.3106,2.3106,2.2918,2.2581,2.2268,2.1922,2.1576,2.1235,2.1109,2.1109,2.1109,2.1109,2.1109,2.1109,2.1109,2.1109,0.0,0.0,0.0,0.0,0.0,0.0,0.0,0.0,0.0,0.0,0.0,0.0,0.0,0.0,0.0,0.0,0.0,0.0,0.5391,0.5903,0.6323,0.6572,0.6667,0.7177,0.8173,0.8769,0.9592,1.0598,1.0692,1.0348,0.9611,0.0,0.0,0.8907,0.0,0.0,0.0,0.0,0.0,0.9064,0.9737,1.0078,1.0235,0.0,0.0,0.0,0.0,0.0,0.0,0.0,0.0,0.0,1.0317,1.0376,1.0496,1.0263,1.0433,1.0612,1.0205,1.031,1.0567,1.0677,1.0718,1.0785,1.0971,1.1021,0.0,0.0,1.2021,1.2401,1.2477,1.2337,0.0,1.2651,1.3027,1.3332,1.3415,1.4131,1.4756,1.5148,1.5282,1.5858,1.7231,0.0,0.0,0.0,0.0,0.0,0.0,2.0757,2.1009,2.1744,2.1696,2.1987,2.2574,2.2832,2.3012,2.3106,2.3106,2.3106,2.3106,2.3106,2.2918,2.2581,2.2268,2.1922,2.1576,2.1235,2.1109,2.1109,2.1109,2.1109,2.1109,2.1109,2.1109,2.1109,0.0,0.0,0.0,0.0,0.0,0.0,0.0,0.0,0.5001,0.5001,0.5001,0.5001,0.0,0.0,0.0,0.5001,0.5368,0.0,0.5313,0.587,0.6257,0.6379,0.6459,0.6926,0.7842,0.86,0.9269,0.985,1.0126,0.999,0.0,0.0,0.0,0.9076,0.0,0.9569,0.0,0.0,0.0,1.0325,1.0822,1.1108,1.1207,0.0,0.0,0.0,0.0,0.0,0.0,0.0,0.0,0.0,1.0308,1.0331,1.048,1.0326,1.0457,1.057,1.0177,1.0294,1.0534,1.059,1.0723,1.0899,1.1151,0.0,0.0,0.0,1.2044,1.2335,1.2289,1.2599,0.0,1.3128,1.3891,1.4486,1.456,1.5154,1.5776,1.6279,1.6432,1.7,1.8354,0.0,0.0,0.0,0.0,0.0,0.0,2.0766,2.1062,2.1795,2.1862,2.211,2.2606,2.2915,2.3106,2.3106,2.3106,2.3106,2.3106,2.2957,2.2731,2.2393,2.1922,2.1576,2.1393,2.1172,2.1109,2.1109,2.1109,2.1109,2.1109,2.1109,2.1109,2.1109,0.0,0.0,0.0,0.0,0.0,0.0,0.0,0.5001,0.5001,0.5001,0.5001,0.5001,0.0,0.0,0.0,0.5001,0.5349,0.5486,0.5285,0.5823,0.6153,0.6172,0.6421,0.6855,0.7482,0.8439,0.884,0.8703,0.9118,0.9322,0.0,0.0,0.9672,0.9626,0.0,1.0166,0.0,0.0,0.0,1.1965,1.185,1.197,1.2193,1.16,0.0,0.0,0.0,0.0,0.0,0.0,0.0,0.0,1.0476,1.006,0.9729,1.0441,1.035,1.0002,0.9901,1.0171,1.0449,1.0282,1.0645,0.0,1.1399,1.1572,1.1648,1.155,0.0,1.2423,1.2047,1.3315,1.4307,1.3933,1.4946,1.5782,1.5782,1.5871,1.6367,1.7542,1.766,1.814,0.0,0.0,0.0,0.0,0.0,0.0,0.0,2.0859,2.1155,2.2125,2.2063,2.2198,2.2592,2.2884,2.3084,2.3106,2.3106,2.3106,2.3074,2.2762,2.2393,2.2017,2.1393,2.1109,2.1109,2.1109,2.1109,2.1109,2.1109,2.1109,2.1109,2.1109,2.1109,2.1109,0.0,0.0,0.0,0.0,0.0,0.0,0.5018,0.5001,0.5001,0.5001,0.5001,0.5001,0.5001,0.5001,0.0,0.5001,0.5223,0.528,0.5076,0.5486,0.5799,0.5959,0.6663,0.719,0.7489,0.8022,0.842,0.8703,0.9269,0.9424,0.0,0.0,0.0,0.9884,0.0,1.098,0.0,0.0,0.0,0.0,1.1587,1.1845,1.1921,1.2037,1.2093,0.0,0.0,0.0,0.0,0.0,0.0,0.0,1.1633,1.1843,1.1905,1.2379,1.2486,1.2269,1.1427,1.1144,1.1038,1.0729,1.0911,1.1187,1.1236,1.2165,1.2754,1.1923,1.1871,1.2237,1.3144,1.3613,1.4166,1.5046,1.6243,1.7103,1.7103,1.7935,1.8684,1.8946,1.8975,1.9178,0.0,0.0,0.0,0.0,0.0,0.0,2.0787,2.0737,2.1039,2.1789,2.1552,2.1782,2.2585,2.2658,2.2826,0.0,2.3106,2.3106,2.3074,2.2762,2.2268,2.167,2.1267,2.1109,2.1109,2.1109,2.1109,2.1109,2.1109,2.1109,2.1109,2.1109,2.1109,2.1109,0.0,0.0,0.0,0.0,0.0,0.0,0.0,0.0,0.5254,0.5032,0.5001,0.5001,0.5001,0.5001,0.0,0.0,0.5185,0.5214,0.501,0.5377,0.5643,0.5747,0.6374,0.6686,0.6592,0.7399,0.7894,0.8084,0.8902,0.0,0.0,0.0,0.0,1.0086,0.0,1.1264,0.0,0.0,0.0,0.0,0.0,1.2351,1.228,1.2295,1.2228,1.2096,1.2096,0.0,0.0,0.0,0.0,0.0,0.0,0.0,1.204,1.2452,1.2311,1.1908,1.1399,1.1117,0.0,1.095,0.0,1.1678,1.2042,1.2846,1.3384,1.2817,1.32,1.3824,1.45,1.5119,1.5741,1.6391,1.7578,1.8409,1.8409,1.8975,1.9395,1.9395,1.9504,0.0,0.0,0.0,0.0,0.0,0.0,2.0931,2.0931,2.0931,2.1104,2.1459,2.146,2.1663,2.2176,2.2476,2.268,2.2848,2.3032,2.2926,2.2606,2.2449,2.1985,2.1362,2.1172,2.1109,2.1109,2.1109,2.1109,2.1109,2.1109,2.1109,2.1109,2.1109,2.1109,2.1109,0.0,0.0,0.0,0.0,0.0,0.0,0.0,0.0,0.0,0.5173,0.512,0.5105,0.5061,0.5094,0.5105,0.0,0.0,0.0,0.5065,0.5398,0.5658,0.5779,0.6143,0.6173,0.5835,0.7026,0.7605,0.75,0.8588,0.0,0.0,0.0,0.0,0.0,0.0,0.0,0.0,0.0,0.0,0.0,0.0,0.0,0.0,0.0,0.0,1.2265,1.2296,1.2227,1.2065,1.155,0.0,0.0,0.0,0.0,1.1686,1.2162,1.1683,1.1079,1.1369,1.1341,1.1229,1.12,1.1757,0.0,1.2773,1.3338,1.3754,1.3695,1.4708,1.5545,1.5302,1.6479,1.7513,1.7513,1.8561,1.9395,1.9395,1.9395,1.9395,1.9395,1.9591,0.0,0.0,0.0,0.0,0.0,0.0,2.1211,2.1211,2.1211,2.1211,2.1211,2.1474,2.1672,2.1781,2.2286,2.257,2.268,2.2981,2.2762,2.2111,2.2111,2.1734,2.1109,2.1109,2.1109,2.1109,2.1109,2.1109,2.1109,2.1109,2.1109,2.1109,2.1109,2.1109,2.1109,0.0,0.0,0.0,0.0,0.0,0.0,0.0,0.0,0.0,0.0,0.5604,0.5517,0.529,0.5474,0.5517,0.5279,0.5282,0.5287,0.5268,0.0,0.0,0.6518,0.6768,0.6838,0.6724,0.7746,0.8169,0.7928,0.9052,0.0,0.0,0.0,0.0,0.0,0.0,0.0,0.0,0.0,0.0,0.0,0.0,0.0,0.0,0.0,0.0,0.0,1.3085,1.2771,1.2336,1.2703,1.2352,0.0,0.0,0.0,1.25,1.3258,1.2894,1.2449,1.3343,0.0,1.3382,0.0,1.2635,1.3341,0.0,0.0,1.3993,0.0,1.4708,1.5273,1.4172,1.5889,1.7513,1.7513,1.8561,1.9395,1.9395,1.9395,1.9395,1.9395,0.0,0.0,0.0,0.0,0.0,0.0,2.1153,2.1211,2.1211,2.1211,2.1211,2.1211,2.1247,2.1547,2.2148,2.2198,2.2513,2.3047,2.3091,2.2762,2.2111,2.2111,2.1734,2.1109,2.1109,2.1109,2.1109,2.1109,2.1109,2.1109,2.1109,2.1109,2.1109,2.1109,2.1109,2.1109,0.0,0.0,0.0,0.0,0.0,0.0,0.0,0.0,0.0,0.0,0.0,0.5658,0.5539,0.5626,0.5658,0.5539,0.5523,0.5523,0.5523,0.5606,0.5798,0.6126,0.6228,0.6263,0.6232,0.7033,0.7476,0.755,0.0,0.0,0.0,1.0825,1.1003,0.0,0.0,0.0,0.0,0.0,0.0,0.0,0.0,0.0,0.0,0.0,0.0,0.0,0.0,0.0,1.2858,1.2791,1.2461,1.2049,1.1903,0.0,0.0,0.0,1.2505,1.22,1.3397,1.351,1.324,0.0,1.301,1.3136,1.3022,0.0,1.5221,1.5039,1.6573,1.7513,1.609,1.7337,1.8554,1.8554,1.9039,1.9395,1.9395,1.9395,1.9453,0.0,0.0,0.0,0.0,0.0,0.0,0.0,2.1089,2.1211,2.1211,2.1211,2.1211,2.1211,2.1211,2.135,2.1635,2.2001,2.2491,2.3106,2.3106,2.2762,2.2111,2.2111,2.1734,2.1109,2.1109,2.1109,2.1109,2.1109,2.1109,2.1109,2.1109,2.1109,2.1109,2.1109,2.1109,2.1109,0.0,0.0,0.0,0.0,0.0,0.0,0.0,0.0,0.0,0.0,0.0,0.6035,0.5892,0.0,0.0,0.0,0.5875,0.5875,0.5875,0.581,0.5809,0.5874,0.6013,0.6024,0.5879,0.669,0.7194,0.7371,0.0,0.0,1.0237,1.0764,1.0922,0.0,1.1147,0.0,0.0,0.0,0.0,0.0,0.0,0.0,0.0,0.0,0.0,0.0,0.0,0.0,1.3099,1.3036,1.2663,1.212,1.1536,1.1418,0.0,0.0,0.0,1.2403,0.0,0.0,1.361,1.3414,1.352,1.3757,0.0,0.0,1.6229,0.0,1.785,1.91,1.7952,1.8642,1.9278,1.8975,1.9191,1.9395,1.9395,0.0,0.0,0.0,0.0,0.0,0.0,0.0,0.0,0.0,2.0996,2.1211,2.1211,2.1211,2.1211,2.1211,2.1211,2.1247,2.1335,2.1972,2.2528,2.2957,2.2976,2.2668,2.2111,2.2017,2.1639,2.1109,2.1109,2.1109,2.1109,2.1109,2.1109,2.1109,2.1109,2.1109,2.1109,2.1109,2.1109,2.1077,0.0,0.0,0.0,0.0,0.0,0.0,0.0,0.0,0.0,0.0,0.0,0.6931,0.6418,0.6819,0.6913,0.6401,0.6361,0.6361,0.6361,0.6128,0.61,0.6346,0.6844,0.0,0.6369,0.7577,0.8102,0.0,0.0,0.0,1.0022,1.0558,1.065,1.0314,1.01,0.9943,0.9938,0.0,0.0,0.0,0.0,0.0,0.0,0.0,0.0,0.0,0.0,0.0,0.0,1.3992,1.3349,1.2027,1.205,1.1502,1.1008,0.0,0.0,0.0,0.0,1.4559,0.0,1.3141,1.4586,0.0,0.0,0.0,0.0,1.6063,1.7319,1.8448,1.836,1.8939,1.9004,1.7812,1.8619,1.9395,0.0,0.0,0.0,0.0,0.0,0.0,0.0,0.0,0.0,0.0,2.0996,2.1211,2.1211,2.1211,2.1211,2.1211,2.1211,2.1357,2.1672,2.2286,2.2585,2.2621,2.2618,2.2449,2.208,2.1765,2.1425,2.1109,2.1109,2.1109,2.1109,2.1109,2.1109,2.1109,2.1109,2.1109,2.1109,2.1109,2.1109,2.1046,0.0,0.0,0.0,0.0,0.0,0.0,0.0,0.0,0.0,0.0,0.0,0.0,0.0,0.6569,0.6609,0.642,0.6562,0.6586,0.6409,0.6468,0.0,0.6155,0.6495,0.6515,0.6149,0.7097,0.7545,0.0,0.0,0.895,0.9366,0.956,0.9663,0.9734,0.9883,1.0019,1.0153,1.1163,0.0,0.0,0.0,0.0,0.0,0.0,0.0,0.0,0.0,0.0,0.0,0.0,1.316,1.2672,1.2083,1.1457,0.0,0.0,0.0,0.0,0.0,0.0,0.0,1.4699,1.5022,1.5258,1.5123,1.6326,1.7541,1.7806,1.879,1.9605,1.9616,1.9635,1.9497,1.9049,1.9207,0.0,0.0,0.0,0.0,0.0,0.0,0.0,0.0,0.0,0.0,0.0,0.0,2.1117,2.0902,2.1089,2.1089,2.0902,2.1089,2.1364,2.1693,2.2125,2.2311,2.2286,2.2486,2.2299,2.1765,2.1639,2.1418,2.1109,2.1109,2.1109,2.1109,2.1109,2.1109,2.1109,2.1109,2.1109,2.1077,2.0862,2.0767,2.0736,0.0,0.0,0.0,0.0,0.0,0.0,0.0,0.0,0.0,0.0,0.0,0.0,0.0,0.0,0.6633,0.6539,0.6779,0.6818,0.6551,0.6697,0.6562,0.6025,0.6349,0.6406,0.6137,0.675,0.0,0.0,0.7709,0.0,0.0,0.0,0.8881,0.9079,0.9354,0.0,0.0,0.0,0.0,1.2781,0.0,0.0,1.2562,0.0,0.0,0.0,0.0,0.0,0.0,0.0,0.0,0.0,0.0,0.0,0.0,0.0,0.0,0.0,1.4426,0.0,0.0,0.0,0.0,1.5364,1.5886,0.0,1.8589,1.9095,1.9766,2.0299,2.0409,2.018,1.9929,0.0,0.0,0.0,0.0,0.0,0.0,0.0,0.0,0.0,0.0,0.0,0.0,0.0,0.0,0.0,2.0716,2.0823,2.0852,2.0687,2.1024,2.1313,2.1533,2.1759,2.1892,2.1983,2.2082,2.195,2.1607,2.1488,2.1299,2.1109,2.1109,2.1109,2.1109,2.1109,2.1109,2.1109,2.1109,2.1109,2.1046,2.0736,2.0609,2.0545,0.0,0.0,0.0,0.0,0.0,0.0,0.0,0.0,0.0,0.0,0.0,0.0,0.0,0.0,0.0,0.6831,0.7056,0.7085,0.6789,0.68,0.6563,0.6015,0.0,0.0,0.0,0.0,0.0,0.0,0.724,0.0,0.0,0.0,0.828,0.0,0.8368,0.905,1.0268,0.0,1.2366,1.3539,0.0,1.2798,1.3176,0.0,0.0,0.0,1.318,1.3358,0.0,0.0,0.0,0.0,0.0,0.0,0.0,0.0,0.0,0.0,0.0,0.0,0.0,0.0,0.0,0.0,1.6664,0.0,0.0,1.9723,2.0018,2.0312,2.0634,2.0468,0.0,0.0,0.0,0.0,0.0,0.0,0.0,0.0,0.0,0.0,0.0,0.0,0.0,0.0,2.0299,2.0414,2.0658,2.0443,2.0407,2.0687,2.0996,2.1182,2.1182,2.1191,2.1353,2.1675,2.1356,2.1351,2.1576,2.1267,2.1109,2.1109,2.1109,2.1109,2.1109,2.1109,2.1109,2.1109,2.1109,2.1077,2.1046,2.0704,2.0577,2.0482,0.0,0.0,0.0,0.0,0.0,0.7386,0.7098,0.7513,0.7632,0.0,0.0,0.0,0.0,0.0,0.0,0.6875,0.7166,0.7021,0.6269,0.676,0.6684,0.5744,0.604,0.6098,0.5821,0.0,0.0,0.0,0.0,0.0,0.0,0.0,0.0,0.0,0.7605,0.8739,1.0456,1.1107,0.0,0.0,1.2945,1.2669,0.0,0.0,0.0,0.0,0.0,1.2362,0.0,0.0,1.3163,1.3583,0.0,0.0,0.0,0.0,0.0,0.0,1.3315,0.0,0.0,0.0,0.0,0.0,0.0,0.0,0.0,0.0,2.0018,2.0312,0.0,0.0,0.0,0.0,0.0,0.0,0.0,0.0,0.0,0.0,0.0,0.0,0.0,0.0,0.0,0.0,2.0465,2.0436,2.0068,1.9982,2.0068,2.0414,2.0694,2.0759,2.0536,2.098,2.1116,2.0983,2.1142,2.1196,2.1235,2.1141,2.1109,2.1109,2.1109,2.1109,2.1109,2.1109,2.1109,2.1109,2.1109,2.0951,2.0704,2.0361,2.0068,1.9839,0.0,0.0,0.72,0.72,0.7442,0.7537,0.725,0.7723,0.7857,0.0,0.0,0.0,0.0,0.0,0.0,0.0,0.7353,0.7212,0.6461,0.6698,0.6539,0.5797,0.5835,0.5801,0.5651,0.0,0.0,0.0,0.0,0.0,0.0,0.0,0.0,0.0,0.0,0.0,0.0,0.0,0.0,0.0,1.286,0.0,0.0,1.1921,1.1512,0.0,0.0,0.0,1.2849,1.232,1.288,0.0,0.0,0.0,0.0,0.0,0.0,0.0,0.0,0.0,0.0,0.0,0.0,0.0,0.0,0.0,0.0,0.0,0.0,0.0,0.0,0.0,0.0,0.0,0.0,0.0,0.0,0.0,0.0,0.0,0.0,0.0,0.0,2.0328,2.0328,2.0299,2.0213,1.9989,1.9649,1.9729,1.9895,2.0104,2.0378,2.0465,2.0299,2.0503,2.0579,2.0534,2.0713,2.0834,2.0935,2.1056,2.1109,2.1109,2.1109,2.1109,2.1109,2.1109,2.1109,2.1077,2.0951,2.0767,2.0545,2.0068,1.9775,1.9545,0.0,0.0,0.7182,0.7206,0.7547,0.776,0.7594,0.8236,0.8485,0.0,0.0,0.0,0.0,0.0,0.0,0.0,0.7597,0.7506,0.7009,0.6671,0.6346,0.6003,0.5823,0.5701,0.5658,0.5417,0.0,0.0,0.0,0.0,0.0,0.0,0.0,0.0,0.0,0.0,0.0,0.0,0.0,1.4112,1.27,1.2582,0.0,0.0,1.1912,0.0,1.2505,1.2988,1.3078,1.2158,1.2536,0.0,0.0,0.0,0.0,0.0,1.3367,0.0,0.0,0.0,0.0,0.0,0.0,0.0,0.0,0.0,0.0,0.0,0.0,0.0,0.0,0.0,0.0,0.0,0.0,0.0,0.0,0.0,0.0,0.0,0.0,0.0,2.0357,2.004,1.9953,2.0213,1.9707,1.9424,1.9453,1.9649,1.9758,1.9758,2.0068,2.0241,2.0184,1.9931,1.9937,2.0244,2.018,2.0354,2.0712,2.0942,2.1082,2.1109,2.1109,2.1109,2.1109,2.1109,2.1109,2.1077,2.0736,2.0577,2.0482,1.9833,1.9577,1.9514,0.6447,0.6777,0.7088,0.7248,0.7963,0.8397,0.81,0.8512,0.8599,0.0,0.0,0.0,0.0,0.0,0.0,0.0,0.0,0.757,0.689,0.7011,0.6757,0.5955,0.5877,0.5709,0.5382,0.5326,0.0,0.0,0.0,0.0,0.0,0.0,0.0,0.0,0.0,0.0,0.0,0.0,0.0,1.2673,1.2942,0.0,1.2802,1.1976,1.1594,1.1562,1.2075,1.2187,1.232,0.0,1.397,1.4162,0.0,0.0,0.0,0.0,0.0,0.0,0.0,0.0,0.0,0.0,0.0,0.0,0.0,0.0,0.0,0.0,0.0,0.0,0.0,0.0,0.0,0.0,0.0,0.0,0.0,0.0,0.0,0.0,0.0,0.0,2.0608,2.0385,2.0126,1.9895,1.9591,1.9475,1.97,1.9562,1.9482,1.9482,1.9758,1.9786,1.9569,1.9729,1.982,1.9889,1.989,2.016,2.0712,2.0766,2.0889,2.1109,2.1109,2.1109,2.1109,2.1109,2.1109,2.1077,2.0736,2.0456,2.0138,1.9743,1.9418,1.92,0.6024,0.6488,0.6965,0.7294,0.7875,0.8284,0.825,0.8482,0.0,0.0,0.0,0.0,0.0,0.0,0.0,0.0,0.0,0.0,0.7333,0.7139,0.684,0.6365,0.5966,0.5654,0.5452,0.5261,0.5105,0.0,0.0,0.0,0.0,0.0,0.0,0.0,0.0,0.0,0.0,0.0,1.1706,1.2257,1.281,0.0,1.263,1.1919,1.1641,1.1697,1.2112,1.2493,1.3018,1.4383,1.49,0.0,0.0,1.6111,1.595,0.0,1.4589,1.4299,0.0,0.0,0.0,1.4125,0.0,0.0,0.0,0.0,0.0,0.0,0.0,0.0,0.0,0.0,0.0,0.0,0.0,0.0,0.0,0.0,0.0,0.0,0.0,0.0,2.0687,2.0295,1.9868,1.9396,1.9365,1.9453,1.9591,1.9482,1.9395,1.9395,1.9533,1.9533,1.9395,1.9533,1.9614,1.9586,1.988,2.0167,2.0468,2.0755,2.0969,2.1109,2.1109,2.1109,2.1109,2.1109,2.1014,2.0824,2.0482,2.0265,2.0043,1.9552,1.9232,1.911,0.5717,0.6228,0.6823,0.7279,0.771,0.8077,0.8346,0.8416,0.0,0.0,0.0,0.0,0.0,0.0,0.0,0.0,0.0,0.0,0.0,0.0,0.7088,0.7046,0.6318,0.585,0.5719,0.532,0.5076,0.5001,0.0,0.0,0.0,0.0,0.0,0.0,0.0,0.0,0.0,0.0,0.0,1.1895,0.0,1.2881,1.266,1.2091,1.1905,1.2008,1.2263,1.3014,1.402,1.4966,0.0,1.6083,1.6323,1.65,0.0,0.0,0.0,0.0,0.0,0.0,0.0,0.0,0.0,1.4301,0.0,0.0,0.0,0.0,0.0,0.0,0.0,0.0,0.0,0.0,0.0,0.0,0.0,0.0,0.0,0.0,0.0,0.0,0.0,2.0103,1.9654,1.9098,1.9419,1.9602,1.9488,1.9428,1.9395,1.9395,1.9395,1.9395,1.9395,1.9395,1.9395,1.9401,1.99,2.015,2.0224,2.0782,2.1056,2.1109,2.1109,2.1109,2.1077,2.1014,2.0824,2.0577,2.0234,2.0074,1.9941,1.9334,1.911,1.911,0.5757,0.619,0.6741,0.716,0.7836,0.8418,0.8618,0.8656,0.0,0.0,0.0,0.0,0.0,0.0,0.0,0.0,0.0,0.0,0.8878,0.0,0.0,0.7965,0.7356,0.6738,0.6144,0.5738,0.5358,0.5001,0.0,0.0,0.0,0.0,0.0,0.0,0.7079,0.0,0.0,0.0,1.1898,0.0,1.2837,1.347,0.0,1.2347,1.2332,1.2643,1.2263,1.2994,1.4336,0.0,1.6366,1.714,0.0,1.8076,0.0,0.0,0.0,0.0,0.0,0.0,0.0,0.0,1.4243,0.0,0.0,0.0,0.0,0.0,0.0,0.0,0.0,0.0,0.0,0.0,0.0,0.0,0.0,0.0,0.0,0.0,0.0,0.0,0.0,1.9923,2.0033,1.972,2.0244,2.0331,1.978,1.9535,1.9395,1.9395,1.9395,1.9395,1.9395,1.9395,1.9395,1.9401,1.9693,1.9987,2.021,2.0575,2.0869,2.1109,2.1109,2.1109,2.1077,2.0767,2.064,2.0577,2.0234,1.9909,1.9609,1.9232,1.911,1.911,0.5871,0.6425,0.7041,0.7326,0.7848,0.8325,0.8652,0.8703,0.0,0.0,0.0,0.0,0.0,0.0,0.0,0.0,0.0,0.926,0.0,0.0,0.0,0.0,0.7764,0.7185,0.6791,0.6233,0.5808,0.5524,0.5524,0.0,0.0,0.0,0.0,0.0,0.7775,0.0,0.9118,0.0,0.0,0.0,0.0,0.0,0.0,1.2376,1.2403,1.2757,1.2395,1.3542,1.5253,0.0,1.7153,0.0,0.0,0.0,0.0,0.0,0.0,0.0,0.0,0.0,0.0,0.0,0.0,0.0,1.4723,0.0,1.4433,0.0,0.0,0.0,0.0,0.0,0.0,0.0,0.0,0.0,0.0,0.0,0.0,0.0,0.0,0.0,0.0,0.0,0.0,0.0,1.99,2.016,1.9609,1.9461,1.9395,1.9395,1.9395,1.9395,1.9395,1.9395,1.9481,1.9655,1.9913,2.0177,2.0501,2.0795,2.0995,2.1109,2.1109,2.1109,2.1077,2.0729,2.0488,2.0265,1.9941,1.9711,1.9545,1.9232,1.911,1.911,0.612,0.0,0.7174,0.7451,0.784,0.824,0.8637,0.8751,0.0,0.0,0.0,0.0,0.9533,0.9545,0.0,0.0,0.0,0.9455,0.0,0.0,0.9124,0.0,0.832,0.0,0.0,0.6766,0.621,0.5893,0.5793,0.0,0.0,0.0,0.0,0.0,0.0,0.9,0.9618,0.0,0.0,1.1174,1.211,1.2572,1.266,1.2357,1.2385,1.2516,1.227,1.3717,1.5761,1.5785,1.7509,0.0,1.9201,0.0,0.0,0.0,0.0,0.0,1.5943,0.0,0.0,0.0,0.0,0.0,0.0,0.0,0.0,0.0,0.0,0.0,0.0,0.0,0.0,0.0,0.0,0.0,0.0,0.0,0.0,0.0,0.0,0.0,0.0,0.0,0.0,0.0,0.0,2.01,1.9542,1.9441,1.9395,1.9395,1.9395,1.9395,1.9395,1.9475,1.9622,1.9806,2.0144,2.0468,2.0719,2.0975,2.1109,2.1109,2.1109,2.1046,2.0957,2.0609,2.0259,1.9941,1.9584,1.945,1.9418,1.92,1.911,1.911,0.6577,0.6656,0.6962,0.7425,0.7828,0.824,0.8637,0.0,0.0,0.0,0.0,0.0,0.0,0.0,0.0,0.0,0.0,0.9815,0.9885,0.0,0.9656,0.0,0.0,0.8566,0.0,0.0,0.6487,0.5893,0.0,0.0,0.0,0.0,0.0,0.0,0.0,0.892,0.9423,1.1237,1.1533,1.0893,1.1825,1.2004,1.1708,0.0,1.2296,1.1897,1.1698,0.0,0.0,1.5483,1.7214,0.0,0.0,0.0,0.0,0.0,0.0,0.0,0.0,0.0,0.0,1.6023,0.0,0.0,0.0,0.0,1.511,0.0,0.0,0.0,0.0,0.0,0.0,0.0,0.0,0.0,0.0,0.0,0.0,0.0,0.0,0.0,0.0,0.0,0.0,0.0,0.0,0.0,1.982,1.9548,1.9395,1.9395,1.9395,1.9395,1.9395,1.9646,1.9786,1.9806,2.0418,2.0699,2.0719,2.0975,2.1109,2.1109,2.1109,2.0919,2.0577,2.0265,1.9909,1.9577,1.9264,1.9104,1.9104,1.911,1.911,1.911,0.0,0.0,0.7359,0.7643,0.8036,0.8387,0.0,0.8864,0.0,0.0,0.0,0.0,0.0,0.0,0.9882,0.0,0.0,0.9789,0.978,0.9843,0.0,0.0,0.0,0.9066,0.0,0.0,0.0,0.0,0.0,0.0,0.0,0.0,0.0,0.0,0.0,0.8948,0.0,0.0,0.0,0.0,0.0,1.196,1.1679,0.0,0.0,1.1979,1.171,1.3217,0.0,1.5215,1.7041,1.9307,1.8987,1.9129,1.9407,1.9187,1.8664,0.0,0.0,0.0,1.7011,1.6396,0.0,0.0,0.0,0.0,0.0,0.0,0.0,0.0,0.0,0.0,0.0,0.0,0.0,0.0,0.0,0.0,0.0,0.0,0.0,0.0,0.0,0.0,0.0,0.0,0.0,0.0,0.0,1.9341,1.9481,1.9646,1.9495,1.9488,1.9653,1.9746,1.99,2.0064,2.0488,2.0775,2.0962,2.1069,2.1109,2.1077,2.0856,2.0704,2.0577,1.9998,1.9711,1.9577,1.9232,1.911,1.911,1.911,1.911,1.9159,0.7531,0.0,0.0,0.7865,0.8231,0.0,0.0,0.0,0.0,0.0,0.9379,0.0,0.9709,0.0,0.9746,0.0,0.9697,0.9783,1.0059,0.9989,0.0,1.0176,0.9713,0.0,0.0,0.0,0.0,0.0,0.0,0.6857,0.0,0.0,0.0,0.0,0.0,0.0,0.0,0.0,1.0391,0.0,0.0,1.1625,0.0,0.0,1.1586,1.1736,0.0,1.3065,1.5169,1.5025,1.6923,1.9297,1.8875,1.9139,1.9584,1.9496,1.9104,1.8601,1.8379,1.8013,0.0,1.706,1.7158,0.0,1.6981,0.0,0.0,0.0,0.0,0.0,0.0,0.0,0.0,0.0,0.0,0.0,0.0,0.0,0.0,0.0,0.0,0.0,0.0,0.0,0.0,0.0,0.0,0.0,0.0,0.0,1.9392,1.9786,1.9619,1.9659,1.9953,2.006,2.0207,2.0394,2.0688,2.0929,2.1109,2.1109,2.1109,2.1077,2.0767,2.0513,2.0386,1.9839,1.9514,1.9386,1.9168,1.911,1.9116,1.9213,1.931,1.9443,0.0,0.0,0.0,0.0,0.8439,0.0,0.0,0.0,0.9085,0.0,0.9425,0.9654,1.002,0.9853,0.9737,0.9785,0.9581,0.0,1.071,0.9948,0.0,0.0,0.9992,0.9318,0.9497,0.0,0.0,0.0,0.0,0.0,0.0,0.0,0.0,0.0,0.8028,0.0,0.9545,0.9504,0.9923,1.0614,1.0903,1.109,1.1219,1.1219,1.1219,1.1219,1.1199,1.2824,1.4988,1.4918,1.6835,1.9237,1.9339,1.9319,1.934,1.9696,1.9542,1.918,1.8627,1.8445,1.8329,1.8017,1.7729,0.0,0.0,0.0,1.7249,0.0,0.0,0.0,0.0,0.0,0.0,0.0,0.0,0.0,0.0,0.0,0.0,0.0,0.0,0.0,0.0,0.0,0.0,0.0,0.0,0.0,0.0,0.0,1.9225,1.978,1.98,1.994,2.0197,2.0528,2.0706,2.0712,2.0969,2.1109,2.1109,2.1109,2.1077,2.1046,2.0736,2.0386,2.0043,1.9711,1.9386,1.911,1.911,1.9122,1.9177,1.9412,1.9684,1.9905,0.7979,0.8112,0.8223,0.0,0.8552,0.8862,0.0,0.0,0.0,0.0,0.937,0.963,0.9588,0.9739,0.9846,0.9871,0.9952,0.0,0.0,0.0,0.0,1.0276,1.0022,0.9724,0.9439,0.9344,0.0,0.8375,0.0,0.0,0.6937,0.0,0.0,0.0,0.0,0.0,0.8811,0.9301,0.986,1.0492,1.0972,1.135,0.0,0.0,1.1664,1.1598,1.1321,1.2747,1.479,1.486,1.642,1.8367,1.8642,1.8859,1.9071,1.94,1.9422,1.9319,1.941,1.9081,1.8641,1.8341,1.8217,1.807,0.0,0.0,0.0,0.0,0.0,0.0,0.0,0.0,0.0,0.0,0.0,0.0,0.0,0.0,0.0,0.0,0.0,0.0,0.0,0.0,0.0,0.0,0.0,0.0,0.0,0.0,0.0,1.98,1.98,1.994,2.0197,2.0528,2.0706,2.0712,2.0969,2.1109,2.1109,2.1109,2.0951,2.0704,2.0354,2.0036,1.9711,1.936,1.9168,1.911,1.911,1.9352,1.9691,1.9551,1.9799,2.021,0.7875,0.0,0.0,0.8239,0.0,0.0,0.8617,0.0,0.0,0.9258,0.9566,0.0,0.9832,0.9958,1.0031,1.0031,1.0129,0.0,0.0,0.0,0.0,1.0331,1.0134,0.9852,0.9495,0.9581,0.0,0.8601,0.0,0.0,0.7033,0.0,0.0,0.0,0.0,0.8447,0.0,0.9353,1.005,1.07,1.1045,0.0,0.0,1.2427,1.2281,1.1838,1.2178,1.3452,1.4991,1.5156,1.6719,1.8651,1.8824,1.8985,1.9147,1.9341,1.9369,1.9335,1.9398,1.9139,1.881,1.8663,1.8541,1.8424,1.8309,1.8212,1.8114,0.0,1.7688,0.0,0.0,0.0,0.0,0.0,0.0,0.0,0.0,0.0,0.0,0.0,0.0,0.0,0.0,0.0,0.0,0.0,0.0,0.0,0.0,0.0,0.0,1.9599,1.986,2.0127,2.0428,2.0715,2.0862,2.0869,2.1029,2.1109,2.1109,2.1109,2.0919,2.0577,2.0265,1.9909,1.9577,1.9232,1.911,1.9116,1.9237,1.9539,1.9914,1.9872,2.012,2.0483,0.0,0.0,0.0,0.0,0.0,0.0,0.0,0.8905,0.0,0.9615,0.0,1.0034,1.0304,1.0266,1.0223,1.0223,0.0,1.0523,1.1109,1.057,1.0401,1.0829,1.0263,0.9839,0.964,0.9722,0.0,0.0,0.0,0.0,0.0,0.0,0.0,0.0,0.0,0.0,0.0,0.962,1.0373,0.0,1.1155,1.1443,1.1923,1.3015,1.2754,1.1953,1.3045,1.4237,1.5299,1.5518,1.7267,1.9348,1.9388,1.9395,1.9395,1.9395,1.9395,1.9341,1.9052,1.8985,1.894,1.891,1.8731,1.8669,1.9112,1.8851,1.8535,1.8472,1.8222,1.8113,0.0,0.0,0.0,0.0,0.0,0.0,0.0,0.0,0.0,0.0,0.0,0.0,0.0,0.0,0.0,0.0,0.0,0.0,0.0,0.0,0.0,1.9314,1.9833,2.0281,2.0646,0.0,2.1076,2.1109,2.1109,2.1077,2.1014,2.1014,2.0824,2.045,2.0164,1.9845,1.9514,1.9232,1.911,1.9134,1.94,1.9672,1.9917,2.0217,2.0476,2.07,0.0,0.0,0.0,0.0,0.0,0.8919,0.896,0.9474,0.9744,0.9488,0.9849,1.0105,0.9989,1.0199,1.0361,1.0361,1.0517,0.0,0.0,0.0,0.0,1.049,1.0282,1.0052,0.9843,1.0016,0.984,0.0,0.0,0.0,0.0,0.0,0.0,0.0,0.0,0.0,0.9538,1.0087,0.0,1.1013,1.1155,1.1443,1.1806,1.2044,1.1984,1.1837,1.2044,1.3423,1.5194,1.5488,1.7118,1.9045,1.9321,1.9395,1.9395,1.9395,1.9395,1.9388,1.9334,1.9321,1.9247,1.8975,1.8873,1.8812,1.8676,1.8741,1.8824,1.8824,1.8771,1.874,1.8736,0.0,0.0,0.0,0.0,0.0,0.0,0.0,0.0,0.0,0.0,0.0,0.0,0.0,0.0,0.0,0.0,0.0,0.0,0.0,0.0,0.0,1.9339,0.0,0.0,0.0,2.0869,2.1109,2.1109,2.0951,2.0704,2.0704,2.0348,1.9769,1.9705,1.9488,1.9168,1.9104,1.911,1.9134,1.94,1.9672,1.9917,2.0217,2.0476,2.07,0.0,0.0,0.0,0.0,0.0,0.0,0.0,0.9829,0.0,0.9954,1.0221,1.05,1.057,1.066,1.0745,1.0806,1.0838,1.0903,1.096,1.0859,1.0774,1.0716,1.0654,0.0,1.0176,1.0186,0.9946,0.9392,0.0,0.0,0.0,0.0,0.0,0.0,0.0,0.9054,0.0,0.0,0.0,1.1118,1.1293,1.1934,1.287,1.3529,1.335,1.2874,1.3525,1.402,1.4502,1.5325,1.6762,1.8317,1.9138,1.9395,1.9395,1.9395,1.9395,1.9395,1.9395,1.9395,1.9361,1.9192,1.9152,1.9118,1.9007,1.893,1.8907,1.8907,1.8913,1.889,1.8798,1.858,0.0,0.0,0.0,0.0,0.0,0.0,0.0,0.0,0.0,0.0,0.0,0.0,0.0,0.0,0.0,0.0,0.0,0.0,0.0,0.0,0.0,0.0,0.0,0.0,0.0,2.1109,2.1109,2.0919,2.0609,2.0609,2.0221,1.9609,1.9609,1.9424,1.911,1.911,1.9189,1.934,1.9612,1.9884,2.0156,2.0422,2.0597,2.07,0.0,0.538,0.0,0.0,0.8416,0.0,0.9716,1.0166,1.0438,1.0361,1.0627,1.0899,1.1143,1.1082,1.1078,1.1179,1.1098,1.1078,1.1183,1.1195,1.1163,1.1057,1.1053,1.0854,1.047,1.0347,1.0035,0.0,0.0,0.0,0.0,0.0,0.0,0.0,0.0,0.0,0.0,0.0,1.0676,1.1211,1.1423,1.2222,1.3405,1.4416,1.4351,1.3784,1.4535,1.4326,1.3904,1.5184,1.6455,1.7689,1.8677,1.9185,1.9395,1.9395,1.9395,1.9395,1.9395,1.9395,1.9395,1.9395,1.9395,1.9395,1.9395,1.9185,1.9018,1.9018,1.9,1.8967,1.8829,1.8996,0.0,0.0,0.0,0.0,0.0,0.0,0.0,0.0,0.0,0.0,0.0,0.0,0.0,0.0,0.0,0.0,0.0,0.0,0.0,0.0,0.0,1.9813,2.0197,0.0,2.0728,2.1022,2.1082,2.0894,2.0482,2.0482,2.0125,1.9482,1.9482,1.9322,1.911,1.911,1.9261,1.9527,1.9811,2.0044,2.0343,2.0603,2.07,2.0671,0.0,0.0,0.0,0.0,0.0,0.0,1.0121,1.0511,1.055,1.0255,1.0761,1.1126,1.1033,1.1118,1.1175,1.1191,1.1179,1.1175,1.1195,1.1195,1.1187,1.1171,1.1171,1.1033,1.0676,1.0651,1.0379,0.0,0.0,0.0,0.0,0.0,0.0,0.0,0.0,0.0,0.0,1.0735,1.1021,1.1211,1.1423,1.1699,1.1984,1.2104,1.2814,1.3545,1.2518,1.281,1.3904,1.5184,1.6455,1.7513,1.763,1.8467,1.9395,1.9395,1.9395,1.9395,1.9395,1.9395,1.9395,1.9395,1.9395,1.9395,1.9395,1.9374,1.9354,1.9354,1.9363,1.9255,1.8953,1.8713,1.8808,0.0,0.0,0.0,0.0,0.0,0.0,0.0,0.0,0.0,0.0,0.0,0.0,0.0,0.0,0.0,0.0,0.0,0.0,1.8856,0.0,1.937,2.0197,2.023,2.0421,2.0753,2.0982,2.0767,2.0138,2.0138,1.9781,1.9136,1.9136,1.9142,1.911,1.911,1.9261,1.9527,1.9811,2.0044,2.0343,2.0603,2.07,2.0596,0.0,0.0,0.0,0.0,0.0,0.0,0.0,1.0899,1.0876,1.0536,1.0904,1.0919,1.0171,1.0876,1.1104,1.0424,1.1002,1.1435,1.1549,1.1553,1.1553,1.1553,1.1447,1.1269,1.1017,1.0802,1.0534,0.0,0.0,0.0,0.0,0.0,0.0,0.0,0.0,1.0042,1.0528,1.0858,1.1159,1.1407,1.1589,1.2179,1.302,1.3794,1.4386,1.4768,1.4267,1.3909,1.367,1.3409,1.4684,1.6632,1.8175,1.8975,1.9395,1.9395,1.9395,1.9395,1.9395,1.9395,1.9395,1.9395,1.9395,1.9395,1.9395,1.9395,1.9395,1.9395,1.9225,1.9107,1.9196,1.9268,1.9333,1.93,0.0,0.0,0.0,0.0,0.0,0.0,0.0,0.0,0.0,0.0,0.0,0.0,0.0,0.0,0.0,0.0,0.0,1.9185,0.0,1.9526,2.0197,2.0204,2.0381,2.0712,2.0969,2.0767,2.0106,2.0106,1.9717,1.911,1.911,1.911,1.9122,1.9279,1.9503,1.9775,2.0053,2.0313,2.0561,2.0664,2.07,2.0665,0.3199,0.0,0.5049,0.0,0.7584,0.8833,1.0139,1.0771,1.1028,1.0881,1.0998,1.066,0.9553,1.0644,1.0991,0.9886,1.0891,1.1634,1.1798,1.1806,1.1806,1.1806,1.165,0.0,1.128,1.0956,1.0688,1.0482,1.03,0.0,0.0,0.9742,0.9913,0.0,1.0103,1.0318,1.0789,1.1053,1.1269,1.1516,1.1733,1.2337,1.3285,1.456,1.5035,1.5035,1.5035,1.447,1.3545,1.2664,1.3794,1.59,1.7707,1.88,1.9395,1.9395,1.9395,1.9395,1.9395,1.9395,1.9395,1.9395,1.9395,1.9395,1.9395,1.9395,1.9395,1.9395,1.9199,1.9092,1.9219,1.944,1.9515,1.9243,0.0,0.0,0.0,0.0,0.0,0.0,0.0,1.7829,1.7709,0.0,0.0,0.0,0.0,0.0,0.0,0.0,0.0,0.0,0.0,0.0,0.0,2.0157,2.0273,2.04,2.0772,2.0609,1.9941,1.9845,1.9558,1.911,1.911,1.911,1.9128,1.9388,1.9666,1.9944,2.021,2.047,2.07,2.07,2.0561,2.0312,0.3469,0.3569,0.3946,0.5031,0.6339,0.7581,0.8665,0.9946,1.0933,1.1235,1.0993,1.0415,0.941,1.0505,1.0902,0.9896,1.1035,1.1806,1.1806,1.1806,1.1806,0.0,0.0,1.1687,1.15,1.1175,1.0903,1.0688,0.0,0.0,0.881,0.8688,0.9246,1.0405,1.0401,1.0631,1.1017,1.1342,1.1496,1.1516,1.1733,1.1806,1.1953,1.3255,1.3725,1.3725,1.3725,1.3695,1.3695,1.3665,1.453,1.5604,1.5634,1.7379,1.9395,1.9395,1.9395,1.9395,1.9395,1.9395,1.9395,1.9395,1.9395,1.9395,1.9395,1.9395,1.9395,1.9395,1.9395,1.9301,1.8985,1.8896,1.9139,1.9774,0.0,0.0,0.0,0.0,0.0,0.0,1.8859,1.8591,1.8843,0.0,0.0,0.0,0.0,0.0,0.0,0.0,0.0,1.9401,1.9395,0.0,1.9806,2.0057,2.0052,1.9737,2.0335,2.0253,1.9577,1.9264,1.911,1.911,1.911,1.911,1.9128,1.9388,1.9666,1.9944,2.021,2.047,2.07,2.07,2.0208,1.9425,0.2914,0.2933,0.3747,0.614,0.6959,0.8088,1.0468,1.1214,1.1375,1.1001,1.0081,0.8888,0.749,0.9714,1.0445,0.0,1.0391,1.1806,0.0,1.1806,1.1806,1.1806,1.1806,1.1721,1.1504,1.139,1.124,1.1053,0.0,0.0,0.0,1.0404,1.059,1.0944,1.0944,1.1078,1.1338,1.1451,1.1573,1.1725,1.1782,1.1806,1.1927,1.3225,1.3695,1.3814,1.4679,1.5006,1.5006,1.5006,1.5273,1.5747,1.6632,1.8052,1.9395,1.9395,1.9395,1.9395,1.9395,1.9395,1.9395,1.9395,1.9395,1.9395,1.9395,1.9395,1.9395,1.9395,1.9395,1.9368,1.9274,1.9225,1.9316,1.9526,1.9372,0.0,1.9221,0.0,0.0,0.0,1.8879,1.8712,0.0,1.8958,0.0,0.0,0.0,0.0,0.0,0.0,0.0,0.0,1.9502,0.0,1.9453,1.9725,1.9718,1.9419,1.999,2.0036,1.9577,1.9264,1.911,1.911,1.911,1.9207,1.9394,1.9672,1.9944,2.0217,2.0476,2.0628,2.0631,2.0063,2.0063,2.0208,0.2735,0.2776,0.3552,0.5932,0.6676,0.7782,1.0219,1.0837,1.0785,1.0073,0.9105,0.7728,0.5839,0.8371,0.0,0.739,0.9808,1.1466,1.1587,1.1617,1.1682,1.1776,1.1806,1.1754,1.1606,1.1537,0.0,1.1296,1.1228,1.1195,1.1195,1.1195,1.1195,1.1195,1.1264,1.139,1.1504,1.1573,1.1701,1.1806,1.1806,1.1806,1.1984,1.3759,1.3819,1.3225,1.4976,1.5302,1.4798,1.4326,1.4803,1.5752,1.6544,1.7666,1.8765,1.9249,1.9395,1.9395,1.9395,1.9395,1.9395,1.9395,1.9395,1.9395,1.9395,1.9395,1.9395,1.9395,1.9395,1.9395,1.9395,1.9395,1.9395,1.9395,1.9395,1.9328,1.9118,0.0,1.9239,0.0,0.0,0.0,0.0,1.9265,1.9045,0.0,0.0,0.0,0.0,0.0,0.0,1.9486,1.9307,1.9171,1.912,1.9387,1.9434,1.9229,1.9562,1.9616,1.9424,1.92,1.911,1.9116,1.9213,1.9352,1.9527,1.9908,2.0162,2.0337,2.0603,2.07,2.0631,2.0139,2.0069,2.0156,0.2833,0.2967,0.3489,0.0,0.5857,0.0,0.8531,0.9411,0.9621,0.8845,0.829,0.7115,0.4906,0.6834,0.7939,0.7082,0.0,0.0,0.0,1.1273,1.1398,1.1746,1.1776,1.1776,1.1806,1.161,1.152,1.152,1.1317,1.1232,1.1232,1.1232,1.1232,1.124,1.1443,1.152,1.1529,1.1733,1.1806,1.1806,1.1897,1.1927,1.2191,1.4654,1.4122,1.2401,1.4862,1.4976,1.3784,1.2698,1.3824,1.5747,1.5841,1.6632,1.7747,1.9039,1.9395,1.9395,1.9395,1.9395,1.9395,1.9395,1.9395,1.9395,1.9395,1.9395,1.9395,1.9395,1.9395,1.9395,1.9395,1.9395,1.9395,1.9395,1.9395,1.9395,1.9395,1.9395,1.9579,0.0,0.0,0.0,1.98,1.9548,1.9245,0.0,0.0,0.0,0.0,0.0,1.9761,1.8923,1.893,1.8891,1.8769,1.9103,1.9204,1.9105,1.911,1.911,1.911,1.911,1.9116,1.9152,1.9388,1.9521,1.9594,2.0102,2.0319,2.0362,2.0609,2.07,2.07,2.0631,2.0162,1.9507,0.0,0.0,0.4351,0.5782,0.725,0.8743,1.0208,1.0676,1.0744,1.0338,0.9292,0.8291,0.7472,0.7915,0.8199,0.7978,0.9698,1.0819,1.091,1.091,1.1061,1.1398,1.1428,1.1553,1.1776,1.1766,1.1741,1.1741,1.1667,1.1676,1.1676,1.1676,1.1676,1.1646,1.1721,1.1741,1.1745,1.1786,1.1806,1.1893,1.287,1.3255,1.3435,1.5006,1.5219,1.4922,1.6479,1.6862,1.6685,1.7373,1.7373,1.722,1.8175,1.8052,1.7747,1.9039,1.9395,1.9395,1.9395,1.9395,1.9395,1.9395,1.9395,1.9395,1.9395,1.9395,1.9395,1.9395,1.9395,1.9395,1.9395,1.9395,1.9395,1.9395,1.9395,1.9395,1.9395,1.9395,1.9528,0.0,1.9646,1.9589,1.978,1.9332,1.925,0.0,0.0,0.0,0.0,1.9694,1.9328,1.8917,1.9103,1.8985,1.8489,1.8926,1.9118,1.9103,1.9106,1.911,1.911,1.911,1.9219,1.9412,1.9473,1.9733,2.0132,2.0259,2.0428,2.0616,2.0682,2.07,2.0631,1.9994,1.9905,2.001,0.2894,0.3641,0.4861,0.6916,0.7983,0.9077,1.0534,1.077,1.0551,0.9842,0.9055,0.8284,0.7486,0.7935,0.8286,0.8286,0.9679,1.0649,1.0803,1.0803,1.0927,1.1236,1.1341,1.1485,1.1646,1.1756,1.1806,1.1806,1.1806,1.1806,1.1806,1.1806,1.1806,1.1806,1.1806,1.1806,1.1806,1.1806,1.1806,1.1923,1.3195,1.3695,1.3904,1.5771,1.6101,1.5782,1.7038,1.7513,1.7513,1.7642,1.7578,1.763,1.8321,1.8046,1.7747,1.9039,1.9395,1.9395,1.9395,1.9395,1.9395,1.9395,1.9395,1.9395,1.9395,1.9395,1.9395,1.9395,1.9395,1.9395,1.9395,1.9395,1.9395,1.9395,1.9395,1.9395,1.9395,1.9395,1.9455,1.9615,1.9495,1.9461,1.9586,1.9312,1.9379,1.9963,1.9619,0.0,2.0013,1.945,1.8979,1.8684,1.8819,1.8707,1.8349,1.8845,1.9086,1.911,1.911,1.911,1.911,1.9231,1.9364,1.9509,1.9763,2.0041,2.0319,2.044,2.0573,2.07,2.07,2.07,2.0619,2.0072,2.0051,2.0209,0.3927,0.4384,0.5324,0.7863,0.8523,0.908,1.0311,1.0409,0.9903,0.8668,0.8596,0.8146,0.679,0.7857,0.8665,0.8665,0.9697,1.0455,1.0696,1.0725,1.0852,1.1134,1.1311,1.1452,1.1546,1.1747,1.1872,1.1843,1.1843,1.1843,1.1843,1.1819,1.1819,1.1843,1.1819,1.1806,1.1806,1.1806,1.1806,1.1923,1.3195,1.3814,1.4232,1.6597,1.6956,1.6314,1.7402,1.7783,1.7636,1.655,1.6897,1.7783,1.7783,1.7783,1.7987,1.9068,1.9395,1.9395,1.9395,1.9395,1.9395,1.9395,1.9395,1.9395,1.9395,1.9395,1.9395,1.9395,1.9395,1.9395,1.9395,1.9395,1.9441,1.9568,1.9481,1.9441,1.9575,1.9481,1.9395,1.9395,1.9395,1.9395,1.9395,1.9395,1.9495,1.972,1.9535,1.9502,1.972,1.9164,1.8677,1.8421,1.8405,1.8403,1.8348,1.8794,1.9068,1.911,1.911,1.9128,1.9171,1.94,1.9545,1.9648,2.0108,2.0331,2.0386,2.0609,2.07,2.07,2.0658,2.0646,2.0609,2.035,2.0229,2.012,0.4,0.5233,0.6547,0.8115,0.9449,1.0382,1.0475,1.0582,1.0125,0.8775,0.9597,0.9783,0.8387,0.9483,1.0317,1.0317,1.0518,1.0548,1.0392,1.0375,1.0534,1.0852,1.089,1.116,1.1728,1.2051,1.2146,1.1957,1.1957,1.1957,1.1957,1.1845,1.1853,1.1953,1.1841,1.1806,1.1806,1.1806,1.1806,1.1923,1.3195,1.4351,1.548,1.695,1.8052,1.8829,1.9039,1.9098,1.9068,1.8894,1.8952,1.9098,1.9098,1.9098,1.9127,1.9336,1.9395,1.9395,1.9395,1.9395,1.9395,1.9395,1.9395,1.9395,1.9395,1.9395,1.9395,1.9395,1.9395,1.9395,1.9395,1.9395,1.9642,2.0385,1.9883,1.9655,2.0398,1.9863,1.9395,1.9395,1.9395,1.9395,1.9395,1.9395,1.9415,1.9461,1.9421,1.9415,1.9461,1.8826,1.845,1.8392,1.8405,1.8495,1.8651,1.8735,1.8886,1.911,1.911,1.9225,1.9443,1.9479,1.9751,2.0192,2.0277,2.044,2.0646,2.0688,2.07,2.0682,2.0458,2.0374,2.0343,2.0077,1.983,1.9612,0.4983,0.5554,0.6477,0.9159,1.0241,1.0697,1.0626,1.0673,1.0485,0.9812,1.0283,1.0452,0.9815,1.0316,1.0688,1.0688,1.0688,1.0663,1.0527,1.0517,1.0582,1.0745,1.0855,1.119,1.1802,1.1957,1.2075,1.2147,1.2147,1.2147,1.2147,1.2097,1.2101,1.2139,1.1991,1.1967,1.2056,1.1955,1.1914,1.2094,1.4042,1.5139,1.5811,1.7789,1.8887,1.9395,1.9395,1.9395,1.9395,1.9395,1.9395,1.9395,1.9395,1.9395,1.9395,1.9395,1.9395,1.9395,1.9395,1.9395,1.9395,1.9395,1.9395,1.9395,1.9395,1.9395,1.9395,1.9395,1.9395,1.9395,1.9395,1.9395,1.9582,2.0114,1.9762,1.9595,2.0127,1.9749,1.9395,1.9395,1.9395,1.9395,1.9395,1.9395,1.9395,1.9395,1.9395,1.9307,1.9149,1.8684,1.8334,1.82,1.8161,1.8228,1.8469,1.8475,1.8607,1.8893,1.8893,1.911,1.9503,1.966,1.9938,2.0319,2.0458,2.0591,2.07,2.07,2.0616,2.0483,2.0356,2.0229,2.0065,1.9793,1.9612,1.9479,0.5906,0.6092,0.6871,1.0117,1.0688,1.0688,1.0688,1.0688,1.0585,1.025,1.0485,1.0585,1.025,1.0485,1.0688,1.0688,1.0688,1.0688,1.0688,1.0688,1.0688,1.0688,1.0933,1.1236,1.1663,1.1823,1.2027,1.2238,1.2333,1.2365,1.2365,1.2324,1.2328,1.2357,1.2174,1.2174,1.23,1.2154,1.2062,1.2275,1.4559,1.5553,1.5888,1.8181,1.9215,1.9395,1.9395,1.9395,1.9395,1.9395,1.9395,1.9395,1.9395,1.9395,1.9395,1.9395,1.9395,1.9395,1.9395,1.9395,1.9395,1.9395,1.9395,1.9395,1.9395,1.9395,1.9395,1.9395,1.9395,1.9395,1.9395,1.9395,1.9535,1.9933,1.9676,1.9542,1.994,1.9662,1.9395,1.9395,1.9395,1.9395,1.9395,1.9395,1.9366,1.9301,1.9338,1.9199,1.8794,1.8571,1.8321,1.8,1.7863,1.798,1.8294,1.8294,1.8456,1.8776,1.8776,1.905,1.9503,1.9721,1.9935,2.0235,2.0434,2.0519,2.0519,2.0519,2.0404,2.0217,2.015,1.9999,1.9754,1.9509,1.9406,1.9376,0.6107,0.7431,0.8842,1.0419,1.0688,1.0688,1.0688,1.0688,1.0216,0.8942,0.9881,1.0216,0.8909,0.9915,1.0688,1.0688,1.0688,1.0688,1.0688,1.0688,1.0688,1.0688,1.1005,1.1193,1.1248,1.1908,1.2192,1.2024,1.2415,1.2576,1.2576,1.2381,1.2393,1.2572,1.2365,1.2296,1.2308,1.2292,1.2284,1.241,1.3899,1.5027,1.5942,1.7452,1.8602,1.9395,1.9395,1.9395,1.9395,1.9395,1.9395,1.9395,1.9395,1.9395,1.9395,1.9395,1.9395,1.9395,1.9395,1.9395,1.9395,1.9395,1.9395,1.9395,1.9395,1.9395,1.9395,1.9395,1.9395,1.9395,1.9395,1.9395,1.9669,2.0505,1.9943,1.9689,2.0525,1.9923,1.9395,1.9395,1.9395,1.9395,1.9395,1.9395,1.9272,1.8968,1.9171,1.9056,1.8463,1.8581,1.8434,1.7913,1.7659,1.7792,1.8287,1.8294,1.8547,1.908,1.908,1.9225,1.9497,1.9521,1.9684,1.9917,1.9935,1.9947,1.9947,1.9947,1.9969,1.9887,1.966,1.9545,1.9497,1.9237,1.9134,1.9134,0.7495,0.7971,0.8709,1.0386,1.0688,1.0688,1.0688,1.0688,1.0518,0.9981,1.0382,1.0485,0.9948,1.0386,1.0688,1.0688,1.0688,1.0688,1.0688,1.0688,1.0688,1.0688,1.082,1.0982,1.1214,1.1479,1.1813,1.2175,1.2338,1.2506,1.2731,1.2666,1.2637,1.2726,1.2544,1.2527,1.2593,1.2515,1.2969,1.3816,1.4925,1.6194,1.7457,1.8406,1.9127,1.9642,1.9461,1.9395,1.9395,1.9395,1.9395,1.9395,1.9395,1.9395,1.9395,1.9395,1.9395,1.9395,1.9395,1.9395,1.9395,1.9395,1.9395,1.9395,1.9395,1.9395,1.9395,1.9395,1.9395,1.9395,1.9395,1.9395,1.9562,2.0047,1.9729,1.9575,2.006,1.9722,1.9395,1.9395,1.9555,1.9566,1.9415,1.9693,1.9767,1.9492,1.9518,1.9389,1.8973,1.863,1.8362,1.8137,1.804,1.8004,1.8064,1.8209,1.8475,1.8868,1.8868,1.9086,1.9497,1.9497,1.9654,1.9887,1.9887,1.9887,1.9887,1.9887,1.9817,1.9648,1.9539,1.94,1.9243,1.9146,1.911,1.911,0.8407,0.8709,0.9178,1.0485,1.0688,1.0688,1.0688,1.0688,1.0688,1.0688,1.0688,1.0688,1.0688,1.0688,1.0688,1.0688,1.0688,1.0688,1.0688,1.0688,1.0688,1.0688,1.0688,1.082,1.1049,1.1148,1.1512,1.2144,1.2243,1.2474,1.2803,1.2803,1.2803,1.2799,1.2706,1.2718,1.2795,1.2702,1.3386,1.4631,1.5721,1.6976,1.8348,1.9232,1.9667,1.9773,1.9602,1.9475,1.9395,1.9395,1.9395,1.9395,1.9395,1.9461,1.9535,1.9535,1.9602,1.9639,1.9639,1.9639,1.9622,1.9441,1.9395,1.9421,1.9515,1.9535,1.9562,1.9619,1.9566,1.9535,1.9535,1.9461,1.9488,1.9753,1.9662,1.9606,1.9893,1.9766,1.9639,1.9639,1.9813,1.986,1.9659,1.997,2.0093,1.9804,1.9728,1.9555,1.9237,1.8735,1.842,1.842,1.8499,1.8408,1.8161,1.8318,1.8547,1.8838,1.8838,1.9026,1.9376,1.9376,1.9479,1.9666,1.9666,1.9666,1.9666,1.9666,1.9551,1.9376,1.9376,1.9267,1.911,1.911,1.911,1.911,0.8607,0.9745,1.0688,1.0688,1.0688,1.0688,1.0688,1.0688,1.0688,1.0688,1.0688,1.0688,1.0688,1.0688,1.0688,1.0688,1.0688,1.0688,1.0688,1.0688,1.0688,1.0688,1.0688,1.0688,1.0688,1.1016,1.1383,1.1813,1.2144,1.2474,1.2803,1.2803,1.2803,1.2803,1.2803,1.2803,1.2803,1.2803,1.3424,1.4534,1.5926,1.7139,1.8285,1.968,2.0046,1.9806,1.9806,1.9619,1.9401,1.9401,1.9401,1.9401,1.9401,1.9602,1.9806,1.9806,1.9977,2.0204,2.0204,2.0204,2.0064,1.9548,1.9401,1.9481,1.974,1.9806,1.9887,2.0144,1.9977,1.9806,1.9806,1.9602,1.9495,1.976,1.9806,1.9907,2.0164,2.0204,2.0204,2.0204,2.0204,2.0234,2.0234,2.0234,2.0119,1.9828,1.9757,1.9531,1.9124,1.8862,1.8686,1.8686,1.8971,1.8983,1.8723,1.8686,1.885,1.911,1.911,1.911,1.911,1.911,1.911,1.911,1.911,1.911,1.911,1.911,1.911,1.911,1.911,1.911,1.911,1.911,1.911,1.911,1.0081,1.0419,1.0688,1.0688,1.0688,1.0688,1.0688,1.0688,1.0688,1.0688,1.0688,1.0688,1.0688,1.0688,1.0688,1.0688,1.0688,1.0688,1.0688,1.0688,1.0688,1.0688,1.0688,1.0688,1.0688,1.0787,1.1019,1.138,1.1747,1.2111,1.2441,1.2704,1.2803,1.2803,1.2539,1.2441,1.2441,1.221,1.3416,1.5494,1.5911,1.7585,1.9884,2.01,2.0297,2.0388,2.018,1.9913,1.9673,1.9673,1.9673,1.9706,1.9913,2.0034,2.007,2.007,2.0137,2.0204,2.0204,2.0204,2.0157,1.9983,1.9973,1.997,2.0057,2.007,2.0097,2.0184,2.0137,2.007,2.007,2.0034,2.0,2.0057,2.007,2.0104,2.019,2.0204,2.0204,2.0204,2.121,2.1822,2.1608,2.1986,2.2089,2.1777,2.0652,1.9732,1.9136,1.9032,1.8989,1.8989,1.9068,1.9068,1.8989,1.8989,1.9032,1.911,1.911,1.911,1.911,1.911,1.911,1.911,1.911,1.911,1.911,1.911,1.911,1.911,1.911,1.911,1.911,1.911,1.911,1.911,1.0688,1.0688,1.0688,1.0688,1.0688,1.0688,1.0688,1.0688,1.0688,1.0688,1.0688,1.0688,1.0688,1.0688,1.0688,1.0688,1.0688,1.0688,1.0688,1.0688,1.0688,1.0688,1.0688,1.0688,1.0688,1.0688,1.0853,1.1214,1.1449,1.1813,1.2309,1.2375,1.2539,1.277,1.2309,1.2243,1.2507,1.2601,1.3899,1.5976,1.6532,1.8215,2.0405,2.0357,2.0429,2.0474,2.0264,2.0017,1.98,1.98,1.9873,2.0,2.015,2.0284,2.0408,2.0408,2.0457,2.055,2.055,2.055,2.055,2.055,2.0377,2.023,2.0381,2.0408,2.0441,2.0524,2.0457,2.0408,2.0408,2.0277,2.0419,2.1037,2.0737,2.0625,2.1248,2.0876,2.0759,2.1268,2.2214,2.2918,2.3271,2.3181,2.2685,2.17,2.0554,1.9686,1.9142,1.911,1.911,1.911,1.911,1.911,1.911,1.911,1.911,1.911,1.911,1.911,1.911,1.911,1.911,1.911,1.911,1.911,1.911,1.911,1.911,1.911,1.911,1.911,1.911,1.911,1.911,1.911,1.0688,1.0688,1.0688,1.0688,1.0688,1.0688,1.0688,1.0688,1.0688,1.0688,1.0688,1.0688,1.0688,1.0688,1.0688,1.0688,1.0688,1.0688,1.0688,1.0688,1.0688,1.0688,1.0688,1.0688,1.0688,1.0688,1.0853,1.1148,1.1181,1.1545,1.221,1.1945,1.2144,1.2704,1.2177,1.2276,1.2902,1.365,1.4814,1.6241,1.7512,1.8874,2.017,2.0513,2.0501,2.0277,2.0277,2.0097,1.988,1.988,2.0054,2.0244,2.027,2.0494,2.0746,2.0746,2.0902,2.1109,2.1109,2.1109,2.1109,2.1109,2.0677,2.035,2.0686,2.0746,2.0826,2.1056,2.0902,2.0746,2.0746,2.058,2.093,2.2403,2.1769,2.1596,2.3063,2.2215,2.1908,2.3107,2.338,2.3907,2.5056,2.4031,2.2428,2.0418,1.9871,1.9514,1.9264,1.9136,1.9136,1.9232,1.9136,1.911,1.911,1.911,1.911,1.911,1.911,1.911,1.911,1.911,1.911,1.911,1.911,1.911,1.911,1.911,1.911,1.911,1.911,1.911,1.911,1.911,1.911,1.911,1.0688,1.0688,1.0688,1.0688,1.0688,1.0688,1.0688,1.0688,1.0688,1.0688,1.0688,1.0688,1.0688,1.0688,1.0688,1.0688,1.0688,1.0688,1.0688,1.0688,1.0688,1.0688,1.0688,1.0688,1.0688,1.0688,1.0754,1.082,1.1085,1.1284,1.1449,1.1681,1.1879,1.2045,1.2692,1.305,1.3251,1.4259,1.5656,1.7211,1.7785,1.899,2.0513,2.0856,2.0966,2.0884,2.0884,2.0728,2.0488,2.0488,2.0528,2.0621,2.0848,2.0962,2.1015,2.1015,2.1056,2.1109,2.1109,2.1109,2.1109,2.1109,2.1015,2.0904,2.1002,2.1015,2.1036,2.1096,2.1056,2.1015,2.1015,2.1818,2.2584,2.2928,2.3593,2.4201,2.4548,2.4348,2.4255,2.4564,2.5515,2.6247,2.6529,2.5362,2.3783,2.18,2.0627,2.0062,2.0265,1.9514,1.945,2.0265,1.9514,1.911,1.911,1.911,1.911,1.911,1.911,1.911,1.911,1.911,1.911,1.911,1.911,1.911,1.911,1.911,1.911,1.911,1.911,1.911,1.911,1.911,1.911,1.911,1.0688,1.0688,1.0688,1.0688,1.0688,1.0688,1.0688,1.0688,1.0688,1.0688,1.0688,1.0688,1.0688,1.0688,1.0688,1.0688,1.0688,1.0688,1.0688,1.0688,1.0688,1.0688,1.1343,1.1703,1.1703,1.1703,1.1376,1.0688,1.0883,1.1049,1.1214,1.1251,1.1449,1.1846,1.2688,1.3247,1.3707,1.5233,1.6527,1.7604,1.8606,1.9545,2.0418,2.0926,2.1022,2.0902,2.0902,2.0808,2.0702,2.0654,2.0763,2.0909,2.1062,2.1109,2.1109,2.1109,2.1109,2.1109,2.1109,2.1109,2.1109,2.1109,2.1109,2.1109,2.1109,2.1109,2.1109,2.1109,2.1109,2.1292,2.194,2.2647,2.3504,2.4771,2.4994,2.5209,2.5851,2.5393,2.524,2.5882,2.6559,2.6983,2.6983,2.5499,2.3861,2.2233,2.1026,2.043,2.0576,2.0106,2.0265,2.1278,2.0335,1.9826,1.9826,1.9826,1.9577,1.911,1.911,1.911,1.911,1.911,1.911,1.911,1.911,1.911,1.911,1.911,1.911,1.911,1.911,1.911,1.911,1.911,1.8682,1.8092,1.0688,1.0688,1.0688,1.0688,1.0688,1.0688,1.0688,1.0688,1.0688,1.0688,1.0688,1.0688,1.0688,1.0688,1.0688,1.0688,1.0688,1.0688,1.0688,1.0688,1.085,1.1144,1.2227,1.2914,1.3144,1.3177,1.2585,1.1409,1.0949,1.1082,1.1806,1.131,1.1508,1.2367,1.3144,1.3862,1.4558,1.6527,1.7598,1.806,1.952,2.017,2.0329,2.0887,2.0962,2.0748,2.0686,2.0686,2.0695,2.0682,2.0856,2.1109,2.1109,2.1109,2.1109,2.1109,2.1109,2.1109,2.1109,2.1109,2.1109,2.1109,2.1109,2.1109,2.1109,2.1109,2.1172,2.1387,2.145,2.1853,2.317,2.3597,2.4494,2.665,2.6247,2.6064,2.7203,2.6377,2.6103,2.7203,2.7323,2.7323,2.7323,2.5361,2.3691,2.275,2.1447,2.0798,2.1114,2.0956,2.131,2.2324,2.1373,2.0766,2.0608,2.0608,2.0106,1.911,1.911,1.911,1.911,1.911,1.911,1.911,1.911,1.911,1.911,1.911,1.911,1.911,1.911,1.911,1.9078,1.8842,1.799,1.6942,1.0688,1.0688,1.0688,1.0688,1.0688,1.0688,1.0688,1.0688,1.0688,1.0688,1.0688,1.0688,1.0688,1.0688,1.0688,1.0688,1.0688,1.0688,1.0688,1.0688,1.1406,1.3038,1.291,1.337,1.4581,1.4614,1.4516,1.432,1.1901,1.1967,1.4352,1.3112,1.321,1.4548,1.5846,1.6489,1.6689,1.8194,1.9168,1.9781,2.0011,2.045,2.0982,2.1077,2.1082,2.1017,2.0708,2.0613,2.0651,2.0938,2.1046,2.1109,2.1109,2.1109,2.1109,2.1109,2.1109,2.1109,2.1109,2.1109,2.1109,2.1109,2.1109,2.1109,2.1109,2.1109,2.1418,2.2584,2.2827,2.3232,2.4502,2.5698,2.6589,2.6922,2.7813,2.8519,2.8707,2.8579,2.8519,2.8707,2.8737,2.8737,2.8737,2.6131,2.4617,2.5024,2.2546,2.167,2.3106,2.2355,2.2355,2.3355,2.2418,2.1475,2.0608,2.0608,2.0106,1.911,1.911,1.911,1.911,1.911,1.911,1.911,1.911,1.911,1.911,1.911,1.911,1.911,1.911,1.911,1.8944,1.7732,1.7173,1.678,1.0688,1.0688,1.0688,1.0688,1.0688,1.0688,1.0688,1.0688,1.0688,1.0688,1.0688,1.0688,1.0688,1.0688,1.0688,1.0688,1.0688,1.0688,1.0688,1.1442,1.2227,1.3075,1.4409,1.5451,1.6073,1.6073,1.6462,1.7254,1.4413,1.3665,1.4875,1.4254,1.4287,1.4973,1.6365,1.7012,1.7077,1.8515,1.927,1.9558,1.9947,2.0265,2.0545,2.0767,2.0824,2.0761,2.0221,2.0284,2.0577,2.0545,2.0792,2.1109,2.1109,2.1109,2.1109,2.1109,2.1109,2.1109,2.1109,2.1109,2.1109,2.1109,2.1109,2.1292,2.2059,2.2215,2.2404,2.2983,2.3659,2.4556,2.5882,2.6589,2.7263,2.8002,2.8609,2.9014,2.9014,2.9014,2.9014,2.9014,2.9014,2.9014,2.9014,2.6594,2.5177,2.5491,2.3643,2.2825,2.3549,2.3175,2.3393,2.4425,2.3456,2.2449,2.1443,2.1436,2.0652,1.911,1.911,1.911,1.911,1.911,1.911,1.911,1.911,1.911,1.911,1.911,1.911,1.911,1.911,1.8612,1.7765,1.6333,1.5321,1.4507]},{"header":{"parameterUnit":"m.s-1","parameterCategory":1,"la1":30.6,"la2":28.766,"lo1":-90.7593,"lo2":-88.6598,"dx":0.0162,"dy":0.0183,"nx":116,"ny":114,"refTime":"2022-12-24T06:00:00:Z","depth":0,"parameterNumber":3,"parameterNumberName":"V-component_of_WINDS"},"data":[0.0,0.0,0.0,0.0,0.0,0.0,0.0,0.0,0.0,0.0,0.0,0.0,0.0,0.0,0.0,0.0,0.0,0.0,0.0,0.0,0.0,0.0,0.0,0.0,0.0,0.0,0.0,0.0,0.0,0.0,0.0,0.0,0.0,0.0,0.0,0.0,0.0,0.0,0.0,0.0,0.0,0.0,0.0,0.0,0.0,0.0,0.0,0.0,0.0,0.0,0.0,0.0,0.0,0.0,0.0,0.0,0.0,0.0,0.0,0.0,0.0,0.0,0.0,0.0,0.0,0.0,0.0,0.0,0.0,0.0,0.0,0.0,0.0,0.0,0.0,0.0,0.0,0.0,0.0,0.0,0.0,0.0,0.0,0.0,0.0,0.0,0.0,0.0,0.0,0.0,0.0,0.0,0.0,0.0,0.0,0.0,0.0,0.0,0.0,0.0,0.0,0.0,0.0,0.0,0.0,0.0,0.0,0.0,0.0,0.0,0.0,0.0,0.0,0.0,0.0,0.0,0.0,0.0,0.0,0.0,0.0,0.0,0.0,0.0,0.0,0.0,0.0,0.0,0.0,0.0,0.0,0.0,0.0,0.0,0.0,0.0,0.0,0.0,0.0,0.0,0.0,0.0,0.0,0.0,0.0,0.0,0.0,0.0,0.0,0.0,0.0,0.0,0.0,0.0,0.0,0.0,0.0,0.0,0.0,0.0,0.0,0.0,0.0,0.0,0.0,0.0,0.0,0.0,0.0,0.0,0.0,0.0,0.0,0.0,0.0,0.0,0.0,0.0,0.0,0.0,0.0,0.0,0.0,0.0,0.0,0.0,0.0,0.0,0.0,0.0,0.0,0.0,0.0,0.0,0.0,0.0,0.0,0.0,0.0,0.0,0.0,0.0,0.0,0.0,0.0,0.0,0.0,0.0,0.0,0.0,0.0,0.0,0.0,0.0,0.0,0.0,0.0,0.0,0.0,0.0,0.0,0.0,0.0,0.0,0.0,0.0,0.0,0.0,0.0,0.0,0.0,0.0,0.0,0.0,0.0,0.0,0.0,0.0,0.0,0.0,0.0,0.0,0.0,0.0,0.0,0.0,0.0,0.0,0.0,0.0,0.0,0.0,0.0,0.0,0.0,0.0,0.0,0.0,0.0,0.0,0.0,0.0,0.0,0.0,0.0,0.0,0.0,0.0,0.0,0.0,0.0,0.0,0.0,0.0,0.0,0.0,0.0,0.0,0.0,0.0,0.0,0.0,0.0,0.0,0.0,0.0,0.0,0.0,0.0,0.0,0.0,0.0,0.0,0.0,0.0,0.0,0.0,0.0,0.0,0.0,0.0,0.0,0.0,0.0,0.0,0.0,0.0,0.0,0.0,0.0,0.0,0.0,0.0,0.0,0.0,0.0,0.0,0.0,0.0,0.0,0.0,0.0,0.0,0.0,0.0,0.0,0.0,0.0,0.0,0.0,0.0,0.0,0.0,0.0,0.0,0.0,0.0,0.0,0.0,0.0,0.0,0.0,0.0,0.0,0.0,0.0,0.0,0.0,0.0,0.0,0.0,0.0,0.0,0.0,0.0,0.0,0.0,0.0,0.0,0.0,0.0,0.0,0.0,0.0,0.0,0.0,0.0,0.0,0.0,0.0,0.0,0.0,0.0,0.0,0.0,0.0,0.0,0.0,0.0,0.0,0.0,0.0,0.0,0.0,0.0,0.0,0.0,0.0,0.0,0.0,0.0,0.0,0.0,0.0,0.0,0.0,0.0,0.0,0.0,0.0,0.0,0.0,0.0,0.0,0.0,0.0,0.0,0.0,0.0,0.0,0.0,0.0,0.0,0.0,0.0,0.0,0.0,0.0,0.0,0.0,0.0,0.0,0.0,0.0,0.0,0.0,0.0,0.0,0.0,0.0,0.0,0.0,0.0,0.0,0.0,0.0,0.0,0.0,0.0,0.0,0.0,0.0,0.0,0.0,0.0,0.0,0.0,0.0,0.0,0.0,0.0,0.0,0.0,0.0,0.0,0.0,0.0,0.0,0.0,0.0,0.0,0.0,0.0,0.0,0.0,0.0,0.0,0.0,0.0,0.0,0.0,0.0,0.0,0.0,0.0,0.0,0.0,0.0,0.0,0.0,0.0,0.0,0.0,0.0,0.0,0.0,0.0,0.0,0.0,0.0,0.0,0.0,0.0,0.0,0.0,0.0,0.0,0.0,0.0,0.0,0.0,0.0,0.0,0.0,0.0,0.0,0.0,0.0,0.0,0.0,0.0,0.0,0.0,0.0,0.0,0.0,0.0,0.0,0.0,0.0,0.0,0.0,0.0,0.0,0.0,0.0,0.0,0.0,0.0,0.0,0.0,0.0,0.0,0.0,0.0,0.0,0.0,0.0,0.0,0.0,0.0,0.0,0.0,0.0,0.0,0.0,0.0,0.0,0.0,0.0,0.0,0.0,0.0,0.0,0.0,0.0,0.0,0.0,0.0,0.0,0.0,0.0,0.0,0.0,0.0,0.0,0.0,0.0,0.0,0.0,0.0,0.0,0.0,0.0,0.0,0.0,0.0,0.0,0.0,0.0,0.0,0.0,0.0,0.0,0.0,0.0,0.0,0.0,0.0,0.0,0.0,0.0,0.0,0.0,0.0,0.0,0.0,0.0,0.0,0.0,0.0,0.0,0.0,0.0,0.0,0.0,0.0,0.0,0.0,0.0,0.0,0.0,0.0,0.0,0.0,0.0,0.0,0.0,0.0,0.0,0.0,0.0,0.0,0.0,0.0,0.0,0.0,0.0,0.0,0.0,0.0,0.0,0.0,0.0,0.0,0.0,0.0,0.0,0.0,0.0,0.0,0.0,0.0,0.0,0.0,0.0,0.0,0.0,0.0,0.0,0.0,0.0,0.0,0.0,0.0,0.0,0.0,0.0,0.0,0.0,0.0,0.0,0.0,0.0,0.0,0.0,0.0,0.0,0.0,0.0,0.0,0.0,0.0,0.0,0.0,0.0,0.0,0.0,0.0,0.0,0.0,0.0,0.0,0.0,0.0,0.0,0.0,0.0,0.0,0.0,0.0,0.0,0.0,0.0,0.0,0.0,0.0,0.0,0.0,0.0,0.0,0.0,0.0,0.0,0.0,0.0,0.0,0.0,0.0,0.0,0.0,0.0,0.0,0.0,0.0,0.0,0.0,0.0,0.0,0.0,0.0,0.0,0.0,0.0,0.0,0.0,0.0,0.0,0.0,0.0,0.0,0.0,0.0,0.0,0.0,0.0,0.0,0.0,0.0,0.0,0.0,0.0,0.0,0.0,0.0,0.0,0.0,0.0,0.0,0.0,0.0,0.0,0.0,0.0,0.0,0.0,0.0,0.0,0.0,0.0,0.0,0.0,0.0,0.0,0.0,0.0,0.0,0.0,0.0,0.0,0.0,0.0,0.0,0.0,0.0,0.0,0.0,0.0,0.0,0.0,0.0,0.0,0.0,0.0,0.0,0.0,0.0,0.0,0.0,0.0,0.0,0.0,0.0,0.0,0.0,0.0,0.0,0.0,0.0,0.0,0.0,0.0,0.0,0.0,0.0,0.0,0.0,0.0,0.0,0.0,0.0,0.0,0.0,0.0,0.0,0.0,0.0,0.0,0.0,0.0,0.0,0.0,0.0,0.0,0.0,0.0,0.0,0.0,0.0,0.0,0.0,0.0,0.0,0.0,0.0,0.0,0.0,0.0,0.0,0.0,0.0,0.0,0.0,0.0,0.0,0.0,0.0,0.0,0.0,0.0,0.0,0.0,0.0,0.0,0.0,0.0,0.0,0.0,0.0,0.0,0.0,0.0,0.0,0.0,0.0,0.0,0.0,0.0,0.0,0.0,0.0,0.0,0.0,0.0,0.0,0.0,0.0,0.0,0.0,0.0,0.0,0.0,0.0,0.0,0.0,0.0,0.0,0.0,0.0,0.0,0.0,0.0,0.0,0.0,0.0,0.0,0.0,0.0,0.0,0.0,0.0,0.0,0.0,0.0,0.0,0.0,0.0,0.0,0.0,0.0,0.0,0.0,0.0,0.0,0.0,0.0,0.0,0.0,0.0,0.0,0.0,0.0,0.0,0.0,0.0,0.0,0.0,0.0,0.0,0.0,0.0,0.0,0.0,0.0,0.0,0.0,0.0,0.0,0.0,0.0,0.0,0.0,0.0,0.0,0.0,0.0,0.0,0.0,0.0,0.0,0.0,0.0,0.0,0.0,0.0,0.0,0.0,0.0,0.0,0.0,0.0,0.0,0.0,0.0,0.0,0.0,0.0,0.0,0.0,0.0,0.0,0.0,0.0,0.0,0.0,0.0,0.0,0.0,0.0,0.0,0.0,0.0,0.0,0.0,0.0,0.0,0.0,0.0,0.0,0.0,0.0,0.0,0.0,0.0,0.0,0.0,0.0,0.0,0.0,0.0,0.0,0.0,0.0,0.0,0.0,0.0,0.0,0.0,0.0,0.0,0.0,0.0,0.0,0.0,0.0,0.0,0.0,0.0,0.0,0.0,0.0,0.0,0.0,0.0,0.0,0.0,0.0,0.0,0.0,0.0,0.0,0.0,0.0,0.0,0.0,0.0,0.0,0.0,0.0,0.0,0.0,0.0,0.0,0.0,0.0,0.0,0.0,0.0,0.0,0.0,0.0,0.0,0.0,0.0,0.0,0.0,0.0,0.0,0.0,0.0,0.0,0.0,0.0,0.0,0.0,0.0,0.0,0.0,0.0,0.0,0.0,0.0,0.0,0.0,0.0,0.0,0.0,0.0,0.0,0.0,0.0,0.0,0.0,0.0,0.0,0.0,0.0,0.0,0.0,0.0,0.0,0.0,0.0,0.0,0.0,0.0,0.0,0.0,0.0,0.0,0.0,0.0,0.0,0.0,0.0,0.0,0.0,0.0,0.0,0.0,0.0,0.0,0.0,0.0,0.0,0.0,0.0,0.0,0.0,0.0,0.0,0.0,0.0,0.0,0.0,0.0,0.0,0.0,0.0,0.0,0.0,0.0,0.0,0.0,0.0,0.0,0.0,0.0,0.0,0.0,0.0,0.0,0.0,0.0,0.0,0.0,0.0,0.0,0.0,0.0,0.0,0.0,0.0,0.0,0.0,0.0,0.0,0.0,0.0,0.0,0.0,0.0,0.0,0.0,0.0,0.0,0.0,0.0,0.0,0.0,0.0,0.0,0.0,0.0,0.0,0.0,0.0,0.0,0.0,0.0,0.0,0.0,0.0,0.0,0.0,0.0,0.0,0.0,0.0,0.0,0.0,0.0,0.0,0.0,0.0,0.0,0.0,0.0,0.0,0.0,0.0,0.0,0.0,0.0,0.0,0.0,0.0,0.0,0.0,0.0,0.0,0.0,0.0,0.0,0.0,0.0,0.0,0.0,0.0,0.0,0.0,0.0,0.0,0.0,0.0,0.0,0.0,0.0,0.0,0.0,0.0,0.0,0.0,0.0,0.0,0.0,0.0,0.0,0.0,0.0,0.0,0.0,0.0,0.0,0.0,0.0,0.0,0.0,0.0,0.0,0.0,0.0,0.0,0.0,0.0,0.0,0.0,0.0,0.0,0.0,0.0,0.0,0.0,0.0,0.0,0.0,0.0,0.0,0.0,0.0,0.0,0.0,0.0,0.0,0.0,0.0,0.0,0.0,0.0,0.0,0.0,0.0,0.0,0.0,0.0,0.0,0.0,0.0,0.0,0.0,0.0,0.0,0.0,0.0,0.0,0.0,0.0,0.0,0.0,0.0,0.0,0.0,0.0,0.0,0.0,0.0,0.0,0.0,0.0,0.0,0.0,0.0,0.0,0.0,0.0,0.0,0.0,0.0,0.0,0.0,0.0,0.0,0.0,0.0,0.0,0.0,0.0,0.0,0.0,0.0,0.0,0.0,0.0,0.0,0.0,0.0,0.0,0.0,0.0,0.0,0.0,0.0,0.0,0.0,0.0,0.0,0.0,0.0,0.0,0.0,0.0,0.0,0.0,0.0,0.0,0.0,0.0,0.0,0.0,0.0,0.0,0.0,0.0,0.0,0.0,0.0,0.0,0.0,0.0,0.0,0.0,0.0,0.0,0.0,0.0,0.0,0.0,0.0,0.0,0.0,3.0351,0.0,0.0,0.0,0.0,0.0,0.0,0.0,0.0,0.0,0.0,0.0,0.0,0.0,0.0,0.0,0.0,0.0,0.0,0.0,0.0,0.0,0.0,0.0,0.0,1.2492,1.2492,1.2492,1.2492,0.0,0.0,0.0,0.0,0.0,0.0,0.0,0.0,0.0,1.3008,1.385,1.5977,1.7908,1.9542,1.8583,1.7002,1.4994,0.0,0.0,0.0,0.0,0.0,0.0,0.0,0.0,0.0,0.0,0.0,0.0,0.0,0.0,0.0,0.0,0.0,0.0,0.0,0.0,0.0,0.0,0.0,0.0,0.0,0.0,0.0,0.0,0.0,0.0,0.0,0.0,0.0,0.0,0.0,0.0,0.0,0.0,0.0,0.0,0.0,0.0,0.0,0.0,0.0,0.0,0.0,0.0,0.0,0.0,0.0,0.0,0.0,0.0,0.0,0.0,0.0,0.0,0.0,0.0,0.0,0.0,0.0,0.0,0.0,0.0,0.0,0.0,0.0,0.0,0.0,3.0733,0.0,0.0,0.0,0.0,0.0,0.0,0.0,0.0,0.0,0.0,0.0,0.0,0.0,0.0,0.0,0.0,0.0,0.0,0.0,0.0,0.0,1.2776,1.293,1.2932,1.2933,1.2933,1.2937,1.2951,1.2977,1.219,0.0,0.0,0.0,0.0,0.0,1.3876,1.4869,1.5895,1.8749,2.1266,2.339,2.4256,2.2507,1.8627,0.0,0.0,0.0,0.0,0.0,0.0,0.0,0.0,0.0,0.0,0.0,0.0,0.0,0.0,0.0,0.0,0.0,0.0,0.0,0.0,0.0,0.0,0.0,0.0,0.0,0.0,0.0,0.0,0.0,0.0,0.0,0.0,0.0,0.0,0.0,0.0,0.0,0.0,0.0,0.0,0.0,0.0,0.0,0.0,0.0,0.0,0.0,0.0,0.0,0.0,0.0,0.0,0.0,0.0,0.0,0.0,0.0,0.0,0.0,0.0,0.0,0.0,0.0,0.0,3.5827,3.6691,3.7597,3.7647,3.8056,3.8587,3.5611,3.4468,3.4446,3.1596,0.0,0.0,0.0,0.0,0.0,0.0,0.0,0.0,0.0,0.0,0.0,0.0,0.0,0.0,0.0,0.0,0.0,0.0,0.0,1.384,1.4581,1.4669,1.4679,1.4679,1.4671,1.4716,1.4849,1.3972,0.0,0.0,0.0,0.0,1.3904,1.5453,1.7044,1.866,2.2732,2.4919,2.5267,2.615,2.506,2.2404,2.2884,0.0,0.0,0.0,0.0,0.0,0.0,0.0,0.0,0.0,0.0,0.0,0.0,0.0,0.0,0.0,0.0,0.0,0.0,0.0,0.0,0.0,0.0,0.0,0.0,0.0,0.0,0.0,0.0,0.0,0.0,0.0,0.0,0.0,0.0,0.0,0.0,0.0,0.0,0.0,0.0,0.0,0.0,0.0,2.4184,2.5747,0.0,0.0,0.0,0.0,0.0,0.0,0.0,0.0,0.0,0.0,0.0,0.0,0.0,3.4398,3.5092,3.6179,3.7111,3.7864,3.8629,3.9466,4.0362,4.0328,4.0392,4.0493,3.9343,0.0,3.5651,3.5092,0.0,0.0,0.0,0.0,0.0,0.0,0.0,0.0,0.0,0.0,0.0,0.0,0.0,0.0,0.0,0.0,0.0,0.0,0.0,0.0,0.0,1.6565,1.6948,1.6493,1.7324,1.7298,1.596,1.5949,0.0,0.0,1.5928,1.6422,1.6947,1.8173,2.0357,2.3522,2.6392,2.829,2.9253,2.9645,2.9237,2.8145,2.7956,2.604,2.291,2.2136,0.0,0.0,0.0,0.0,0.0,0.0,0.0,0.0,0.0,0.0,0.0,0.0,0.0,0.0,0.0,0.0,0.0,0.0,0.0,0.0,0.0,0.0,0.0,0.0,0.0,0.0,0.0,0.0,0.0,0.0,0.0,0.0,0.0,0.0,0.0,0.0,0.0,0.0,0.0,2.5062,2.6925,2.8635,2.855,2.8161,0.0,0.0,0.0,0.0,0.0,0.0,0.0,0.0,0.0,3.5846,3.6405,3.7293,3.8605,3.9478,4.0351,4.1205,4.1531,4.1927,4.2365,4.2334,4.2358,4.2361,4.1537,4.0554,3.943,3.7821,3.6717,3.5952,0.0,0.0,0.0,0.0,3.3277,3.3395,0.0,0.0,0.0,0.0,0.0,0.0,0.0,0.0,0.0,0.0,0.0,0.0,1.6569,1.8135,1.89,1.8292,1.9597,1.9671,1.7846,1.8341,1.8554,1.8192,1.8633,1.9286,2.0172,2.1477,2.4022,2.7906,2.9417,3.0828,3.2102,3.2327,3.2186,3.1756,3.1568,2.9174,2.5276,2.4607,2.3952,0.0,0.0,0.0,0.0,0.0,0.0,0.0,0.0,0.0,0.0,0.0,0.0,0.0,0.0,0.0,0.0,0.0,0.0,0.0,0.0,0.0,0.0,0.0,0.0,0.0,0.0,0.0,0.0,0.0,0.0,0.0,0.0,0.0,0.0,0.0,0.0,0.0,0.0,2.8803,3.0266,3.2034,3.2188,3.1969,0.0,0.0,0.0,0.0,0.0,0.0,3.5504,3.5773,3.6686,3.8378,3.9231,4.0284,4.1538,4.2196,4.2953,4.381,4.377,4.3916,4.4226,4.4172,4.4212,4.4255,4.3594,4.3181,4.2791,4.0107,3.896,3.8854,3.8557,3.844,3.826,3.679,3.6278,3.6358,0.0,0.0,0.0,0.0,0.0,0.0,0.0,0.0,0.0,0.0,0.0,1.7483,1.7521,1.9028,2.0012,1.9974,2.0875,2.1397,2.1341,2.1448,2.1889,2.2733,2.1967,2.1946,2.2872,2.5315,2.7901,3.059,3.1521,3.2011,3.2125,3.2949,3.2452,3.093,3.2556,3.2656,3.1486,2.8994,2.7913,2.7655,0.0,0.0,0.0,0.0,0.0,0.0,0.0,0.0,0.0,0.0,0.0,0.0,0.0,0.0,0.0,0.0,0.0,0.0,0.0,0.0,0.0,0.0,0.0,0.0,0.0,0.0,0.0,0.0,0.0,0.0,0.0,0.0,0.0,0.0,0.0,0.0,0.0,0.0,0.0,3.6453,3.651,0.0,0.0,0.0,0.0,3.5657,3.6354,3.7195,3.8076,3.8955,4.0246,4.1989,4.2939,4.3466,4.3543,4.3602,4.405,4.4927,4.4785,4.5238,4.6159,4.6029,4.6039,4.6155,4.6053,4.5498,4.4482,4.1923,4.0826,4.0674,3.9719,3.9325,3.9228,3.837,3.8073,3.8076,0.0,0.0,0.0,1.3832,1.3586,1.3479,1.3788,1.4281,1.4735,1.5033,1.6546,1.8018,1.9082,2.1732,2.3451,2.3451,2.4825,2.5027,2.3446,2.4375,2.4676,2.3964,2.5182,2.655,2.8013,3.0005,3.1497,3.2464,3.3301,3.373,3.3786,3.4042,3.3866,3.3312,3.3332,3.3498,3.3645,3.1571,3.007,2.8965,2.8014,2.5742,0.0,0.0,0.0,0.0,0.0,0.0,0.0,0.0,0.0,0.0,0.0,0.0,0.0,0.0,0.0,0.0,0.0,0.0,0.0,0.0,0.0,0.0,0.0,0.0,0.0,0.0,0.0,0.0,0.0,0.0,0.0,0.0,0.0,0.0,0.0,0.0,0.0,3.7045,3.7528,0.0,0.0,3.8497,3.8885,3.9189,4.0001,4.0856,4.1736,4.2081,4.2555,4.3176,4.4068,4.4816,4.5364,4.5929,4.6632,4.7432,4.7399,4.7556,4.79,4.7852,4.7854,4.7868,4.7245,4.6781,4.6318,4.4244,4.3008,4.2405,4.2047,4.1905,4.1879,4.158,4.1487,4.1471,0.0,0.0,0.0,1.4268,1.4254,1.4246,1.427,1.4748,1.5304,1.586,1.7408,1.9183,2.1163,2.3986,2.5859,2.6126,2.7578,2.7777,2.6136,2.7073,2.7507,2.7011,2.8906,3.0628,3.2084,3.2917,3.3629,3.4234,3.4488,3.4775,3.5094,3.5068,3.5051,3.5077,3.4452,3.4355,3.4595,3.3432,3.2118,3.0789,3.0463,2.8621,2.6026,0.0,0.0,0.0,0.0,0.0,0.0,0.0,0.0,0.0,0.0,0.0,0.0,0.0,0.0,0.0,0.0,0.0,0.0,0.0,0.0,0.0,0.0,0.0,0.0,0.0,0.0,0.0,0.0,0.0,0.0,0.0,0.0,0.0,0.0,0.0,3.7617,3.8023,3.9015,3.9718,3.9874,4.0581,4.1319,4.1927,4.2513,4.3216,4.4094,4.4427,4.472,4.5012,4.5831,4.6554,4.7139,4.7725,4.8426,4.9246,4.9246,4.9384,4.9677,4.9687,4.9671,4.9635,4.8974,4.8516,4.8158,4.689,4.5858,4.491,4.3746,4.3301,4.3301,4.3301,4.3301,4.3379,0.0,0.0,1.5115,1.5198,1.5138,1.5117,1.52,1.5138,1.5707,1.7374,1.9066,2.1089,2.3654,2.5566,2.6983,2.7803,2.8832,2.9441,2.9439,2.9569,3.04,3.215,0.0,0.0,3.4753,3.3956,3.4316,3.5932,3.5091,3.51,3.589,3.5906,3.59,3.5901,3.5905,3.5426,3.4648,3.4609,3.4171,3.3404,3.2461,3.1084,2.9475,0.0,0.0,0.0,0.0,0.0,0.0,0.0,0.0,0.0,0.0,0.0,0.0,0.0,0.0,0.0,0.0,0.0,0.0,0.0,0.0,0.0,0.0,0.0,0.0,0.0,0.0,0.0,0.0,0.0,0.0,0.0,0.0,0.0,3.7434,3.8023,3.8866,3.9775,4.1214,4.2222,4.2424,4.3107,4.3619,4.3778,4.3802,4.4192,4.5069,4.5929,4.6768,4.7607,4.8427,4.8837,4.8837,4.8877,4.9326,5.0184,5.0185,5.0615,5.1437,5.1479,5.1464,5.1425,5.1313,5.0804,4.9995,4.9834,4.9274,4.8171,4.4771,4.3456,4.3456,4.3456,4.3456,4.3685,1.4883,1.5004,1.5101,1.512,1.5106,1.5101,1.512,1.5115,1.5699,1.7374,1.9105,2.1378,2.4572,2.6526,2.8209,2.9699,3.0187,3.0424,3.0412,3.1624,3.3104,3.485,0.0,0.0,3.6548,3.6303,3.6386,3.6831,3.6541,3.6232,3.5908,3.5853,3.5843,3.5906,3.5898,3.5767,3.5507,3.4917,3.4878,3.5131,3.4306,3.2916,3.1428,0.0,0.0,0.0,0.0,0.0,0.0,0.0,0.0,0.0,0.0,0.0,0.0,0.0,0.0,0.0,0.0,0.0,0.0,0.0,0.0,0.0,0.0,0.0,0.0,0.0,0.0,0.0,0.0,0.0,0.0,0.0,0.0,3.9144,3.8355,3.9918,4.1289,4.1643,4.257,4.3219,4.3266,4.4031,4.4816,4.5537,4.6163,4.6884,4.7705,4.7978,4.8213,4.8466,4.9305,4.9734,4.9734,5.0379,5.1127,5.1986,5.1933,5.2031,5.2285,5.2927,5.2843,5.2226,5.2783,5.2857,5.2511,5.1644,5.1152,5.0678,4.8021,4.6999,4.6999,4.6999,4.6901,4.6917,1.4973,1.5045,1.5094,1.5094,1.5094,1.5094,1.5094,1.5106,1.595,1.8344,1.9588,2.1799,2.5909,2.7358,2.8741,3.0497,3.1069,3.1331,3.1343,3.2974,3.4408,0.0,0.0,3.622,3.7235,3.7578,3.7723,3.7704,3.7666,3.7415,3.6938,3.6537,3.6378,3.6395,3.6047,3.5894,3.5875,3.5403,3.5289,3.5383,3.5269,3.4394,3.3237,3.3704,3.2063,2.9544,2.9912,2.8699,2.7097,2.8322,0.0,0.0,0.0,0.0,0.0,0.0,0.0,0.0,0.0,0.0,0.0,0.0,0.0,0.0,0.0,0.0,0.0,0.0,0.0,0.0,0.0,0.0,0.0,0.0,4.0021,4.0837,4.0711,4.1907,4.2947,4.3391,4.4187,4.483,4.5243,4.6037,4.6764,4.7314,4.7822,4.8466,4.9305,4.9344,4.9506,4.9889,5.0377,5.0634,5.064,5.1152,5.1816,5.2656,5.2612,5.2783,5.3153,5.3643,5.3566,0.0,5.3485,5.3645,5.3553,5.2858,5.2576,0.0,0.0,0.0,0.0,0.0,4.9389,4.9668,1.5048,1.5089,1.5092,1.5084,1.5089,1.5094,1.5094,1.5108,1.6317,1.968,2.0301,2.2284,2.7144,2.8004,2.8864,3.0438,3.1518,3.2183,3.2378,3.3831,0.0,3.4989,3.6421,3.7305,3.748,3.8252,3.8613,3.8562,3.8555,3.8504,3.8384,3.7616,3.7253,3.7214,3.6397,3.604,3.6037,3.5935,3.5496,3.4894,3.5617,3.5418,3.4704,3.4803,3.2868,3.019,3.0954,2.9625,2.7747,2.9385,0.0,0.0,0.0,0.0,0.0,0.0,0.0,0.0,0.0,0.0,0.0,0.0,0.0,0.0,0.0,0.0,0.0,0.0,0.0,0.0,0.0,0.0,0.0,0.0,4.2148,4.3074,4.3788,4.4063,4.4409,4.4971,4.5904,4.6809,4.7658,4.8465,4.895,4.8953,4.9036,4.9427,5.0207,0.0,0.0,0.0,0.0,5.1543,5.1535,5.1631,5.2097,5.2897,5.2895,5.3303,5.4042,5.4062,5.4021,5.3931,5.389,5.3885,5.387,5.3768,5.3705,5.3458,5.1517,5.0749,5.0703,5.0706,5.1173,5.1819,1.4927,1.5034,1.5075,1.4954,1.5034,1.5094,1.5094,1.5104,1.6324,1.9728,2.0815,2.2718,2.649,2.8195,2.9247,2.9687,3.1189,3.2701,3.4106,0.0,3.5322,3.6733,3.7112,3.7915,3.9261,3.9453,3.9544,3.9538,3.9481,3.9081,3.8408,3.8225,3.8153,3.8114,3.7258,3.687,3.6832,3.6181,3.5802,3.5675,3.5846,3.543,3.4775,3.5476,3.4891,3.3721,3.3896,3.2724,3.1242,3.2299,3.1636,3.0386,3.0387,0.0,0.0,0.0,0.0,0.0,0.0,0.0,0.0,0.0,0.0,0.0,0.0,0.0,0.0,0.0,0.0,0.0,0.0,0.0,0.0,4.2076,4.4014,4.5522,4.5673,4.6907,4.733,4.6094,4.7296,4.8303,4.8553,4.9332,4.9846,4.9849,5.0496,5.0972,5.1148,5.1152,0.0,5.1383,5.2026,5.2377,5.2374,5.3077,5.3844,5.4701,0.0,0.0,5.4973,5.5543,5.543,5.4793,5.5373,5.5595,5.5513,5.5231,5.4928,5.4509,5.3358,5.2795,5.2645,5.2532,5.2506,5.2577,1.4836,1.4925,1.5,1.5,1.505,1.5096,1.5103,1.5093,1.6162,1.9156,2.0342,2.2233,2.5725,2.7693,2.8973,2.9499,3.1516,3.3489,0.0,3.5343,3.5931,3.7243,3.7686,3.8491,3.9779,4.0189,4.0395,4.0395,4.0367,4.0138,3.9691,3.9297,3.9099,3.906,3.8183,3.7558,3.7125,3.6728,3.63,3.5934,3.6373,3.6316,3.5952,3.5944,3.5166,3.412,3.4549,3.3866,3.2871,3.3753,3.3499,3.2796,3.2799,3.2802,3.2452,0.0,0.0,0.0,0.0,0.0,0.0,0.0,0.0,0.0,0.0,0.0,0.0,0.0,0.0,3.9462,0.0,0.0,4.2828,4.4097,4.5376,4.6495,4.7338,4.8579,4.9083,4.8212,4.8874,4.9591,5.0069,5.0493,5.0747,5.0759,5.1152,5.1406,5.1406,5.1772,5.1999,5.2007,5.2805,5.3247,5.3247,5.3673,5.413,5.4557,5.4547,5.4552,5.4569,5.5311,5.5409,5.5042,5.5742,5.5993,5.5885,5.5618,5.5389,5.5147,5.4688,5.4315,5.4046,5.397,5.389,5.3857,1.478,1.4845,1.4921,1.5039,1.5085,1.5098,1.5108,1.5096,1.5956,1.8346,1.9629,2.1436,2.4415,2.6637,2.8421,2.9719,3.1855,3.3887,0.0,3.5917,3.6464,3.7501,3.8161,3.9004,4.0039,4.0694,4.1022,4.1022,4.1014,4.1017,4.1009,4.0364,4.0059,4.0019,3.8965,3.8105,3.7441,3.7279,3.6788,3.6226,3.7106,3.7452,3.7362,3.6473,3.5202,3.3978,3.4704,3.4275,3.3513,3.4217,3.4569,3.4706,3.4706,3.4826,3.4811,3.4112,3.4288,0.0,0.0,0.0,0.0,0.0,0.0,0.0,0.0,0.0,3.7354,3.8934,4.0087,4.1285,4.2861,4.329,4.4122,4.6334,4.6843,4.7405,4.8773,4.972,5.0268,5.0251,5.0314,5.063,5.1323,5.1406,5.1465,5.1614,5.1629,5.1705,5.1881,5.2501,5.2857,5.2848,5.3529,5.3977,5.4143,5.4143,5.4143,5.4143,5.4143,5.4143,5.4178,5.4736,5.5084,5.5252,5.5748,5.5852,5.5662,5.5516,5.5426,5.537,5.537,5.5182,5.4901,5.4934,5.4919,5.4901,1.4764,1.4815,1.4832,1.4919,1.5011,1.5094,1.5096,1.5092,1.5766,1.7587,1.9277,2.0746,2.1915,2.493,2.7885,3.0444,3.164,0.0,3.4734,3.5573,3.6728,3.8371,3.8545,3.9328,4.0913,4.1034,4.1088,4.1088,4.1035,4.1039,4.1092,4.0996,4.0957,4.0879,3.9238,3.8457,3.8301,3.7539,3.7148,3.7129,3.8008,3.8358,3.8257,3.7399,3.6468,3.5636,3.5791,3.4802,3.3416,3.3513,3.4061,3.4706,3.4706,3.5232,3.5841,3.5739,0.0,3.4676,3.4588,0.0,0.0,3.5355,3.5779,3.6442,0.0,0.0,4.0793,4.1768,4.3271,4.4716,4.5695,4.646,4.7271,4.8344,4.9117,4.9654,4.9916,5.0683,5.1222,5.1162,5.12,5.1285,5.1399,5.14,5.1693,5.2413,5.2472,5.2807,5.3587,5.3704,5.3752,5.3744,5.3841,5.4266,5.5059,5.5059,5.5059,5.5059,5.5059,5.5059,5.5054,5.5027,5.5398,5.6065,5.5886,5.5618,5.5262,5.5236,5.5128,5.4975,5.4975,5.4946,5.4923,5.5101,5.5045,5.4901,1.4771,1.483,1.4894,1.4994,1.5054,1.5098,1.5105,1.5095,1.5539,1.6778,1.803,1.9332,2.0746,2.3996,2.7141,2.9816,3.1295,3.2619,3.3855,3.5225,3.6555,3.7786,3.7843,3.8644,4.0365,4.0351,4.0584,4.1092,4.1071,4.1072,4.1094,4.0582,4.0343,4.0285,3.9093,3.8567,3.8528,3.8176,3.7727,3.7376,3.873,3.8652,3.7811,3.8475,3.7865,3.6529,3.5584,3.4785,0.0,0.0,3.4394,3.4785,3.5293,3.5703,3.5996,3.5996,3.6074,0.0,3.6777,0.0,0.0,0.0,3.8221,3.9255,4.0309,4.1227,4.238,4.4234,4.519,4.6118,4.7508,4.8034,4.8544,0.0,4.9844,5.0254,5.078,5.1569,5.2096,5.2062,5.252,5.2653,5.2145,5.2108,5.2443,5.3296,5.2887,5.2973,5.385,5.4371,5.4883,5.5394,5.6366,5.7048,5.7418,5.7418,5.6912,5.5957,5.5957,5.5431,5.445,5.4833,5.5356,5.5956,5.5597,5.5351,5.5183,5.5066,5.4971,5.4901,5.4901,5.4901,5.4909,5.4992,5.4963,5.4901,1.4728,1.4808,1.49,1.5028,1.5045,1.5056,1.5091,1.5098,1.5332,1.5981,1.6824,1.8034,1.9812,2.2499,2.5121,2.7508,2.9548,3.1267,3.2628,3.433,3.5894,3.7243,3.73,3.8004,3.9508,3.9492,3.9785,4.041,4.041,4.0527,4.0761,4.0127,3.9942,4.0115,3.9316,3.8827,3.8591,3.8591,3.8102,3.7421,3.8882,3.8709,3.7694,3.871,3.8339,3.707,3.5836,3.5247,3.5091,3.5306,3.5247,3.5208,3.6069,3.6186,3.6049,3.6279,3.7075,3.7997,3.8394,0.0,0.0,3.9079,4.0178,4.1469,4.1466,4.2487,4.3974,4.5817,4.6775,4.7662,4.8925,4.9355,4.9726,5.0367,5.0459,5.0768,5.1607,5.2225,5.2684,5.2938,5.3722,5.4104,5.3716,5.3462,5.3683,5.4556,5.4242,5.4398,5.5256,5.5916,5.6541,5.7167,5.8122,5.8765,5.8999,5.8765,5.7927,5.6507,5.6439,5.5626,5.4195,5.4883,5.5352,5.564,5.5326,5.5176,5.5107,5.4956,5.4901,5.4901,5.4901,5.4901,5.4901,5.4901,5.4901,5.4901,1.4587,1.4704,1.4818,1.4883,1.4904,1.4954,1.5082,1.5098,1.5138,1.5211,1.5995,1.7181,1.8862,1.9951,2.1263,2.305,2.5627,2.8232,3.0818,3.2556,3.4627,3.7187,3.7304,3.7714,3.8613,3.8632,3.865,3.8689,3.8687,3.9115,3.9936,3.9915,4.0303,4.102,4.0221,3.9398,3.8591,3.8591,3.8102,3.7379,3.8279,3.8593,3.8475,3.7686,3.7331,3.7276,3.7178,3.6616,3.6089,3.6869,3.6615,3.6108,3.6908,3.6635,3.6144,3.6925,3.8376,3.9549,0.0,0.0,4.0779,3.9961,4.1074,4.2357,4.2358,4.4295,4.6113,4.6187,4.8216,4.9993,5.0051,5.0758,5.1327,5.1365,5.1354,5.1648,5.2447,5.2576,5.292,5.3755,5.463,5.5487,0.0,5.5628,5.5472,5.6368,5.7128,5.7927,5.8804,5.8862,5.8901,5.8921,5.8141,5.8141,5.8999,5.8161,5.7323,5.6505,5.6303,5.5734,5.4886,5.5423,5.5553,5.5314,5.5223,5.5087,5.4909,5.4901,5.4901,5.4901,5.4901,5.4901,5.4901,5.4901,5.4901,5.4901,1.4582,1.4718,1.4811,1.4821,1.4832,1.4888,1.5009,1.507,1.5116,1.512,1.5939,0.0,0.0,0.0,0.0,0.0,2.4594,2.7002,2.9042,3.0781,3.289,3.5469,3.5566,3.625,3.7715,3.7733,3.8025,3.8592,3.8608,3.8744,3.9017,3.8451,3.8312,3.8541,3.7683,3.7465,3.7732,3.7732,3.7575,3.7379,3.8259,3.7907,3.7027,3.8425,3.8266,3.7446,0.0,3.8006,3.6833,3.7119,3.7408,3.7603,3.7291,3.7408,3.7835,3.8679,4.0154,4.1321,4.0404,0.0,4.3398,4.2591,4.4092,4.5777,4.5781,4.6892,4.8082,4.8664,4.9484,5.0262,5.0793,5.1168,5.1384,5.1344,5.1327,5.163,5.2486,5.309,5.4005,5.5453,5.6381,0.0,0.0,0.0,0.0,5.8083,5.7869,5.8083,5.896,5.8999,5.9271,5.9836,6.0148,6.0438,6.0711,6.0308,5.9373,5.7934,5.6624,5.5802,5.5437,5.5479,5.5398,5.521,5.5078,5.4956,5.4901,5.4901,5.4901,5.4901,5.4901,5.4901,5.4901,5.4901,5.4901,5.4901,1.4478,1.4638,1.4733,1.4728,1.4759,0.0,0.0,0.0,0.0,0.0,0.0,0.0,0.0,0.0,0.0,0.0,0.0,2.5043,2.6796,2.8806,3.0934,3.3201,3.3881,3.4718,3.5852,3.6185,3.6615,3.7162,3.7516,3.7829,3.8122,3.7556,3.7475,3.7743,3.7178,3.7076,3.7301,3.7301,3.7477,3.7751,3.7692,3.7379,3.7008,3.7706,3.7314,0.0,3.7934,3.7729,3.6906,3.7823,3.809,3.7993,3.774,3.8052,3.8733,3.9928,4.1478,4.2768,4.2466,4.4078,4.5702,4.5194,4.6522,4.7969,4.7962,4.8403,4.8961,4.952,4.9869,5.0214,5.0737,5.1136,5.149,5.1728,5.1765,5.2178,5.3368,5.4272,5.5356,5.6783,5.7989,0.0,0.0,0.0,0.0,5.9447,5.9232,5.9349,5.9895,5.9934,6.0187,6.075,6.1315,6.1607,6.1607,6.1459,6.0462,5.861,5.6704,5.5691,5.5527,5.5356,5.5224,5.5121,5.4982,5.4901,5.4901,5.4901,5.4901,5.4901,5.4901,5.4901,5.4901,5.4901,5.4901,5.4901,1.4256,1.4534,1.4666,0.0,0.0,0.0,0.0,0.0,0.0,0.0,0.0,0.0,0.0,0.0,0.0,0.0,0.0,0.0,2.4277,2.6705,0.0,3.0662,3.2297,3.3195,3.3235,3.4089,3.4532,3.4532,3.5427,3.6289,3.7109,3.7148,3.7596,3.8391,3.845,3.8016,3.7224,3.7223,3.7712,3.8318,3.6676,3.697,3.8142,3.5741,3.4784,3.4821,3.574,3.6064,3.643,0.0,3.8599,3.7431,3.8405,3.8697,3.9032,4.0782,4.2444,4.3925,4.4794,4.6305,4.7635,4.7636,4.83,4.8925,4.8923,4.8904,4.8864,4.8856,4.943,4.9956,0.0,0.0,5.1604,5.2466,5.2612,5.3228,5.5022,5.5987,5.6855,0.0,0.0,0.0,0.0,0.0,0.0,6.0438,0.0,6.1607,6.1607,6.1607,6.1607,6.1607,6.1607,6.1605,6.1581,6.1473,6.0404,5.8391,5.6496,5.5458,5.5183,5.5135,5.5052,5.4992,5.4931,5.4901,5.4901,5.4901,5.4901,5.4901,5.4958,5.4977,5.4977,5.5015,5.5034,5.5034,0.0,0.0,0.0,0.0,0.0,0.0,0.0,0.0,0.0,0.0,0.0,0.0,0.0,0.0,0.0,0.0,0.0,0.0,2.4201,2.5539,0.0,0.0,0.0,0.0,0.0,0.0,3.3622,3.3622,3.3865,3.4105,3.432,3.4984,3.5416,3.5644,3.6358,3.6535,3.6334,3.6327,3.6461,3.6618,3.6187,3.5876,3.576,3.6404,3.5837,3.4899,3.6429,3.697,0.0,0.0,0.0,3.8552,4.0717,4.1419,4.1732,4.3433,4.4729,4.5793,4.6607,4.8119,4.9432,4.9437,5.0098,5.0733,5.0749,5.0222,4.9754,4.9708,4.9372,4.9294,0.0,0.0,0.0,5.2425,5.2669,0.0,5.5838,5.6368,0.0,0.0,0.0,6.0558,6.121,6.1476,0.0,0.0,6.1471,6.1607,6.1607,6.1607,6.1607,6.1607,6.1607,6.1531,6.1383,5.9833,5.8396,5.7081,5.5961,5.5333,5.5128,5.5107,5.5042,5.4931,5.4909,5.4901,5.4901,5.4901,5.4901,5.4958,5.5602,5.5868,5.5943,5.6531,5.6758,5.6758,0.0,0.0,0.0,0.0,0.0,0.0,0.0,0.0,0.0,0.0,0.0,0.0,0.0,0.0,0.0,0.0,0.0,0.0,0.0,2.3724,0.0,0.0,0.0,0.0,0.0,0.0,3.2169,3.2169,3.2932,3.3099,3.2748,3.3628,3.4001,3.4007,3.453,3.4792,3.4812,3.4825,3.5279,0.0,0.0,3.5017,3.5251,3.5076,3.4413,3.3748,3.5105,3.6331,0.0,0.0,0.0,3.9399,4.1253,4.1838,4.2306,4.4791,0.0,4.6637,4.8202,4.9358,5.0181,5.0567,5.0754,5.0838,5.0821,4.9868,4.9053,4.9393,4.8806,0.0,0.0,0.0,0.0,0.0,0.0,0.0,5.6194,5.7134,5.8276,0.0,6.0664,0.0,6.1545,6.1595,6.1607,0.0,6.1607,6.1607,6.1607,6.1607,6.1607,6.1607,6.1504,6.1185,6.0608,5.8992,5.7897,5.7288,5.676,5.64,5.6197,5.6197,5.6111,5.6,0.0,5.6,5.6,5.6,5.6,5.6057,5.6531,5.672,5.6777,5.7232,5.7403,5.7403,0.0,0.0,0.0,0.0,0.0,0.0,0.0,0.0,0.0,1.8936,1.8517,0.0,0.0,0.0,0.0,0.0,0.0,0.0,0.0,0.0,0.0,0.0,0.0,0.0,0.0,0.0,3.0171,3.0169,3.1921,3.2373,3.1651,3.2631,3.3069,3.3023,3.3146,3.322,3.3299,3.3304,3.4205,3.5519,3.4019,3.4236,3.5231,0.0,3.1954,3.1895,3.2881,0.0,0.0,0.0,3.9156,4.0125,4.1005,4.1355,4.2077,4.5326,4.6363,4.6991,4.9435,5.0179,5.0451,5.1202,5.0742,5.0104,5.0103,4.8745,4.768,4.8321,0.0,4.7636,4.9183,0.0,5.0208,5.2091,0.0,5.4394,5.6244,5.7944,5.9347,6.0279,6.1108,6.1597,6.1595,6.1599,6.1607,6.1607,6.1607,6.1607,6.1607,6.1576,6.1541,6.1526,6.1324,6.0712,5.9664,5.8767,5.8279,5.8164,5.7985,5.7799,5.7639,5.7613,5.7525,5.7399,5.7392,0.0,5.7403,5.7403,5.7403,5.7403,5.7535,5.7573,5.76,5.7687,5.7725,5.7725,0.0,0.0,0.0,0.0,0.0,0.0,0.0,0.0,0.0,0.0,2.2748,2.1609,0.0,0.0,0.0,0.0,0.0,0.0,0.0,0.0,0.0,0.0,0.0,0.0,0.0,0.0,2.7397,2.7389,2.9147,2.9883,2.9713,3.1324,3.2051,3.2085,3.2857,3.3211,3.3219,3.3274,3.3486,3.375,3.3505,3.3143,3.2734,3.2266,0.0,0.0,0.0,0.0,0.0,0.0,3.9557,4.1026,4.1904,4.2665,4.3639,4.562,4.6777,4.7777,4.9594,5.0632,5.1202,5.1364,5.0734,5.0104,5.0103,4.8753,0.0,0.0,4.5964,4.5632,4.653,4.6793,0.0,5.087,0.0,0.0,0.0,0.0,5.9321,0.0,0.0,0.0,0.0,0.0,0.0,0.0,0.0,6.1607,6.1607,6.1442,6.1285,6.1105,6.091,6.0374,5.945,5.9115,5.8609,5.794,5.7913,5.7846,5.7756,5.7654,5.7554,5.7484,5.7415,0.0,5.7403,5.7403,5.7403,5.746,5.8188,5.8472,5.8567,5.9211,5.9476,5.9476,0.0,0.0,0.0,0.0,0.0,0.0,0.0,2.3858,2.4575,2.7424,2.6666,2.5102,2.3073,2.1692,2.0762,0.0,0.0,0.0,0.0,0.0,0.0,0.0,0.0,0.0,0.0,0.0,0.0,0.0,0.0,2.7025,2.6568,2.7864,2.8694,2.9106,2.9556,3.0267,3.1125,3.1155,3.1458,3.1899,3.1924,3.17,3.1274,0.0,0.0,0.0,0.0,0.0,0.0,0.0,3.9279,4.1335,4.2662,4.3365,4.4202,4.6783,4.7545,4.8016,5.0189,5.1088,5.1383,5.1367,5.0387,4.9427,4.9429,0.0,0.0,0.0,4.4992,4.4396,4.5664,0.0,0.0,0.0,0.0,0.0,0.0,0.0,0.0,0.0,0.0,0.0,0.0,0.0,0.0,0.0,0.0,6.1442,6.1442,6.1247,6.1052,6.0843,6.0305,5.9761,5.9255,5.9158,5.8911,5.8529,5.8975,5.913,5.8989,5.8934,5.8851,5.8755,5.8715,0.0,5.8699,5.8699,5.8699,5.8737,5.9154,5.9325,5.9363,5.9761,5.9893,5.9893,0.0,0.0,0.0,0.0,0.0,0.0,0.0,2.6005,2.6684,3.0433,3.0042,2.8459,2.5888,2.3239,2.1347,0.0,0.0,0.0,0.0,0.0,0.0,0.0,0.0,0.0,0.0,0.0,0.0,0.0,2.4793,0.0,0.0,0.0,0.0,0.0,2.687,2.7636,2.8926,2.8949,2.9465,0.0,0.0,3.0441,0.0,0.0,0.0,0.0,0.0,0.0,0.0,0.0,3.8642,4.0752,4.2339,4.3346,4.4544,4.7394,4.8016,4.831,5.0722,5.1387,5.1327,5.1076,4.9902,4.8707,4.8323,4.6409,0.0,4.5094,4.3978,4.3341,4.4671,0.0,0.0,0.0,0.0,0.0,0.0,0.0,0.0,0.0,0.0,0.0,0.0,0.0,0.0,0.0,0.0,0.0,6.1166,6.1025,6.0832,6.0633,5.9973,5.953,5.9376,5.937,5.937,5.9389,6.0069,6.0304,6.0133,6.0103,6.0018,5.9918,5.9902,0.0,0.0,5.9893,5.9893,5.9893,5.9893,5.9844,5.9767,5.9869,5.9844,5.9767,0.0,0.0,0.0,0.0,0.0,0.0,0.0,2.6826,2.9039,3.2801,3.2406,3.1539,3.0878,2.7942,2.4774,0.0,0.0,0.0,0.0,0.0,0.0,0.0,0.0,0.0,0.0,0.0,0.0,2.1831,2.4225,0.0,0.0,0.0,0.0,0.0,0.0,2.7862,2.8013,2.8078,0.0,0.0,0.0,0.0,0.0,0.0,0.0,0.0,0.0,0.0,0.0,0.0,0.0,3.8643,3.9653,4.223,4.5087,4.6132,0.0,0.0,5.0826,5.13,5.1115,5.0314,4.9453,4.8382,4.6801,0.0,4.4278,4.2777,4.2225,4.2037,4.2063,4.2828,0.0,0.0,0.0,5.0562,0.0,0.0,0.0,0.0,0.0,0.0,0.0,0.0,0.0,0.0,0.0,0.0,6.0754,6.0731,6.0646,6.0425,6.0342,6.029,6.0281,6.0281,6.0281,6.0281,6.0299,6.0294,6.0272,6.0091,5.9994,5.9979,5.9926,0.0,0.0,5.9893,5.9893,5.9893,5.9893,5.9637,5.9326,5.9732,5.9628,5.9335,0.0,0.0,0.0,0.0,0.0,0.0,2.6463,2.7058,2.868,3.3085,3.3204,3.2736,3.2323,3.0676,2.7624,2.2713,0.0,0.0,0.0,0.0,0.0,0.0,0.0,0.0,0.0,0.0,2.1793,2.2329,2.3332,0.0,0.0,0.0,0.0,0.0,0.0,2.6164,2.7142,2.7713,0.0,0.0,0.0,0.0,0.0,0.0,0.0,0.0,0.0,0.0,3.5722,0.0,0.0,0.0,3.8559,4.0583,4.3019,0.0,4.6271,4.7715,4.9921,5.0157,4.9831,4.9977,4.8907,4.7524,4.6359,0.0,4.3332,4.2115,4.1373,4.092,4.0877,4.1581,4.2748,0.0,0.0,0.0,0.0,0.0,0.0,0.0,0.0,0.0,0.0,0.0,0.0,0.0,0.0,0.0,6.0527,6.0527,6.0474,6.0403,6.0396,6.0396,6.0396,6.0396,6.0396,6.0396,6.0361,6.0296,6.0174,6.0095,6.0018,5.9942,5.991,0.0,0.0,5.9602,5.9488,5.9442,5.9215,5.8997,5.887,5.9046,5.8997,5.888,0.0,0.0,0.0,0.0,0.0,2.2789,2.6599,2.7477,2.8957,3.2429,3.3658,3.3847,3.2905,3.1835,2.9216,2.4323,2.2645,0.0,0.0,0.0,0.0,0.0,0.0,0.0,0.0,0.0,2.2155,2.2771,2.3268,2.3518,0.0,0.0,2.4212,2.4791,0.0,0.0,0.0,0.0,0.0,0.0,0.0,0.0,0.0,0.0,0.0,0.0,0.0,0.0,0.0,0.0,0.0,3.6694,3.7542,3.8891,4.0776,4.3964,4.5515,4.6704,4.9021,4.9235,4.8943,4.9508,4.8238,4.6629,0.0,0.0,4.2371,4.1528,4.0799,4.0306,4.0306,4.096,4.2011,4.3604,0.0,4.7855,0.0,0.0,0.0,0.0,0.0,0.0,0.0,0.0,0.0,0.0,0.0,0.0,6.0396,6.0396,6.0396,6.0396,6.0396,6.0396,6.0396,6.0396,6.0396,6.0396,6.0347,6.0248,6.0091,6.0064,5.9904,5.9698,5.9698,0.0,0.0,5.9159,5.9017,5.8988,5.872,5.8513,5.8407,5.8545,5.8513,5.8418,0.0,0.0,0.0,0.0,0.0,0.0,2.4866,2.8268,3.0646,3.0909,3.3932,3.5244,3.3043,3.1242,2.9208,2.6677,2.4142,0.0,0.0,0.0,0.0,0.0,0.0,0.0,0.0,0.0,2.2683,2.2705,2.435,2.5174,2.5193,2.6063,2.6469,2.643,0.0,0.0,0.0,0.0,0.0,0.0,0.0,0.0,2.7896,0.0,0.0,0.0,0.0,0.0,0.0,0.0,0.0,0.0,0.0,3.7287,3.8858,4.3527,4.5515,4.6587,4.8341,4.8806,4.8806,4.8806,4.7404,4.5776,4.4919,4.3166,4.1493,4.0673,4.0407,4.0306,4.0306,4.096,4.1786,4.2665,4.5059,0.0,0.0,0.0,0.0,0.0,0.0,0.0,0.0,0.0,0.0,0.0,0.0,0.0,6.0396,6.0396,6.0396,6.0396,6.0396,6.0396,6.0396,6.0396,6.0396,6.0396,6.0193,6.0099,6.011,5.9966,5.9645,0.0,0.0,0.0,0.0,5.8607,5.8607,5.8607,5.8597,5.8321,5.7962,5.8429,5.8311,5.7973,0.0,0.0,0.0,0.0,0.0,0.0,0.0,2.5408,2.6925,2.8872,3.0194,3.1206,3.1779,3.0327,2.8771,2.7447,2.4495,0.0,0.0,0.0,0.0,0.0,0.0,0.0,0.0,0.0,2.4916,2.5977,2.7191,2.7804,2.7804,2.8076,2.7925,2.7375,2.711,2.6647,0.0,0.0,0.0,0.0,0.0,2.9569,2.8584,0.0,0.0,0.0,0.0,0.0,0.0,0.0,0.0,0.0,0.0,0.0,0.0,4.1895,4.3056,4.3774,4.6102,4.6313,4.6002,4.6607,4.5786,4.4452,4.2976,4.2093,4.1329,4.0535,4.0328,4.0306,4.0306,4.0516,4.1337,4.3305,4.4828,0.0,0.0,0.0,0.0,0.0,0.0,0.0,0.0,0.0,0.0,0.0,0.0,0.0,6.0396,6.0396,6.0396,6.0396,6.0396,6.0396,6.0396,6.0396,6.0396,6.0396,6.0282,6.0182,6.0091,6.0002,5.9866,0.0,0.0,0.0,0.0,5.8375,5.8113,5.8079,5.7766,5.7558,5.7443,5.7594,5.7546,5.7443,0.0,0.0,0.0,0.0,0.0,0.0,0.0,2.4026,2.5308,2.6715,2.7666,2.8787,3.0262,2.894,2.7758,2.7246,2.4713,0.0,0.0,0.0,0.0,0.0,0.0,0.0,0.0,2.5134,2.6568,2.8407,2.9433,3.0106,3.0393,3.0393,2.9975,2.9178,2.8508,2.7908,0.0,0.0,0.0,0.0,2.9638,2.9376,2.8933,0.0,0.0,0.0,0.0,0.0,0.0,0.0,0.0,0.0,0.0,0.0,0.0,0.0,4.1042,4.18,4.4184,4.4424,4.4231,4.5089,4.4311,4.3121,4.2367,4.1598,4.0903,4.0401,4.0306,4.0306,4.0306,4.0554,4.1471,4.3643,4.4986,0.0,0.0,0.0,0.0,0.0,0.0,0.0,0.0,0.0,0.0,0.0,0.0,0.0,6.0396,6.0396,6.0396,6.0396,6.0396,6.0396,6.0396,6.0396,6.0396,6.0396,6.033,6.0223,6.0091,6.0033,5.9864,0.0,0.0,0.0,0.0,5.7932,5.7642,5.7606,5.7308,5.7188,5.7188,5.7188,5.7188,5.7219,0.0,0.0,0.0,0.0,0.0,0.0,0.0,2.3742,2.5205,2.4516,2.6018,2.7456,2.8268,2.7022,2.613,2.613,0.0,0.0,0.0,0.0,0.0,0.0,0.0,0.0,2.496,2.6002,2.7646,2.988,3.1017,3.1977,3.2695,3.2756,3.2355,3.15,2.9834,2.9029,2.8857,0.0,0.0,0.0,2.9299,2.899,0.0,0.0,0.0,0.0,0.0,0.0,0.0,0.0,0.0,0.0,0.0,0.0,0.0,0.0,0.0,0.0,0.0,4.3024,4.3259,4.4078,4.2987,4.1881,4.2648,4.1517,0.0,4.0306,4.0306,4.0325,4.0363,4.0998,4.2087,4.3887,4.5534,0.0,0.0,0.0,0.0,0.0,0.0,0.0,0.0,0.0,0.0,0.0,0.0,0.0,6.0396,6.0396,6.0396,6.0396,6.0396,6.0396,6.0396,6.0396,6.0396,6.0396,6.0323,6.0208,6.0061,5.9967,5.9652,0.0,0.0,0.0,0.0,5.7406,5.7219,5.7188,5.7188,5.7188,5.7188,5.7201,5.7201,5.7226,0.0,0.0,0.0,0.0,0.0,0.0,0.0,0.0,0.0,0.0,2.2709,2.3081,2.3891,2.369,2.3482,0.0,0.0,0.0,0.0,0.0,0.0,0.0,0.0,0.0,0.0,2.7248,2.8608,2.9674,3.1526,3.2508,3.2714,3.3372,3.3242,3.2374,3.1347,3.0159,2.8895,2.8704,0.0,0.0,2.9704,2.9898,0.0,0.0,0.0,0.0,3.2607,3.3744,0.0,0.0,0.0,0.0,0.0,0.0,0.0,0.0,3.95,4.0306,4.0711,0.0,4.1954,4.215,4.1865,4.1441,0.0,4.0615,4.0306,4.0306,4.0306,4.0497,4.1094,4.1366,4.2459,4.5366,0.0,4.8369,0.0,0.0,0.0,0.0,0.0,0.0,0.0,0.0,0.0,0.0,0.0,6.0396,6.0396,6.0396,6.0396,6.0396,6.0396,6.0396,6.0396,6.0396,6.0396,6.0396,6.0234,5.9964,5.9631,5.9459,5.914,0.0,0.0,0.0,5.787,5.7504,5.7289,5.7188,5.7188,5.7188,5.7201,5.7332,5.7338,5.7363,0.0,0.0,0.0,0.0,0.0,0.0,0.0,0.0,0.0,0.0,0.0,0.0,0.0,0.0,0.0,0.0,0.0,0.0,0.0,0.0,0.0,0.0,0.0,0.0,2.772,2.8795,3.0215,3.2024,3.324,3.4246,3.4995,3.5095,3.49,3.438,3.2776,3.1283,2.9945,2.9208,2.9112,2.9464,2.9521,0.0,0.0,0.0,0.0,0.0,3.2637,3.3703,0.0,3.5576,3.5681,3.574,0.0,0.0,0.0,0.0,3.9147,4.0157,4.0152,4.0535,4.0926,4.0864,4.0907,4.084,4.0354,4.054,4.0812,4.0836,4.1146,4.1537,4.2006,4.2722,4.3954,0.0,4.7853,0.0,0.0,0.0,0.0,0.0,0.0,0.0,0.0,0.0,0.0,0.0,0.0,6.0396,6.0396,6.0396,6.0396,6.0396,6.0396,6.0396,6.0396,6.0396,6.0375,6.0352,6.0026,5.9725,5.9432,5.9122,5.8842,0.0,0.0,0.0,5.7859,5.7468,5.7269,5.7188,5.7188,5.7188,5.7232,5.7338,5.7388,5.7443,0.0,0.0,0.0,0.0,0.0,0.0,0.0,0.0,0.0,0.0,0.0,0.0,0.0,0.0,0.0,0.0,0.0,0.0,0.0,0.0,0.0,0.0,0.0,2.7792,2.9669,3.0381,3.1968,3.4505,3.5227,3.6235,3.748,3.7056,3.665,3.6177,3.3768,3.216,3.1198,2.9702,2.9477,3.0042,2.9303,0.0,0.0,0.0,0.0,0.0,0.0,0.0,0.0,3.584,3.6083,3.6097,3.6097,0.0,0.0,0.0,0.0,0.0,3.9961,4.021,4.0406,4.019,4.0315,4.0468,4.0411,4.1026,4.1632,4.17,4.2334,4.2962,4.3147,4.4437,0.0,0.0,0.0,0.0,0.0,0.0,0.0,0.0,0.0,0.0,0.0,0.0,0.0,0.0,0.0,6.0396,6.0396,6.0396,6.0375,6.0313,6.0306,6.0285,6.0215,6.0285,6.0248,6.0141,5.9725,5.9422,5.9206,5.8793,5.8547,5.8397,0.0,0.0,5.7777,5.7425,5.7244,5.7188,5.7188,5.7201,5.7257,5.7375,5.7437,5.7504,0.0,0.0,0.0,0.0,0.0,0.0,0.0,0.0,0.0,0.0,0.0,0.0,0.0,0.0,0.0,0.0,0.0,0.0,0.0,0.0,0.0,0.0,0.0,2.9196,2.8809,3.1602,3.2957,3.2707,3.5737,3.6996,3.6539,3.7842,3.7338,3.5248,3.342,3.2132,3.1232,3.0304,2.9988,3.0099,2.9943,0.0,0.0,0.0,0.0,0.0,0.0,0.0,0.0,3.4906,3.5154,3.5102,3.5102,0.0,0.0,0.0,0.0,0.0,3.8945,4.0068,4.1088,4.0425,4.0793,4.1304,4.1299,4.1963,4.2593,4.2603,4.3242,4.4039,4.4781,4.5679,4.7038,0.0,0.0,0.0,0.0,0.0,0.0,0.0,0.0,6.0396,6.0396,0.0,0.0,0.0,0.0,6.0396,6.0396,6.0396,6.0237,5.9898,5.989,5.9733,5.9397,5.9725,5.9717,5.9361,5.9243,5.8901,5.8384,5.8256,5.798,5.7589,0.0,5.7583,5.7486,5.751,5.74,5.7188,5.7188,5.7282,5.7394,5.7528,5.7637,5.7756,0.0,0.0,0.0,0.0,0.0,0.0,0.0,0.0,0.0,0.0,0.0,0.0,0.0,0.0,0.0,0.0,0.0,0.0,0.0,0.0,0.0,0.0,0.0,0.0,3.0751,3.2695,3.4395,3.5818,3.7923,3.9202,3.9697,3.9574,3.8156,3.5703,3.4494,3.3198,3.1832,3.1071,3.0463,2.9984,0.0,0.0,0.0,0.0,0.0,0.0,0.0,0.0,0.0,0.0,3.5502,3.5595,3.5595,0.0,0.0,0.0,0.0,0.0,3.9281,4.0385,4.131,4.0978,4.1547,4.2311,4.2702,4.3479,4.4114,4.4145,4.5136,4.6285,4.7188,0.0,4.9526,5.2519,0.0,5.5962,0.0,0.0,0.0,0.0,0.0,6.0396,6.0396,0.0,0.0,0.0,0.0,0.0,6.0099,6.0084,5.989,5.9494,5.9476,5.9279,5.8871,5.8989,5.9084,5.915,5.8772,5.8442,5.8135,5.7784,5.7492,5.7307,0.0,5.7394,5.74,5.748,5.7467,5.7431,5.7431,5.7437,5.751,5.7661,5.7792,5.7927,0.0,0.0,0.0,0.0,0.0,0.0,0.0,0.0,0.0,0.0,0.0,0.0,0.0,0.0,0.0,0.0,0.0,0.0,0.0,0.0,0.0,0.0,0.0,0.0,0.0,3.4166,3.6116,3.9078,4.0323,4.1401,4.2232,4.0565,3.8516,3.6241,3.5423,3.4071,3.2345,3.1611,3.0749,2.9893,0.0,0.0,0.0,0.0,0.0,0.0,0.0,0.0,0.0,0.0,0.0,0.0,0.0,0.0,0.0,3.6752,3.753,3.8548,3.9211,4.0497,4.1753,4.2167,4.2825,4.3529,4.4104,4.5047,4.5816,4.5864,4.7187,4.852,0.0,5.0488,0.0,5.4938,5.5867,5.6925,5.8835,5.9274,5.9644,6.032,6.0396,6.0396,6.0396,0.0,0.0,0.0,0.0,0.0,5.9683,5.9667,5.9476,5.9065,5.9055,5.8842,5.8426,5.8311,5.8439,5.8789,5.83,5.803,5.7912,5.7461,5.7257,5.7257,5.7276,5.7338,5.7455,5.7492,5.7541,5.7601,5.7601,5.7625,5.7661,5.7792,5.7916,5.7997,0.0,0.0,0.0,0.0,0.0,0.0,0.0,0.0,0.0,0.0,0.0,0.0,0.0,0.0,0.0,0.0,0.0,0.0,0.0,0.0,0.0,0.0,0.0,0.0,0.0,3.645,3.8116,3.9905,4.227,4.2708,4.1262,3.9586,3.7866,3.6168,3.5296,3.3984,3.2345,3.1553,3.0697,2.9893,2.9893,0.0,0.0,0.0,0.0,0.0,0.0,0.0,0.0,0.0,0.0,0.0,0.0,0.0,3.504,3.4862,3.6087,3.7509,3.7571,3.9946,4.2816,4.4429,4.4979,4.513,4.5182,4.6457,4.7616,4.7622,4.8959,0.0,0.0,5.2711,5.493,5.5178,5.7254,5.8892,5.9064,0.0,6.0339,6.0396,6.0396,6.0396,6.0396,0.0,0.0,0.0,0.0,0.0,5.9252,5.9233,5.9055,5.8659,5.8638,5.8394,5.7862,5.7851,5.7862,5.7879,5.7714,5.7571,5.7449,5.7418,5.7394,5.7388,5.7528,5.7577,5.7601,5.7721,5.7709,5.7601,5.7601,5.7673,5.7792,5.7939,5.7997,5.7997,0.0,0.0,0.0,0.0,0.0,0.0,0.0,0.0,0.0,0.0,0.0,0.0,0.0,0.0,0.0,0.0,0.0,0.0,0.0,0.0,0.0,0.0,0.0,3.0987,3.6416,3.7127,3.9279,4.3042,4.4528,4.4118,4.1914,4.0802,3.8793,3.6201,3.6372,3.5249,3.3145,3.2307,3.1473,3.0654,3.0124,2.983,0.0,0.0,0.0,0.0,0.0,0.0,0.0,0.0,3.3573,3.3843,3.4571,3.4756,3.4838,3.5423,3.6444,3.7623,3.8674,4.1119,4.352,4.4195,4.6023,4.7786,4.8296,4.8506,4.8896,4.9886,5.1036,0.0,0.0,0.0,5.5828,5.7326,5.7553,5.7905,5.8949,5.8956,5.8848,5.8848,5.9281,5.9498,5.9243,0.0,0.0,0.0,0.0,0.0,5.8842,5.8841,5.8638,5.8235,5.8146,5.8017,5.7804,5.7637,5.7553,5.7553,5.7504,5.7455,5.7406,5.7301,5.7282,5.7276,5.7431,5.751,5.7613,5.7745,5.7815,5.7857,5.7857,5.7892,5.7939,5.7985,5.7997,5.7997,0.0,0.0,0.0,0.0,0.0,0.0,0.0,0.0,0.0,0.0,0.0,0.0,0.0,0.0,0.0,0.0,0.0,0.0,0.0,0.0,0.0,0.0,0.0,3.0496,3.6107,3.6997,3.9589,4.4118,4.444,4.3455,4.1219,4.0669,3.9039,3.6599,0.0,0.0,3.4017,3.316,3.2144,3.105,3.046,2.993,0.0,0.0,0.0,0.0,0.0,0.0,0.0,0.0,3.2732,3.3263,3.405,3.4484,3.4879,3.5797,3.6905,3.816,3.9553,4.2064,4.4352,4.4647,4.6906,4.9368,5.0468,5.0073,4.9933,5.1566,5.2781,5.3875,5.4993,0.0,0.0,0.0,5.7534,5.7409,5.8548,5.8249,5.7853,5.7725,5.8187,5.8375,5.8002,0.0,0.0,0.0,0.0,0.0,0.0,5.8013,5.798,5.7874,5.7834,5.7756,5.7673,5.7486,5.7375,5.7344,5.7344,5.7344,5.7326,5.7226,5.7213,5.7264,5.74,5.7541,5.7673,5.7804,5.7927,5.7997,5.7997,5.7997,5.7997,5.7997,5.7997,5.7997,0.0,0.0,0.0,0.0,0.0,0.0,0.0,0.0,0.0,0.0,0.0,0.0,0.0,0.0,0.0,0.0,0.0,0.0,2.2498,2.4055,2.5746,2.7414,0.0,3.0257,3.3619,3.6126,3.902,4.2407,4.1611,4.0366,3.869,3.8727,0.0,0.0,0.0,0.0,0.0,0.0,0.0,3.0917,3.0917,3.0266,2.9298,0.0,0.0,0.0,0.0,0.0,0.0,0.0,3.1779,3.3325,3.3067,3.3864,3.5016,3.5617,3.7233,3.899,3.9787,4.2515,4.5335,4.6284,4.7764,4.9474,5.1201,5.0946,5.0799,5.2486,5.4045,5.5127,5.5196,5.652,0.0,5.6626,5.7285,5.7867,5.788,5.7861,5.772,5.7324,5.7286,5.7159,5.6816,0.0,0.0,0.0,0.0,0.0,0.0,5.6706,5.7026,5.7577,5.7714,5.7655,5.74,5.7388,5.7326,5.7188,5.7188,5.7188,5.7188,5.7188,5.7264,5.7418,5.7541,5.7673,5.7804,5.795,5.7997,5.7997,5.7997,5.7997,5.7997,5.7997,5.7997,5.7997,0.0,0.0,0.0,0.0,0.0,0.0,0.0,0.0,0.0,0.0,0.0,0.0,0.0,0.0,0.0,0.0,0.0,0.0,2.1623,2.373,2.5477,2.6542,2.68,2.8787,3.2705,3.5254,3.8471,4.2407,4.2786,4.1503,3.8727,0.0,0.0,3.5723,0.0,0.0,0.0,0.0,0.0,3.1739,3.1539,3.0507,2.9154,0.0,0.0,0.0,0.0,0.0,0.0,0.0,0.0,0.0,3.1929,3.3161,3.4534,3.5499,3.7461,3.9518,4.0552,4.3361,4.623,4.7066,4.8598,5.0202,5.1341,5.1849,0.0,0.0,5.493,5.5366,5.599,5.6081,0.0,5.7212,5.6426,5.5933,5.6556,5.5898,5.5311,5.5205,5.5695,5.5879,5.5492,0.0,0.0,0.0,0.0,0.0,0.0,5.5795,5.6097,5.6738,5.6798,5.7,5.74,5.7319,5.7226,5.7188,5.7188,5.7188,5.7188,5.7188,5.7264,5.7418,5.7541,5.7673,5.7804,5.795,5.7997,5.7997,5.7997,5.7997,5.7997,5.7997,5.7997,5.7997,0.0,0.0,0.0,0.0,0.0,0.0,0.0,0.0,2.001,2.001,2.001,2.001,0.0,0.0,0.0,2.001,2.1528,0.0,2.126,2.3597,2.5212,2.5705,2.6027,2.7843,3.1379,3.4571,3.7263,3.9413,4.0612,4.0163,0.0,0.0,0.0,3.6486,0.0,3.759,0.0,0.0,0.0,3.2255,3.2112,3.0937,2.9339,0.0,0.0,0.0,0.0,0.0,0.0,0.0,0.0,0.0,3.1316,3.2704,3.4212,3.6233,3.869,4.0963,4.1987,4.4809,4.7518,4.7646,4.9256,5.1137,5.2321,0.0,0.0,0.0,5.5325,5.5781,5.6011,5.5822,0.0,5.6442,5.5455,5.4777,5.5303,5.4758,5.4236,5.4088,5.449,5.4643,5.4265,0.0,0.0,0.0,0.0,0.0,0.0,5.4811,5.5138,5.5776,5.6127,5.6491,5.6842,5.7075,5.7188,5.7188,5.7188,5.7188,5.7188,5.7269,5.7338,5.7492,5.7673,5.7804,5.7892,5.7973,5.7997,5.7997,5.7997,5.7997,5.7997,5.7997,5.7997,5.7997,0.0,0.0,0.0,0.0,0.0,0.0,0.0,2.001,2.001,2.001,2.001,2.001,0.0,0.0,0.0,2.001,2.1453,2.2002,2.1146,2.3408,2.4795,2.4871,2.5875,2.7559,2.9939,3.3847,3.5538,3.4908,3.6656,3.739,0.0,0.0,3.8612,3.8341,0.0,3.7939,0.0,0.0,0.0,3.2433,3.2559,3.1389,2.962,2.9878,0.0,0.0,0.0,0.0,0.0,0.0,0.0,0.0,3.0972,3.24,3.4068,3.7256,4.0293,4.2792,4.3537,4.6358,4.8896,4.8113,4.9813,0.0,5.3626,5.4008,5.4072,5.4193,0.0,5.6182,5.5484,5.5596,5.5571,5.486,5.4471,5.4255,5.4255,5.4229,5.4061,5.3691,5.3653,5.3534,0.0,0.0,0.0,0.0,0.0,0.0,0.0,5.3813,5.4138,5.4762,5.5565,5.5995,5.6005,5.673,5.7134,5.7188,5.7188,5.7188,5.7201,5.7326,5.7492,5.7637,5.7892,5.7997,5.7997,5.7997,5.7997,5.7997,5.7997,5.7997,5.7997,5.7997,5.7997,5.7997,0.0,0.0,0.0,0.0,0.0,0.0,1.9985,2.001,2.001,2.001,2.001,2.001,2.001,2.001,0.0,2.001,2.09,2.1128,2.0313,2.2002,2.3313,2.3957,2.666,2.8703,2.9897,3.2099,3.3771,3.4908,3.7263,3.7365,0.0,0.0,0.0,3.5566,0.0,3.7365,0.0,0.0,0.0,0.0,3.2384,3.106,2.8824,2.9515,2.9196,0.0,0.0,0.0,0.0,0.0,0.0,0.0,2.9865,3.1729,3.4032,3.608,3.9602,4.2787,4.2555,4.5651,4.8906,4.8775,5.0654,5.2633,5.3002,5.3357,5.3902,5.4912,5.5403,5.5483,5.5014,5.498,5.4901,5.4484,5.4078,5.3833,5.3833,5.3602,5.3408,5.3316,5.3305,5.3233,0.0,0.0,0.0,0.0,0.0,0.0,5.2856,5.2897,5.324,5.3929,5.4192,5.4857,5.5987,5.6168,5.6585,0.0,5.7188,5.7188,5.7201,5.7326,5.7541,5.7768,5.7939,5.7997,5.7997,5.7997,5.7997,5.7997,5.7997,5.7997,5.7997,5.7997,5.7997,5.7997,0.0,0.0,0.0,0.0,0.0,0.0,0.0,0.0,2.0409,2.0042,2.001,2.001,2.001,2.001,0.0,0.0,2.0749,2.0862,2.0047,2.1566,2.2687,2.3104,2.5565,2.6755,2.6376,2.9537,3.1225,3.1257,3.4576,0.0,0.0,0.0,0.0,3.5245,0.0,3.677,0.0,0.0,0.0,0.0,0.0,3.1304,2.9647,2.9683,2.9161,2.8411,2.8411,0.0,0.0,0.0,0.0,0.0,0.0,0.0,3.2968,3.5103,3.8387,4.1529,4.2542,4.5216,0.0,4.9266,0.0,5.3226,5.2684,5.3378,5.4312,5.4971,5.4981,5.4807,5.4591,5.4403,5.4226,5.4033,5.37,5.3462,5.3462,5.3305,5.3196,5.3196,5.3135,0.0,0.0,0.0,0.0,0.0,0.0,5.2547,5.2547,5.2547,5.273,5.3114,5.3535,5.4127,5.4888,5.5631,5.6223,5.6639,5.7007,5.7282,5.7388,5.7449,5.7649,5.7904,5.7973,5.7997,5.7997,5.7997,5.7997,5.7997,5.7997,5.7997,5.7997,5.7997,5.7997,5.7997,0.0,0.0,0.0,0.0,0.0,0.0,0.0,0.0,0.0,2.0046,1.9979,1.9963,1.9974,1.9966,1.9963,0.0,0.0,0.0,2.0034,2.14,2.2382,2.2653,2.4133,2.4306,2.2921,2.7475,2.908,2.7511,3.1365,0.0,0.0,0.0,0.0,0.0,0.0,0.0,0.0,0.0,0.0,0.0,0.0,0.0,0.0,0.0,0.0,2.8806,2.8793,2.8631,2.8424,2.8722,0.0,0.0,0.0,0.0,3.1517,3.4107,3.6844,3.9613,4.2247,4.4656,4.6997,4.937,5.1828,0.0,5.2572,5.362,5.4784,5.4799,5.4536,5.4323,5.4372,5.4006,5.3701,5.3701,5.343,5.3196,5.3196,5.3196,5.3196,5.3196,5.3103,0.0,0.0,0.0,0.0,0.0,0.0,5.2498,5.2498,5.2498,5.2498,5.2498,5.315,5.3639,5.3911,5.516,5.5951,5.6223,5.688,5.7326,5.7601,5.7601,5.7745,5.7997,5.7997,5.7997,5.7997,5.7997,5.7997,5.7997,5.7997,5.7997,5.7997,5.7997,5.7997,5.7997,0.0,0.0,0.0,0.0,0.0,0.0,0.0,0.0,0.0,0.0,1.9829,1.9853,1.9915,1.9865,1.9853,1.9918,2.0018,2.0037,1.9921,0.0,0.0,2.3305,2.4249,2.4655,2.4504,2.793,2.9272,2.8346,3.0929,0.0,0.0,0.0,0.0,0.0,0.0,0.0,0.0,0.0,0.0,0.0,0.0,0.0,0.0,0.0,0.0,0.0,3.041,2.9503,2.8414,2.9085,2.8322,0.0,0.0,0.0,3.0317,3.2814,3.5068,3.7273,3.9733,0.0,4.6958,0.0,5.0675,5.2411,0.0,0.0,5.4723,0.0,5.4536,5.438,5.4677,5.4183,5.3701,5.3701,5.343,5.3196,5.3196,5.3196,5.3196,5.3196,0.0,0.0,0.0,0.0,0.0,0.0,5.2521,5.2498,5.2498,5.2498,5.2498,5.2498,5.2589,5.3331,5.4731,5.4943,5.5721,5.7043,5.7152,5.7326,5.7601,5.7601,5.7745,5.7997,5.7997,5.7997,5.7997,5.7997,5.7997,5.7997,5.7997,5.7997,5.7997,5.7997,5.7997,5.7997,0.0,0.0,0.0,0.0,0.0,0.0,0.0,0.0,0.0,0.0,0.0,1.9813,1.9847,1.9823,1.9813,1.9847,1.9831,1.9831,1.9831,2.0173,2.0687,2.1406,2.1763,2.1977,2.2006,2.4783,2.6018,2.5589,0.0,0.0,0.0,3.5271,3.5849,0.0,0.0,0.0,0.0,0.0,0.0,0.0,0.0,0.0,0.0,0.0,0.0,0.0,0.0,0.0,3.0337,2.9728,2.8743,2.7751,2.758,0.0,0.0,0.0,3.2313,3.4571,3.9468,4.3763,4.7242,0.0,5.0762,5.2321,5.235,0.0,5.3745,5.4344,5.3998,5.3701,5.4103,5.3758,5.3412,5.3412,5.3303,5.3196,5.3196,5.3196,5.3175,0.0,0.0,0.0,0.0,0.0,0.0,0.0,5.2526,5.2498,5.2498,5.2498,5.2498,5.2498,5.2498,5.2842,5.3548,5.4454,5.5667,5.7188,5.7188,5.7326,5.7601,5.7601,5.7745,5.7997,5.7997,5.7997,5.7997,5.7997,5.7997,5.7997,5.7997,5.7997,5.7997,5.7997,5.7997,5.7997,0.0,0.0,0.0,0.0,0.0,0.0,0.0,0.0,0.0,0.0,0.0,2.0293,2.0091,0.0,0.0,0.0,2.0076,2.0076,2.0076,1.9892,1.977,1.975,2.0137,2.0175,1.9769,2.2585,2.3902,2.3602,0.0,0.0,3.2222,3.5208,3.6507,0.0,3.5968,0.0,0.0,0.0,0.0,0.0,0.0,0.0,0.0,0.0,0.0,0.0,0.0,0.0,3.2625,3.1279,2.9698,2.8125,2.6972,2.6577,0.0,0.0,0.0,3.3229,0.0,0.0,4.5855,4.7761,4.9698,5.1232,0.0,0.0,5.2878,0.0,5.3445,5.3198,5.3556,5.3381,5.3238,5.3305,5.3269,5.3196,5.3196,0.0,0.0,0.0,0.0,0.0,0.0,0.0,0.0,0.0,5.2542,5.2498,5.2498,5.2498,5.2498,5.2498,5.2498,5.2589,5.2806,5.4381,5.5758,5.6911,5.7135,5.7363,5.7601,5.7637,5.778,5.7997,5.7997,5.7997,5.7997,5.7997,5.7997,5.7997,5.7997,5.7997,5.7997,5.7997,5.7997,5.8008,0.0,0.0,0.0,0.0,0.0,0.0,0.0,0.0,0.0,0.0,0.0,2.1611,2.0912,2.1462,2.1596,2.0897,2.0848,2.0848,2.0848,2.0123,1.9682,1.9604,2.1064,0.0,1.9638,2.3537,2.5215,0.0,0.0,0.0,3.3167,3.4944,3.6688,3.8324,3.7532,3.719,3.709,0.0,0.0,0.0,0.0,0.0,0.0,0.0,0.0,0.0,0.0,0.0,0.0,3.4307,3.1592,2.8377,2.8303,2.6732,2.5392,0.0,0.0,0.0,0.0,3.7989,0.0,4.4099,4.6087,0.0,0.0,0.0,0.0,5.2745,5.3106,5.3387,5.3417,5.3297,5.3295,5.3623,5.341,5.3196,0.0,0.0,0.0,0.0,0.0,0.0,0.0,0.0,0.0,0.0,5.2542,5.2498,5.2498,5.2498,5.2498,5.2498,5.2498,5.286,5.3639,5.516,5.5987,5.6078,5.6963,5.7449,5.7613,5.7733,5.7881,5.7997,5.7997,5.7997,5.7997,5.7997,5.7997,5.7997,5.7997,5.7997,5.7997,5.7997,5.7997,5.802,0.0,0.0,0.0,0.0,0.0,0.0,0.0,0.0,0.0,0.0,0.0,0.0,0.0,2.0291,2.034,2.0093,2.054,2.0614,2.0097,2.0283,0.0,1.8803,1.9843,1.9939,1.8785,2.1762,2.3178,0.0,0.0,2.8879,3.0876,3.3202,3.4918,3.6093,3.6882,3.6906,3.6302,3.5677,0.0,0.0,0.0,0.0,0.0,0.0,0.0,0.0,0.0,0.0,0.0,0.0,3.3462,3.0499,2.8947,2.7155,0.0,0.0,0.0,0.0,0.0,0.0,0.0,4.2841,4.4815,4.6527,4.8988,5.0061,5.1034,5.2739,5.2604,5.2348,5.2906,5.3045,5.3117,5.3238,5.3222,0.0,0.0,0.0,0.0,0.0,0.0,0.0,0.0,0.0,0.0,0.0,0.0,5.2515,5.2559,5.2526,5.2526,5.2559,5.2526,5.2878,5.3693,5.4762,5.5571,5.6128,5.6994,5.7528,5.7733,5.778,5.7862,5.7997,5.7997,5.7997,5.7997,5.7997,5.7997,5.7997,5.7997,5.7997,5.8008,5.8106,5.8141,5.8152,0.0,0.0,0.0,0.0,0.0,0.0,0.0,0.0,0.0,0.0,0.0,0.0,0.0,0.0,2.0722,2.0465,2.0901,2.0867,2.0051,2.0496,2.0047,1.8373,1.9397,1.9605,1.8748,2.0622,0.0,0.0,2.4684,0.0,0.0,0.0,3.3289,3.4408,3.5528,0.0,0.0,0.0,0.0,3.5234,0.0,0.0,4.0069,0.0,0.0,0.0,0.0,0.0,0.0,0.0,0.0,0.0,0.0,0.0,0.0,0.0,0.0,0.0,3.4297,0.0,0.0,0.0,0.0,4.4699,4.7306,0.0,4.9391,5.1412,5.1409,5.1285,5.2144,5.2401,5.2601,0.0,0.0,0.0,0.0,0.0,0.0,0.0,0.0,0.0,0.0,0.0,0.0,0.0,0.0,0.0,5.259,5.2611,5.2599,5.2602,5.2531,5.2752,5.3295,5.4109,5.496,5.5807,5.6691,5.737,5.7792,5.7857,5.7927,5.7997,5.7997,5.7997,5.7997,5.7997,5.7997,5.7997,5.7997,5.7997,5.802,5.8152,5.8197,5.8219,0.0,0.0,0.0,0.0,0.0,0.0,0.0,0.0,0.0,0.0,0.0,0.0,0.0,0.0,0.0,2.2256,2.2125,2.1725,2.0856,2.0812,2.0088,1.8376,0.0,0.0,0.0,0.0,0.0,0.0,2.3316,0.0,0.0,0.0,3.1872,0.0,3.3562,3.4375,3.5661,0.0,3.6105,3.739,0.0,4.0056,4.1473,0.0,0.0,0.0,4.3619,4.4034,0.0,0.0,0.0,0.0,0.0,0.0,0.0,0.0,0.0,0.0,0.0,0.0,0.0,0.0,0.0,0.0,4.5169,0.0,0.0,4.8739,4.9546,5.0354,5.1151,5.1386,0.0,0.0,0.0,0.0,0.0,0.0,0.0,0.0,0.0,0.0,0.0,0.0,0.0,0.0,5.2794,5.275,5.2613,5.2739,5.2732,5.2602,5.2542,5.251,5.251,5.3369,5.4208,5.5025,5.6091,5.7012,5.7804,5.7939,5.7997,5.7997,5.7997,5.7997,5.7997,5.7997,5.7997,5.7997,5.7997,5.8008,5.802,5.8163,5.8208,5.8242,0.0,0.0,0.0,0.0,0.0,2.2901,2.2992,2.4621,2.5259,0.0,0.0,0.0,0.0,0.0,0.0,2.4077,2.3951,2.3056,2.108,2.1399,2.0685,1.8463,1.9414,1.9601,1.8746,0.0,0.0,0.0,0.0,0.0,0.0,0.0,0.0,0.0,3.0431,3.1647,3.291,3.3993,0.0,0.0,3.8549,3.9953,0.0,0.0,0.0,0.0,0.0,4.5053,0.0,0.0,4.1907,3.9032,0.0,0.0,0.0,0.0,0.0,0.0,3.1607,0.0,0.0,0.0,0.0,0.0,0.0,0.0,0.0,0.0,4.9546,5.0354,0.0,0.0,0.0,0.0,0.0,0.0,0.0,0.0,0.0,0.0,0.0,0.0,0.0,0.0,0.0,0.0,5.271,5.2721,5.2883,5.2915,5.2883,5.275,5.262,5.2615,5.2724,5.3431,5.43,5.5293,5.6173,5.707,5.795,5.7985,5.7997,5.7997,5.7997,5.7997,5.7997,5.7997,5.7997,5.7997,5.7997,5.8054,5.8163,5.8305,5.8386,5.8443,0.0,0.0,2.1996,2.1996,2.3293,2.4226,2.3946,2.623,2.729,0.0,0.0,0.0,0.0,0.0,0.0,0.0,2.5748,2.4793,2.2672,2.2256,2.1304,1.957,1.966,1.9507,1.9002,0.0,0.0,0.0,0.0,0.0,0.0,0.0,0.0,0.0,0.0,0.0,0.0,0.0,0.0,0.0,3.8021,0.0,0.0,4.3169,4.4714,0.0,0.0,0.0,4.5465,4.5288,4.3138,0.0,0.0,0.0,0.0,0.0,0.0,0.0,0.0,0.0,0.0,0.0,0.0,0.0,0.0,0.0,0.0,0.0,0.0,0.0,0.0,0.0,0.0,0.0,0.0,0.0,0.0,0.0,0.0,0.0,0.0,0.0,0.0,5.2783,5.2783,5.2794,5.2828,5.2934,5.3082,5.3031,5.2948,5.289,5.2743,5.271,5.2794,5.3239,5.3963,5.492,5.577,5.6662,5.7519,5.785,5.7997,5.7997,5.7997,5.7997,5.7997,5.7997,5.7997,5.8008,5.8054,5.8141,5.8219,5.8386,5.8465,5.8521,0.0,0.0,2.2187,2.2261,2.459,2.6199,2.5433,2.8664,3.034,0.0,0.0,0.0,0.0,0.0,0.0,0.0,2.7627,2.6781,2.5114,2.3505,2.2176,2.1198,2.0477,2.0004,1.9813,1.9049,0.0,0.0,0.0,0.0,0.0,0.0,0.0,0.0,0.0,0.0,0.0,0.0,0.0,3.6173,3.7683,3.953,0.0,0.0,4.4649,0.0,4.6067,4.644,4.6861,4.6281,4.4173,0.0,0.0,0.0,0.0,0.0,3.3085,0.0,0.0,0.0,0.0,0.0,0.0,0.0,0.0,0.0,0.0,0.0,0.0,0.0,0.0,0.0,0.0,0.0,0.0,0.0,0.0,0.0,0.0,0.0,0.0,0.0,5.2772,5.2893,5.2926,5.2828,5.306,5.3185,5.3175,5.3082,5.302,5.302,5.2883,5.2817,5.2839,5.2955,5.3412,5.4235,5.5071,5.5923,5.6811,5.7538,5.7923,5.7997,5.7997,5.7997,5.7997,5.7997,5.7997,5.8008,5.8152,5.8208,5.8242,5.8425,5.8511,5.8532,1.9879,2.1619,2.3322,2.3987,2.732,2.9898,2.9838,3.1629,3.2374,0.0,0.0,0.0,0.0,0.0,0.0,0.0,0.0,2.8625,2.7066,2.5884,2.4313,2.2224,2.1982,2.1259,1.991,1.9703,0.0,0.0,0.0,0.0,0.0,0.0,0.0,0.0,0.0,0.0,0.0,0.0,0.0,3.7671,3.9907,0.0,4.0915,4.4308,4.5862,4.6373,4.7654,4.7767,4.7107,0.0,4.4561,4.3186,0.0,0.0,0.0,0.0,0.0,0.0,0.0,0.0,0.0,0.0,0.0,0.0,0.0,0.0,0.0,0.0,0.0,0.0,0.0,0.0,0.0,0.0,0.0,0.0,0.0,0.0,0.0,0.0,0.0,0.0,5.257,5.2761,5.2861,5.2948,5.3103,5.3146,5.3042,5.3114,5.3164,5.3164,5.302,5.3009,5.3132,5.3031,5.3455,5.4367,5.4554,5.539,5.6811,5.6957,5.7391,5.7997,5.7997,5.7997,5.7997,5.7997,5.7997,5.8008,5.8152,5.8271,5.8382,5.8476,5.8564,5.8656,1.9705,2.1728,2.3847,2.5074,2.8097,3.0517,3.0991,3.2505,0.0,0.0,0.0,0.0,0.0,0.0,0.0,0.0,0.0,0.0,2.9412,2.7729,2.6212,2.5003,2.3331,2.206,2.1225,2.0387,1.9963,0.0,0.0,0.0,0.0,0.0,0.0,0.0,0.0,0.0,0.0,0.0,3.5564,3.8076,4.0093,0.0,4.2723,4.5677,4.6796,4.7024,4.8692,4.8636,4.7547,4.6232,4.4856,0.0,0.0,4.1032,3.9478,0.0,3.6109,3.5447,0.0,0.0,0.0,3.4906,0.0,0.0,0.0,0.0,0.0,0.0,0.0,0.0,0.0,0.0,0.0,0.0,0.0,0.0,0.0,0.0,0.0,0.0,0.0,0.0,5.2518,5.2356,5.2269,5.2488,5.2936,5.3175,5.3103,5.3164,5.3196,5.3196,5.3124,5.3124,5.3196,5.3124,5.3344,5.3812,5.462,5.5409,5.6235,5.7024,5.7611,5.7997,5.7997,5.7997,5.7997,5.7997,5.8031,5.8099,5.8242,5.8338,5.8415,5.854,5.8646,5.8706,1.9939,2.1946,2.4294,2.5972,2.8649,3.0814,3.1632,3.2986,0.0,0.0,0.0,0.0,0.0,0.0,0.0,0.0,0.0,0.0,0.0,0.0,2.8628,2.8457,2.5398,2.3461,2.2991,2.1339,2.0313,2.001,0.0,0.0,0.0,0.0,0.0,0.0,0.0,0.0,0.0,0.0,0.0,3.8681,0.0,4.2464,4.5173,4.6964,4.7858,4.8275,4.9298,4.9105,4.8198,4.7196,0.0,4.4113,4.4024,4.2704,0.0,0.0,0.0,0.0,0.0,0.0,0.0,0.0,0.0,3.5341,0.0,0.0,0.0,0.0,0.0,0.0,0.0,0.0,0.0,0.0,0.0,0.0,0.0,0.0,0.0,0.0,0.0,0.0,0.0,5.2284,5.2392,5.2472,5.3353,5.3765,5.3453,5.3287,5.3196,5.3196,5.3196,5.3196,5.3196,5.3196,5.3196,5.3214,5.4675,5.5456,5.5658,5.7097,5.785,5.7997,5.7997,5.7997,5.8008,5.8031,5.8099,5.8208,5.8349,5.8404,5.8429,5.8633,5.8706,5.8706,2.0415,2.2463,2.5269,2.6956,3.0574,3.353,3.4325,3.4638,0.0,0.0,0.0,0.0,0.0,0.0,0.0,0.0,0.0,0.0,3.569,0.0,0.0,3.1871,2.9366,2.6964,2.4757,2.3067,2.149,2.001,0.0,0.0,0.0,0.0,0.0,0.0,2.8328,0.0,0.0,0.0,3.9456,0.0,4.1988,4.4143,0.0,4.8068,4.9462,5.0592,4.9298,4.903,4.9184,0.0,4.77,4.6617,0.0,4.5022,0.0,0.0,0.0,0.0,0.0,0.0,0.0,0.0,3.5196,0.0,0.0,0.0,0.0,0.0,0.0,0.0,0.0,0.0,0.0,0.0,0.0,0.0,0.0,0.0,0.0,0.0,0.0,0.0,0.0,5.3375,5.4855,5.4179,5.5526,5.5765,5.4344,5.3581,5.3196,5.3196,5.3196,5.3196,5.3196,5.3196,5.3196,5.3214,5.4106,5.4913,5.5622,5.6528,5.7336,5.7997,5.7997,5.7997,5.8008,5.8141,5.8186,5.8208,5.8349,5.844,5.85,5.8646,5.8706,5.8706,2.2448,2.4786,2.7471,2.8648,3.1115,3.3392,3.4699,3.4908,0.0,0.0,0.0,0.0,0.0,0.0,0.0,0.0,0.0,3.7487,0.0,0.0,0.0,0.0,3.0995,2.8684,2.7172,2.5057,2.3351,2.2154,2.2154,0.0,0.0,0.0,0.0,0.0,3.1113,0.0,3.6234,0.0,0.0,0.0,0.0,0.0,0.0,4.9069,4.9746,5.1047,4.9829,4.9246,4.903,0.0,4.8522,0.0,0.0,0.0,0.0,0.0,0.0,0.0,0.0,0.0,0.0,0.0,0.0,0.0,3.6498,0.0,3.5667,0.0,0.0,0.0,0.0,0.0,0.0,0.0,0.0,0.0,0.0,0.0,0.0,0.0,0.0,0.0,0.0,0.0,0.0,0.0,5.4675,5.539,5.3783,5.3379,5.3196,5.3196,5.3196,5.3196,5.3196,5.3196,5.3434,5.3911,5.4711,5.553,5.6326,5.7134,5.7685,5.7997,5.7997,5.7997,5.8008,5.8133,5.826,5.8338,5.8429,5.8486,5.8521,5.8646,5.8706,5.8706,2.4602,0.0,2.8707,2.9745,3.1299,3.297,3.4643,3.5097,0.0,0.0,0.0,0.0,3.8324,3.8643,0.0,0.0,0.0,3.9007,0.0,0.0,3.6937,0.0,3.3292,0.0,0.0,2.7198,2.5022,2.3692,2.3234,0.0,0.0,0.0,0.0,0.0,0.0,3.6182,3.8484,0.0,0.0,4.492,4.4899,4.7646,5.1615,5.0261,5.0375,5.1147,5.0262,4.9461,4.8869,4.9128,4.8934,0.0,4.7749,0.0,0.0,0.0,0.0,0.0,3.946,0.0,0.0,0.0,0.0,0.0,0.0,0.0,0.0,0.0,0.0,0.0,0.0,0.0,0.0,0.0,0.0,0.0,0.0,0.0,0.0,0.0,0.0,0.0,0.0,0.0,0.0,0.0,0.0,5.5225,5.3599,5.3324,5.3196,5.3196,5.3196,5.3196,5.3196,5.3416,5.382,5.4418,5.5438,5.6235,5.6829,5.7629,5.7997,5.7997,5.7997,5.802,5.8072,5.8197,5.832,5.8429,5.8529,5.8553,5.8564,5.8656,5.8706,5.8706,2.644,2.6884,2.8055,2.9711,3.1322,3.297,3.4643,0.0,0.0,0.0,0.0,0.0,0.0,0.0,0.0,0.0,0.0,4.2093,4.1274,0.0,3.9742,0.0,0.0,3.4358,0.0,0.0,2.6201,2.3692,0.0,0.0,0.0,0.0,0.0,0.0,0.0,3.586,3.7707,4.1574,4.3901,4.5049,4.5621,4.7591,5.0336,0.0,5.1963,5.1275,5.0418,0.0,0.0,4.996,4.9122,0.0,0.0,0.0,0.0,0.0,0.0,0.0,0.0,0.0,0.0,3.9659,0.0,0.0,0.0,0.0,3.7458,0.0,0.0,0.0,0.0,0.0,0.0,0.0,0.0,0.0,0.0,0.0,0.0,0.0,0.0,0.0,0.0,0.0,0.0,0.0,0.0,0.0,5.4454,5.3618,5.3196,5.3196,5.3196,5.3196,5.3196,5.3977,5.4363,5.4418,5.6003,5.6774,5.6829,5.7629,5.7997,5.7997,5.7997,5.8065,5.8208,5.8338,5.844,5.8511,5.8635,5.8687,5.8687,5.8706,5.8706,5.8706,0.0,0.0,2.9446,3.0583,3.2156,3.3638,0.0,3.5633,0.0,0.0,0.0,0.0,0.0,0.0,4.2699,0.0,0.0,4.2721,4.3003,4.1906,0.0,0.0,0.0,3.679,0.0,0.0,0.0,0.0,0.0,0.0,0.0,0.0,0.0,0.0,0.0,3.6397,0.0,0.0,0.0,0.0,0.0,5.0919,5.1745,0.0,0.0,5.2017,5.0596,4.9981,0.0,4.9573,4.9492,4.9408,4.8904,4.9268,4.9663,4.8553,4.708,0.0,0.0,0.0,4.2103,4.0519,0.0,0.0,0.0,0.0,0.0,0.0,0.0,0.0,0.0,0.0,0.0,0.0,0.0,0.0,0.0,0.0,0.0,0.0,0.0,0.0,0.0,0.0,0.0,0.0,0.0,0.0,0.0,5.3049,5.3434,5.3977,5.3471,5.3453,5.3995,5.4252,5.4675,5.5218,5.629,5.7079,5.7593,5.7886,5.7997,5.8008,5.8088,5.8163,5.8208,5.8389,5.8486,5.8511,5.8646,5.8706,5.8706,5.8706,5.8706,5.8855,3.0067,0.0,0.0,3.1473,3.3013,0.0,0.0,0.0,0.0,0.0,3.9447,0.0,4.2158,0.0,4.3291,0.0,4.3403,4.3563,4.4682,4.3376,0.0,4.3534,4.0753,0.0,0.0,0.0,0.0,0.0,0.0,2.7437,0.0,0.0,0.0,0.0,0.0,0.0,0.0,0.0,4.4566,0.0,0.0,5.2438,0.0,0.0,5.1726,5.2533,0.0,5.0747,5.0302,5.012,5.0213,5.0271,4.9575,5.0185,5.1019,5.0215,4.9047,4.7755,4.6583,4.551,0.0,4.2694,4.3076,0.0,4.2095,0.0,0.0,0.0,0.0,0.0,0.0,0.0,0.0,0.0,0.0,0.0,0.0,0.0,0.0,0.0,0.0,0.0,0.0,0.0,0.0,0.0,0.0,0.0,0.0,0.0,5.328,5.4363,5.3904,5.4014,5.4821,5.5115,5.5519,5.6033,5.684,5.7501,5.7997,5.7997,5.7997,5.8008,5.8141,5.8231,5.8275,5.8443,5.8532,5.8574,5.8667,5.8706,5.8725,5.9022,5.9319,5.9728,0.0,0.0,0.0,0.0,3.3847,0.0,0.0,0.0,3.7931,0.0,4.042,4.2131,4.373,4.3988,4.4034,4.4023,4.4128,0.0,4.6277,4.4187,0.0,0.0,4.2854,4.0665,4.1445,0.0,0.0,0.0,0.0,0.0,0.0,0.0,0.0,0.0,3.2198,0.0,3.995,4.0963,4.3852,4.8001,5.0616,5.2174,5.2925,5.2925,5.2925,5.2925,5.283,5.1795,5.06,5.1496,5.1148,5.0524,5.1467,5.1161,5.0631,5.1394,5.1076,5.0128,4.8604,4.8129,4.7672,4.6033,4.5663,0.0,0.0,0.0,4.3649,0.0,0.0,0.0,0.0,0.0,0.0,0.0,0.0,0.0,0.0,0.0,0.0,0.0,0.0,0.0,0.0,0.0,0.0,0.0,0.0,0.0,0.0,0.0,5.2821,5.4344,5.4399,5.4785,5.5585,5.64,5.6792,5.6811,5.7611,5.7997,5.7997,5.7997,5.8008,5.802,5.8152,5.8275,5.8415,5.8486,5.8574,5.8706,5.8706,5.8743,5.891,5.9635,6.047,6.1261,3.1928,3.2459,3.3135,0.0,3.4784,3.5875,0.0,0.0,0.0,0.0,4.1834,4.3437,4.3927,4.5093,4.5829,4.5824,4.6446,0.0,0.0,0.0,0.0,4.6715,4.429,4.2756,4.2359,3.9977,0.0,3.5309,0.0,0.0,2.776,0.0,0.0,0.0,0.0,0.0,3.8356,4.0488,4.4247,4.8967,5.148,5.3397,0.0,0.0,5.4728,5.4562,5.3263,5.2216,5.1472,5.1716,5.0914,4.9953,5.0788,5.1291,5.1608,5.1715,5.1603,5.1328,5.0813,4.9789,4.864,4.7625,4.738,4.6997,0.0,0.0,0.0,0.0,0.0,0.0,0.0,0.0,0.0,0.0,0.0,0.0,0.0,0.0,0.0,0.0,0.0,0.0,0.0,0.0,0.0,0.0,0.0,0.0,0.0,0.0,0.0,5.4399,5.4399,5.4785,5.5585,5.64,5.6792,5.6811,5.7611,5.7997,5.7997,5.7997,5.8054,5.8163,5.8286,5.8396,5.8486,5.8604,5.8667,5.8706,5.8706,5.9449,6.0489,6.0062,6.0823,6.2086,3.4283,0.0,0.0,3.482,0.0,0.0,3.6416,0.0,0.0,4.1759,4.3712,0.0,4.6132,4.6724,4.7068,4.7068,4.7526,0.0,0.0,0.0,0.0,4.7583,4.5946,4.4669,4.3847,4.2448,0.0,3.7443,0.0,0.0,2.8742,0.0,0.0,0.0,0.0,3.5353,0.0,4.2079,4.6165,5.034,5.2104,0.0,0.0,5.52,5.5253,5.525,5.4095,5.3088,5.2389,5.2748,5.2131,5.1242,5.172,5.216,5.2517,5.2425,5.2414,5.2323,5.1883,5.1104,5.0226,4.9342,4.918,4.8952,4.7931,4.7445,4.6959,0.0,4.4903,0.0,0.0,0.0,0.0,0.0,0.0,0.0,0.0,0.0,0.0,0.0,0.0,0.0,0.0,0.0,0.0,0.0,0.0,0.0,0.0,0.0,0.0,5.3849,5.4564,5.5299,5.6124,5.6914,5.7317,5.7336,5.7776,5.7997,5.7997,5.7997,5.8065,5.8208,5.8338,5.844,5.8511,5.8646,5.8706,5.8725,5.9096,6.0025,6.1176,6.1046,6.1808,6.2922,0.0,0.0,0.0,0.0,0.0,0.0,0.0,3.9857,0.0,4.3821,0.0,4.7207,4.8607,4.8296,4.7966,4.7966,0.0,4.872,5.0111,4.881,4.8287,4.8973,4.7518,4.629,4.5474,4.4657,0.0,0.0,0.0,0.0,0.0,0.0,0.0,0.0,0.0,0.0,0.0,4.4779,4.8672,0.0,5.248,5.3836,5.5351,5.5004,5.5106,5.5345,5.4997,5.4075,5.3134,5.4006,5.3739,5.3067,5.3177,5.3196,5.3196,5.3196,5.3196,5.3049,5.2344,5.216,5.1948,5.1001,5.0859,5.0861,5.053,5.0002,4.9328,4.8516,4.7085,4.6205,0.0,0.0,0.0,0.0,0.0,0.0,0.0,0.0,0.0,0.0,0.0,0.0,0.0,0.0,0.0,0.0,0.0,0.0,0.0,0.0,0.0,5.2976,5.4491,5.5721,5.6627,0.0,5.7905,5.7997,5.7997,5.8008,5.8031,5.8031,5.8099,5.8253,5.8353,5.8462,5.8532,5.8646,5.8706,5.878,5.9598,6.0433,6.1298,6.2105,6.2903,6.359,0.0,0.0,0.0,0.0,0.0,4.0334,4.1485,4.3292,4.4412,4.4048,4.6088,4.7412,4.6997,4.811,4.8875,4.8875,4.948,0.0,0.0,0.0,0.0,4.9087,4.8113,4.7163,4.6309,4.6132,4.4731,0.0,0.0,0.0,0.0,0.0,0.0,0.0,0.0,0.0,4.3358,4.7076,0.0,5.1671,5.248,5.3836,5.5396,5.5325,5.5338,5.539,5.5325,5.4343,5.3205,5.4015,5.3377,5.2325,5.2994,5.3196,5.3196,5.3196,5.3196,5.3177,5.3031,5.2994,5.2792,5.1956,5.1764,5.1599,5.088,5.0544,5.0346,5.0179,4.9301,4.8581,4.8729,0.0,0.0,0.0,0.0,0.0,0.0,0.0,0.0,0.0,0.0,0.0,0.0,0.0,0.0,0.0,0.0,0.0,0.0,0.0,0.0,0.0,5.3133,0.0,0.0,0.0,5.7336,5.7997,5.7997,5.8054,5.8163,5.8163,5.8268,5.8446,5.8468,5.8561,5.8667,5.8687,5.8706,5.878,5.9598,6.0433,6.1298,6.2105,6.2903,6.359,0.0,0.0,0.0,0.0,0.0,0.0,0.0,4.5873,0.0,4.6705,4.8086,4.9265,4.9729,5.0149,5.055,5.0976,5.099,5.1156,5.1563,5.1225,5.0824,5.0417,4.999,0.0,4.7876,4.7414,4.5928,4.337,0.0,0.0,0.0,0.0,0.0,0.0,0.0,4.0944,0.0,0.0,0.0,5.2308,5.3129,5.411,5.5059,5.49,5.4944,5.5078,5.4881,5.4455,5.4005,5.4224,5.3674,5.2915,5.3122,5.3196,5.3196,5.3196,5.3196,5.3196,5.3196,5.3196,5.3104,5.2729,5.2619,5.2527,5.2131,5.166,5.1336,5.1336,5.0584,4.9778,4.9291,4.8245,0.0,0.0,0.0,0.0,0.0,0.0,0.0,0.0,0.0,0.0,0.0,0.0,0.0,0.0,0.0,0.0,0.0,0.0,0.0,0.0,0.0,0.0,0.0,0.0,0.0,5.7997,5.7997,5.8065,5.8197,5.8197,5.8312,5.85,5.85,5.8582,5.8706,5.8706,5.8947,5.9412,6.0248,6.1083,6.1919,6.2736,6.3275,6.359,0.0,4.0188,0.0,0.0,4.355,0.0,4.5957,4.7958,4.9238,4.8875,4.9996,5.1276,5.2422,5.2136,5.2117,5.2734,5.2212,5.2117,5.2753,5.2811,5.2518,5.1882,5.1862,5.1066,4.9391,4.8678,4.7087,0.0,0.0,0.0,0.0,0.0,0.0,0.0,0.0,0.0,0.0,0.0,5.0225,5.2887,5.3741,5.4426,5.4911,5.4634,5.4631,5.4776,5.4602,5.4657,5.4746,5.4405,5.4034,5.3643,5.339,5.3251,5.3196,5.3196,5.3196,5.3196,5.3196,5.3196,5.3196,5.3196,5.3196,5.3196,5.3196,5.2711,5.2252,5.2252,5.1676,5.0814,4.9697,4.9487,0.0,0.0,0.0,0.0,0.0,0.0,0.0,0.0,0.0,0.0,0.0,0.0,0.0,0.0,0.0,0.0,0.0,0.0,0.0,0.0,0.0,5.4436,5.5585,0.0,5.695,5.7758,5.7923,5.8095,5.8242,5.8242,5.8345,5.8543,5.8543,5.8596,5.8706,5.8706,5.917,5.9988,6.086,6.1689,6.2495,6.3293,6.359,6.362,0.0,0.0,0.0,0.0,0.0,0.0,4.8526,4.9582,4.9633,4.8118,5.0627,5.2346,5.1767,5.2308,5.2715,5.2792,5.2734,5.2715,5.2811,5.2811,5.2772,5.2696,5.2696,5.1907,5.0225,5.0111,4.8831,0.0,0.0,0.0,0.0,0.0,0.0,0.0,0.0,0.0,0.0,5.0233,5.1849,5.2887,5.3741,5.46,5.5338,5.5312,5.5092,5.4836,5.518,5.5073,5.4746,5.4405,5.4034,5.3701,5.3662,5.3442,5.3196,5.3196,5.3196,5.3196,5.3196,5.3196,5.3196,5.3196,5.3196,5.3196,5.3196,5.3141,5.3086,5.3086,5.302,5.2457,5.0777,5.0554,5.0727,0.0,0.0,0.0,0.0,0.0,0.0,0.0,0.0,0.0,0.0,0.0,0.0,0.0,0.0,0.0,0.0,0.0,0.0,5.1895,0.0,5.3309,5.5585,5.5677,5.6106,5.6921,5.7648,5.8141,5.8382,5.8382,5.8483,5.8677,5.8677,5.8696,5.8706,5.8706,5.917,5.9988,6.086,6.1689,6.2495,6.3293,6.359,6.3624,0.0,0.0,0.0,0.0,0.0,0.0,0.0,5.1276,5.1581,5.0933,5.1994,5.2928,5.3256,5.3456,5.3827,5.4421,5.3928,5.3798,5.4333,5.4352,5.4352,5.4352,5.3855,5.3015,5.183,5.0818,4.9557,0.0,0.0,0.0,0.0,0.0,0.0,0.0,0.0,4.7245,4.9398,5.0946,5.2359,5.3664,5.4524,5.4936,5.5023,5.4814,5.4642,5.452,5.4673,5.4765,5.4825,5.493,5.4562,5.398,5.3542,5.3305,5.3196,5.3196,5.3196,5.3196,5.3196,5.3196,5.3196,5.3196,5.3196,5.3196,5.3196,5.3196,5.3196,5.3196,5.2821,5.2407,5.2208,5.214,5.2053,5.1878,0.0,0.0,0.0,0.0,0.0,0.0,0.0,0.0,0.0,0.0,0.0,0.0,0.0,0.0,0.0,0.0,0.0,5.2711,0.0,5.3647,5.5585,5.5603,5.5996,5.6811,5.7611,5.8141,5.8393,5.8393,5.8505,5.8706,5.8706,5.8706,5.8743,5.9226,5.9913,6.0749,6.1603,6.2402,6.3163,6.3479,6.359,6.3602,4.5395,0.0,4.8547,0.0,5.037,5.1573,5.2009,5.2939,5.3604,5.3634,5.361,5.3897,5.4699,5.4597,5.4787,5.5533,5.4907,5.4734,5.5358,5.5396,5.5396,5.5396,5.4811,0.0,5.3212,5.1544,5.0283,4.9448,4.8329,0.0,0.0,4.5712,4.6514,0.0,4.7532,4.8544,5.076,5.1862,5.3015,5.418,5.5052,5.5221,5.494,5.4576,5.4446,5.4446,5.4446,5.4599,5.4836,5.5127,5.4814,5.422,5.3699,5.3367,5.3196,5.3196,5.3196,5.3196,5.3196,5.3196,5.3196,5.3196,5.3196,5.3196,5.3196,5.3196,5.3196,5.3196,5.2747,5.2454,5.2803,5.2784,5.2631,5.2336,0.0,0.0,0.0,0.0,0.0,0.0,0.0,4.8902,4.8572,0.0,0.0,0.0,0.0,0.0,0.0,0.0,0.0,0.0,0.0,0.0,0.0,5.5475,5.589,5.6529,5.7558,5.8197,5.8429,5.8462,5.8558,5.8706,5.8706,5.8706,5.8762,5.956,6.0415,6.1269,6.2086,6.2885,6.359,6.359,6.3635,6.3695,4.9605,5.0636,5.1215,5.1081,5.2332,5.3311,5.3205,5.449,5.5436,5.5376,5.5424,5.5516,5.5675,5.5499,5.5442,5.5591,5.5476,5.5396,5.5396,5.5396,5.5396,0.0,0.0,5.4982,5.4104,5.2435,5.1156,5.0283,0.0,0.0,4.1557,4.0764,4.3501,4.9085,4.9066,5.0015,5.1691,5.3359,5.4085,5.418,5.5052,5.5396,5.5345,5.4947,5.4791,5.4791,5.4791,5.4799,5.4799,5.4806,5.4583,5.4306,5.4298,5.3785,5.3196,5.3196,5.3196,5.3196,5.3196,5.3196,5.3196,5.3196,5.3196,5.3196,5.3196,5.3196,5.3196,5.3196,5.3196,5.2939,5.216,5.2005,5.2229,5.2889,0.0,0.0,0.0,0.0,0.0,0.0,5.1728,5.1077,5.1858,0.0,0.0,0.0,0.0,0.0,0.0,0.0,0.0,5.3214,5.3196,0.0,5.4418,5.5199,5.5658,5.5833,5.7424,5.8301,5.8511,5.8635,5.8706,5.8706,5.8706,5.8706,5.8762,5.956,6.0415,6.1269,6.2086,6.2885,6.359,6.359,6.3728,6.391,5.0834,5.1655,5.2346,5.2612,5.3534,5.4323,5.4651,5.5121,5.5447,5.5462,5.5577,5.5721,5.5946,5.5623,5.551,0.0,5.556,5.5396,0.0,5.5396,5.5396,5.5396,5.5396,5.4995,5.4123,5.3588,5.2881,5.2002,0.0,0.0,0.0,4.8945,4.9824,5.1626,5.1626,5.2257,5.3339,5.3874,5.4448,5.5014,5.5282,5.5396,5.537,5.4954,5.4799,5.4769,5.4544,5.4455,5.4455,5.4455,5.438,5.4245,5.398,5.3563,5.3196,5.3196,5.3196,5.3196,5.3196,5.3196,5.3196,5.3196,5.3196,5.3196,5.3196,5.3196,5.3196,5.3196,5.3196,5.3122,5.2865,5.2821,5.2892,5.3106,5.2954,0.0,5.2365,0.0,0.0,0.0,5.1783,5.1324,0.0,5.2087,0.0,0.0,0.0,0.0,0.0,0.0,0.0,0.0,5.3489,0.0,5.4462,5.5319,5.5777,5.5903,5.7545,5.8396,5.8511,5.8635,5.8706,5.8706,5.8706,5.9003,5.9579,6.0433,6.1269,6.2105,6.2903,6.3368,6.3613,6.3753,6.3753,6.3728,5.2742,5.3522,5.42,5.4443,5.4869,5.5374,5.5989,5.5753,5.5644,5.6055,5.5904,5.5874,5.6142,5.5801,0.0,5.59,5.5626,5.5428,5.5403,5.5396,5.5403,5.5403,5.5396,5.5148,5.46,5.4276,0.0,5.3288,5.2964,5.2811,5.2811,5.2811,5.2811,5.2811,5.3135,5.3588,5.4123,5.4448,5.49,5.5396,5.5396,5.5396,5.5338,5.4803,5.4788,5.4954,5.4463,5.4372,5.4511,5.4657,5.453,5.4264,5.4007,5.3671,5.3359,5.3248,5.3196,5.3196,5.3196,5.3196,5.3196,5.3196,5.3196,5.3196,5.3196,5.3196,5.3196,5.3196,5.3196,5.3196,5.3196,5.3196,5.3196,5.3196,5.3196,5.3012,5.2527,0.0,5.2858,0.0,0.0,0.0,0.0,5.2931,5.2325,0.0,0.0,0.0,0.0,0.0,0.0,5.3994,5.3498,5.3671,5.4559,5.5418,5.6042,5.6443,5.7836,5.8519,5.8582,5.8656,5.8706,5.8725,5.9022,5.9449,5.9988,6.1158,6.1938,6.2476,6.3293,6.359,6.3613,6.375,6.3772,6.3683,5.5201,5.6035,5.6533,0.0,5.6317,0.0,5.7081,5.6427,5.6174,5.7053,5.6524,5.6172,5.6428,5.6168,5.6042,5.6157,0.0,0.0,0.0,5.5408,5.5402,5.5409,5.5403,5.5403,5.5396,5.4619,5.4199,5.4199,5.3384,5.2983,5.2983,5.2983,5.2983,5.3021,5.3836,5.4199,5.4237,5.5052,5.5396,5.5396,5.5377,5.537,5.5273,5.457,5.4731,5.5226,5.4514,5.4463,5.4776,5.5139,5.4807,5.4245,5.4238,5.398,5.3624,5.3303,5.3196,5.3196,5.3196,5.3196,5.3196,5.3196,5.3196,5.3196,5.3196,5.3196,5.3196,5.3196,5.3196,5.3196,5.3196,5.3196,5.3196,5.3196,5.3196,5.3196,5.3196,5.3196,5.3794,0.0,0.0,0.0,5.4399,5.3618,5.2876,0.0,0.0,0.0,0.0,0.0,5.485,5.3345,5.3363,5.3812,5.4702,5.5578,5.6472,5.7412,5.8274,5.8706,5.8706,5.8706,5.8725,5.8836,5.956,5.9969,6.0192,6.1752,6.242,6.255,6.3312,6.359,6.359,6.3613,6.3702,6.3681,0.0,0.0,5.7276,5.711,5.7494,5.7641,5.6983,5.7255,5.762,5.7893,5.7852,5.7846,5.7977,5.7919,5.7879,5.791,5.6438,5.5498,5.548,5.548,5.545,5.5402,5.5396,5.539,5.5403,5.5205,5.5091,5.5091,5.4887,5.4785,5.4785,5.4785,5.4785,5.4791,5.4995,5.5091,5.511,5.5301,5.5396,5.5358,5.5059,5.4947,5.4903,5.4455,5.4416,5.4498,5.4006,5.3888,5.3943,5.3767,5.3767,5.3795,5.3542,5.3563,5.3624,5.3303,5.3196,5.3196,5.3196,5.3196,5.3196,5.3196,5.3196,5.3196,5.3196,5.3196,5.3196,5.3196,5.3196,5.3196,5.3196,5.3196,5.3196,5.3196,5.3196,5.3196,5.3196,5.3196,5.3563,0.0,5.3977,5.3728,5.4344,5.3115,5.2978,0.0,0.0,0.0,0.0,5.4853,5.4299,5.3326,5.3944,5.4461,5.4859,5.6257,5.7449,5.8359,5.8584,5.8706,5.8706,5.8706,5.904,5.9635,5.982,6.0619,6.1845,6.2235,6.2755,6.333,6.3535,6.359,6.3613,6.3775,6.3373,6.2746,5.7623,5.7972,5.8117,5.7889,5.8185,5.8341,5.8076,5.8112,5.835,5.8811,5.8621,5.8479,5.8586,5.8547,5.8498,5.8498,5.7452,5.6764,5.6734,5.6734,5.6711,5.665,5.6211,5.5982,5.5989,5.5607,5.5396,5.5396,5.5396,5.5396,5.5396,5.5396,5.5396,5.5396,5.5396,5.5396,5.5396,5.5396,5.5396,5.5351,5.4962,5.4799,5.4746,5.4218,5.4141,5.4255,5.3833,5.3701,5.3701,5.3699,5.37,5.3662,5.3492,5.3545,5.3624,5.3303,5.3196,5.3196,5.3196,5.3196,5.3196,5.3196,5.3196,5.3196,5.3196,5.3196,5.3196,5.3196,5.3196,5.3196,5.3196,5.3196,5.3196,5.3196,5.3196,5.3196,5.3196,5.3196,5.3361,5.3801,5.3471,5.3379,5.3812,5.3059,5.3243,5.4942,5.3904,0.0,5.4987,5.4359,5.3781,5.3408,5.4271,5.5011,5.5544,5.7149,5.82,5.8706,5.8706,5.8706,5.8706,5.9077,5.9486,5.9932,6.0712,6.1566,6.242,6.2792,6.32,6.359,6.359,6.359,6.3576,6.33,6.2876,6.2313,5.7972,5.8566,5.8998,5.8734,5.878,5.8993,5.9424,5.9031,5.8979,5.9785,5.9282,5.8892,5.9025,5.8932,5.8858,5.8858,5.8736,5.8546,5.8245,5.822,5.8196,5.8123,5.7352,5.6926,5.6907,5.6167,5.5702,5.5568,5.5568,5.5568,5.5568,5.5454,5.5454,5.5568,5.5454,5.5396,5.5396,5.5396,5.5396,5.5351,5.4962,5.4769,5.4662,5.397,5.3879,5.4098,5.3757,5.3633,5.3681,5.4026,5.3898,5.3633,5.3633,5.3633,5.3564,5.3293,5.3196,5.3196,5.3196,5.3196,5.3196,5.3196,5.3196,5.3196,5.3196,5.3196,5.3196,5.3196,5.3196,5.3196,5.3196,5.3196,5.3324,5.3673,5.3434,5.3324,5.3691,5.3434,5.3196,5.3196,5.3196,5.3196,5.3196,5.3196,5.3471,5.4179,5.3581,5.3489,5.4179,5.3653,5.339,5.3499,5.4413,5.5402,5.6469,5.7843,5.8576,5.8706,5.8706,5.8762,5.8892,5.9598,6.0043,6.0359,6.177,6.2458,6.2625,6.3312,6.359,6.359,6.346,6.3423,6.3312,6.2513,6.2142,6.1808,5.9534,5.981,5.9779,5.9626,6.0082,6.0225,5.9594,6.0012,6.0506,6.0756,6.0592,6.0483,6.0634,6.0511,6.0434,6.0434,6.0419,5.9819,5.8379,5.8283,5.8254,5.8196,5.805,5.7919,5.7807,5.762,5.7141,5.6403,5.6403,5.6403,5.6403,5.5728,5.5766,5.6384,5.5708,5.5396,5.5396,5.5396,5.5396,5.5351,5.4962,5.4631,5.4322,5.3861,5.3563,5.3357,5.3303,5.3282,5.3293,5.3355,5.3334,5.3282,5.3282,5.3282,5.3272,5.3217,5.3196,5.3196,5.3196,5.3196,5.3196,5.3196,5.3196,5.3196,5.3196,5.3196,5.3196,5.3196,5.3196,5.3196,5.3196,5.3196,5.3875,5.5911,5.4535,5.3911,5.5948,5.448,5.3196,5.3196,5.3196,5.3196,5.3196,5.3196,5.3251,5.3379,5.3269,5.3251,5.3379,5.3441,5.3489,5.3509,5.4413,5.568,5.7295,5.7555,5.8019,5.8706,5.8706,5.9059,5.9728,5.9839,6.0675,6.203,6.229,6.2792,6.3423,6.3553,6.359,6.3535,6.2848,6.2588,6.2495,6.1678,6.0916,6.0248,5.9969,6.0448,6.0671,6.0383,6.0586,6.0666,6.0262,6.0531,6.0821,6.0874,6.0836,6.0827,6.0894,6.0831,6.0806,6.0806,6.0806,6.0473,5.9704,5.9646,5.9635,5.9606,5.9109,5.8589,5.8011,5.7959,5.7735,5.7301,5.7301,5.7301,5.7301,5.6912,5.6931,5.7263,5.6415,5.6301,5.6721,5.6243,5.6052,5.5994,5.5417,5.4823,5.4246,5.3651,5.3336,5.3196,5.3196,5.3196,5.3196,5.3196,5.3196,5.3196,5.3196,5.3196,5.3196,5.3196,5.3196,5.3196,5.3196,5.3196,5.3196,5.3196,5.3196,5.3196,5.3196,5.3196,5.3196,5.3196,5.3196,5.3196,5.3196,5.3196,5.371,5.5262,5.4205,5.3746,5.5299,5.4168,5.3196,5.3196,5.3196,5.3196,5.3196,5.3196,5.3196,5.3196,5.3196,5.3227,5.3243,5.3408,5.3529,5.3616,5.4474,5.5583,5.684,5.6859,5.7268,5.8037,5.8037,5.8706,5.9913,6.0396,6.125,6.242,6.2848,6.3256,6.359,6.359,6.333,6.2922,6.2532,6.2142,6.164,6.0805,6.0248,5.9839,6.0297,6.0828,6.1197,6.0864,6.0806,6.0806,6.0806,6.0806,6.0804,6.0842,6.0821,6.0804,6.0842,6.0821,6.0806,6.0806,6.0806,6.0806,6.0806,6.0806,6.0806,6.0806,6.0087,5.9356,5.8636,5.8604,5.8463,5.82,5.818,5.8173,5.8173,5.7982,5.8001,5.8135,5.7275,5.7275,5.7867,5.7179,5.6899,5.6834,5.6171,5.5377,5.4509,5.3849,5.3427,5.3196,5.3196,5.3196,5.3196,5.3196,5.3196,5.3196,5.3196,5.3196,5.3196,5.3196,5.3196,5.3196,5.3196,5.3196,5.3196,5.3196,5.3196,5.3196,5.3196,5.3196,5.3196,5.3196,5.3196,5.3196,5.3196,5.3196,5.3581,5.4766,5.3966,5.3599,5.4785,5.393,5.3196,5.3196,5.3196,5.3196,5.3196,5.3196,5.3206,5.3209,5.3403,5.3474,5.3349,5.384,5.407,5.3992,5.447,5.5233,5.6302,5.6302,5.6803,5.7788,5.7788,5.852,5.9913,6.0582,6.1354,6.216,6.2773,6.3033,6.3033,6.3033,6.268,6.2105,6.19,6.1436,6.0797,5.9932,5.9616,5.9523,6.0984,6.1073,6.0983,6.0833,6.0806,6.0806,6.0806,6.0806,6.0847,6.0969,6.0883,6.0847,6.0974,6.0877,6.0806,6.0806,6.0806,6.0806,6.0806,6.0806,6.0806,6.0806,6.067,6.0576,6.0506,6.038,5.9925,5.9102,5.9041,5.9007,5.9007,5.8249,5.8307,5.8988,5.8173,5.7848,5.7905,5.7829,5.7791,5.7764,5.7343,5.6452,5.5368,5.4931,5.4119,5.3196,5.3196,5.3196,5.3196,5.3196,5.3196,5.3196,5.3196,5.3196,5.3196,5.3196,5.3196,5.3196,5.3196,5.3196,5.3196,5.3196,5.3196,5.3196,5.3196,5.3196,5.3196,5.3196,5.3196,5.3196,5.3196,5.3196,5.3948,5.6242,5.47,5.4003,5.6297,5.4645,5.3196,5.3196,5.3196,5.3196,5.3196,5.3196,5.322,5.3287,5.4044,5.4188,5.3526,5.5034,5.5598,5.4926,5.4249,5.4657,5.6283,5.6302,5.7082,5.8613,5.8613,5.9059,5.9895,5.9969,6.047,6.1298,6.1354,6.1391,6.1391,6.1391,6.1343,6.1206,6.0396,6.0043,5.9895,5.9096,5.878,5.878,6.1045,6.1064,6.1002,6.0839,6.0806,6.0806,6.0806,6.0806,6.0816,6.0867,6.0819,6.0821,6.0872,6.0839,6.0806,6.0806,6.0806,6.0806,6.0806,6.0806,6.0806,6.0806,6.0783,6.0734,6.0691,6.0642,6.0418,6.0008,5.9974,5.996,5.9892,5.9587,5.9613,5.9873,5.9014,5.8937,5.9402,5.888,5.8501,5.8247,5.7973,5.7063,5.579,5.501,5.4391,5.3875,5.3379,5.3196,5.3196,5.3196,5.3196,5.3196,5.3196,5.3196,5.3196,5.3196,5.3196,5.3196,5.3196,5.3196,5.3196,5.3196,5.3196,5.3196,5.3196,5.3196,5.3196,5.3196,5.3196,5.3196,5.3196,5.3196,5.3654,5.5078,5.4113,5.3691,5.5115,5.4095,5.3196,5.3196,5.3636,5.3757,5.3251,5.4106,5.4494,5.4012,5.4833,5.5231,5.5003,5.578,5.6095,5.5819,5.5522,5.541,5.5493,5.6042,5.6859,5.7963,5.7963,5.8632,5.9895,5.9895,6.0378,6.1206,6.1206,6.1206,6.1206,6.1206,6.0879,6.0359,6.0025,5.9598,5.9115,5.8817,5.8706,5.8706,6.1025,6.1002,6.0953,6.0821,6.0806,6.0806,6.0806,6.0806,6.0806,6.0806,6.0806,6.0806,6.0806,6.0806,6.0806,6.0806,6.0806,6.0806,6.0806,6.0806,6.0806,6.0806,6.0806,6.0783,6.0722,6.0703,6.0635,6.0532,6.0512,6.0465,6.0396,6.0396,6.0396,6.0377,5.9778,5.9835,6.0358,5.9759,5.9309,5.8954,5.8672,5.7772,5.6469,5.5657,5.4966,5.4326,5.3765,5.3416,5.3196,5.3196,5.3196,5.3196,5.3196,5.3379,5.3581,5.3581,5.3765,5.3959,5.3959,5.3959,5.382,5.3324,5.3196,5.3269,5.3526,5.3581,5.3654,5.3904,5.3757,5.3581,5.3581,5.3379,5.3453,5.4271,5.393,5.3867,5.4656,5.4308,5.3959,5.3959,5.4436,5.4564,5.4014,5.4961,5.5394,5.4876,5.5711,5.6393,5.6771,5.6712,5.6692,5.6692,5.6933,5.6655,5.579,5.6376,5.7082,5.787,5.787,5.8446,5.9523,5.9523,5.9839,6.0415,6.0415,6.0415,6.0415,6.0415,6.0062,5.9523,5.9523,5.9189,5.8706,5.8706,5.8706,5.8706,6.0997,6.0885,6.0806,6.0806,6.0806,6.0806,6.0806,6.0806,6.0806,6.0806,6.0806,6.0806,6.0806,6.0806,6.0806,6.0806,6.0806,6.0806,6.0806,6.0806,6.0806,6.0806,6.0806,6.0806,6.0806,6.0728,6.068,6.0597,6.0532,6.0465,6.0396,6.0396,6.0396,6.0396,6.0396,6.0396,6.0396,6.0396,6.0241,5.9963,5.9568,5.8681,5.7556,5.7156,5.593,5.4418,5.4418,5.3904,5.3214,5.3214,5.3214,5.3214,5.3214,5.3765,5.4418,5.4418,5.4979,5.5603,5.5603,5.5603,5.5218,5.3618,5.3214,5.3434,5.4234,5.4418,5.4638,5.5438,5.4979,5.4418,5.4418,5.3765,5.3471,5.4289,5.4418,5.4693,5.5493,5.5603,5.5603,5.5603,5.5603,5.5592,5.5592,5.5592,5.5655,5.58,5.6674,5.764,5.864,5.7945,5.7509,5.7509,5.8279,5.8316,5.7517,5.7509,5.7907,5.8706,5.8706,5.8706,5.8706,5.8706,5.8706,5.8706,5.8706,5.8706,5.8706,5.8706,5.8706,5.8706,5.8706,5.8706,5.8706,5.8706,5.8706,5.8706,6.085,6.0833,6.0806,6.0806,6.0806,6.0806,6.0806,6.0806,6.0806,6.0806,6.0806,6.0806,6.0806,6.0806,6.0806,6.0806,6.0806,6.0806,6.0806,6.0806,6.0806,6.0806,6.0806,6.0806,6.0806,6.0788,6.0747,6.066,6.061,6.0539,6.0472,6.0417,6.0396,6.0396,6.0451,6.0472,6.0472,6.0519,6.0203,5.9641,5.9511,5.8895,5.7953,5.7258,5.6629,5.6014,5.5445,5.4711,5.4051,5.4051,5.4051,5.4142,5.4711,5.5042,5.5236,5.5236,5.542,5.5603,5.5603,5.5603,5.5475,5.4997,5.4876,5.4961,5.5199,5.5236,5.531,5.5548,5.542,5.5236,5.5236,5.5042,5.495,5.5199,5.5236,5.5328,5.5567,5.5603,5.5603,5.5603,5.5708,5.5576,5.5031,5.5994,5.6437,5.5908,5.7227,5.8232,5.8677,5.8465,5.8335,5.8335,5.8576,5.8576,5.8335,5.8335,5.8465,5.8706,5.8706,5.8706,5.8706,5.8706,5.8706,5.8706,5.8706,5.8706,5.8706,5.8706,5.8706,5.8706,5.8706,5.8706,5.8706,5.8706,5.8706,5.8706,6.0806,6.0806,6.0806,6.0806,6.0806,6.0806,6.0806,6.0806,6.0806,6.0806,6.0806,6.0806,6.0806,6.0806,6.0806,6.0806,6.0806,6.0806,6.0806,6.0806,6.0806,6.0806,6.0806,6.0806,6.0806,6.0806,6.0777,6.0691,6.0667,6.0597,6.0499,6.0485,6.0451,6.0403,6.0499,6.0512,6.0458,6.0418,6.0053,5.9494,5.9362,5.8888,5.8227,5.7685,5.6996,5.6253,5.5768,5.5089,5.4399,5.4399,5.4601,5.495,5.5456,5.5824,5.6069,5.6069,5.6301,5.6558,5.6558,5.6558,5.6558,5.6558,5.6081,5.5677,5.5996,5.6069,5.6161,5.6484,5.6301,5.6069,5.6069,5.5805,5.5629,5.5711,5.5928,5.6094,5.6174,5.6397,5.6461,5.6229,5.6303,5.6105,5.5409,5.6398,5.7041,5.6901,5.7843,5.8516,5.8696,5.8706,5.8706,5.8706,5.8706,5.8706,5.8706,5.8706,5.8706,5.8706,5.8706,5.8706,5.8706,5.8706,5.8706,5.8706,5.8706,5.8706,5.8706,5.8706,5.8706,5.8706,5.8706,5.8706,5.8706,5.8706,5.8706,5.8706,6.0806,6.0806,6.0806,6.0806,6.0806,6.0806,6.0806,6.0806,6.0806,6.0806,6.0806,6.0806,6.0806,6.0806,6.0806,6.0806,6.0806,6.0806,6.0806,6.0806,6.0806,6.0806,6.0806,6.0806,6.0806,6.0806,6.0777,6.0703,6.0697,6.0629,6.0519,6.0571,6.0532,6.0417,6.0525,6.0505,6.0375,6.017,5.9834,5.9442,5.9121,5.8741,5.8371,5.8231,5.7199,5.5805,5.5805,5.531,5.462,5.462,5.5097,5.5713,5.5787,5.6308,5.6902,5.6902,5.7428,5.7997,5.7997,5.7997,5.7997,5.7997,5.6907,5.6007,5.6737,5.6902,5.7123,5.785,5.7428,5.6902,5.6902,5.6256,5.5793,5.5976,5.6435,5.6815,5.6995,5.7498,5.7637,5.7103,5.6971,5.6752,5.6276,5.67,5.7395,5.8264,5.8432,5.8532,5.8635,5.8677,5.8677,5.8646,5.8677,5.8706,5.8706,5.8706,5.8706,5.8706,5.8706,5.8706,5.8706,5.8706,5.8706,5.8706,5.8706,5.8706,5.8706,5.8706,5.8706,5.8706,5.8706,5.8706,5.8706,5.8706,5.8706,5.8706,6.0806,6.0806,6.0806,6.0806,6.0806,6.0806,6.0806,6.0806,6.0806,6.0806,6.0806,6.0806,6.0806,6.0806,6.0806,6.0806,6.0806,6.0806,6.0806,6.0806,6.0806,6.0806,6.0806,6.0806,6.0806,6.0806,6.0794,6.0783,6.0735,6.0698,6.0667,6.0623,6.0584,6.0552,6.036,6.0263,6.0239,5.9969,5.9599,5.9169,5.8978,5.8663,5.8231,5.8088,5.7799,5.7476,5.7476,5.695,5.629,5.629,5.64,5.6657,5.7281,5.7593,5.774,5.774,5.785,5.7997,5.7997,5.7997,5.7997,5.7997,5.774,5.7531,5.7703,5.774,5.7795,5.796,5.785,5.774,5.774,5.7211,5.6787,5.6839,5.6608,5.6415,5.6456,5.6586,5.6625,5.6492,5.6069,5.573,5.5618,5.6138,5.6804,5.7636,5.8149,5.8367,5.8235,5.8532,5.8553,5.8235,5.8532,5.8706,5.8706,5.8706,5.8706,5.8706,5.8706,5.8706,5.8706,5.8706,5.8706,5.8706,5.8706,5.8706,5.8706,5.8706,5.8706,5.8706,5.8706,5.8706,5.8706,5.8706,5.8706,5.8706,6.0806,6.0806,6.0806,6.0806,6.0806,6.0806,6.0806,6.0806,6.0806,6.0806,6.0806,6.0806,6.0806,6.0806,6.0806,6.0806,6.0806,6.0806,6.0806,6.0806,6.0806,6.0806,6.0647,6.0559,6.0559,6.0559,6.0641,6.0806,6.0752,6.0722,6.0691,6.0704,6.0667,6.0591,6.034,6.022,6.0117,5.9708,5.9343,5.9073,5.8786,5.8521,5.8264,5.8084,5.7758,5.7428,5.7428,5.7171,5.6877,5.733,5.7436,5.7446,5.7868,5.7997,5.7997,5.7997,5.7997,5.7997,5.7997,5.7997,5.7997,5.7997,5.7997,5.7997,5.7997,5.7997,5.7997,5.7997,5.7997,5.7909,5.7625,5.7309,5.692,5.638,5.6303,5.6207,5.5915,5.6124,5.6193,5.5901,5.5604,5.5399,5.5399,5.6033,5.6729,5.7449,5.7964,5.8198,5.8105,5.829,5.8235,5.7872,5.8231,5.8406,5.8406,5.8406,5.8511,5.8706,5.8706,5.8706,5.8706,5.8706,5.8706,5.8706,5.8706,5.8706,5.8706,5.8706,5.8706,5.8706,5.8706,5.8706,5.8706,5.8706,5.8803,5.8946,6.0806,6.0806,6.0806,6.0806,6.0806,6.0806,6.0806,6.0806,6.0806,6.0806,6.0806,6.0806,6.0806,6.0806,6.0806,6.0806,6.0806,6.0806,6.0806,6.0806,6.0757,6.0684,6.0436,6.0272,6.0223,6.0216,6.0342,6.0635,6.074,6.0716,6.0559,6.0654,6.0616,6.0447,6.0223,6.0042,5.9917,5.9343,5.9055,5.8956,5.8551,5.8371,5.8316,5.8077,5.7593,5.7005,5.7028,5.7028,5.7149,5.7901,5.8088,5.7997,5.7997,5.7997,5.7997,5.7997,5.7997,5.7997,5.7997,5.7997,5.7997,5.7997,5.7997,5.7997,5.7997,5.7997,5.7973,5.7874,5.7851,5.7679,5.7078,5.6881,5.6501,5.556,5.573,5.5816,5.5313,5.569,5.5819,5.5313,5.5254,5.5254,5.5254,5.6053,5.6758,5.7205,5.7747,5.8026,5.7912,5.7969,5.7861,5.7498,5.7837,5.8037,5.8094,5.8094,5.829,5.8706,5.8706,5.8706,5.8706,5.8706,5.8706,5.8706,5.8706,5.8706,5.8706,5.8706,5.8706,5.8706,5.8706,5.8706,5.8716,5.8752,5.8957,5.9206,6.0806,6.0806,6.0806,6.0806,6.0806,6.0806,6.0806,6.0806,6.0806,6.0806,6.0806,6.0806,6.0806,6.0806,6.0806,6.0806,6.0806,6.0806,6.0806,6.0806,6.0616,6.0206,6.0253,6.0153,5.9871,5.9863,5.9887,5.9934,6.052,6.0507,5.9926,6.023,6.0208,5.9879,5.9528,5.9333,5.9298,5.8935,5.8667,5.8483,5.8426,5.8253,5.8042,5.8008,5.7923,5.7843,5.7975,5.8009,5.8016,5.8017,5.802,5.7997,5.7997,5.7997,5.7997,5.7997,5.7997,5.7997,5.7997,5.7997,5.7997,5.7997,5.7997,5.7997,5.7997,5.7997,5.7862,5.7333,5.7216,5.7053,5.6519,5.5985,5.5589,5.5429,5.5031,5.4712,5.4636,5.4681,5.4712,5.4636,5.462,5.462,5.462,5.572,5.6362,5.6204,5.7327,5.7768,5.7188,5.7486,5.7486,5.7087,5.7461,5.7821,5.8094,5.8094,5.829,5.8706,5.8706,5.8706,5.8706,5.8706,5.8706,5.8706,5.8706,5.8706,5.8706,5.8706,5.8706,5.8706,5.8706,5.8706,5.8739,5.9035,5.9159,5.9252,6.0806,6.0806,6.0806,6.0806,6.0806,6.0806,6.0806,6.0806,6.0806,6.0806,6.0806,6.0806,6.0806,6.0806,6.0806,6.0806,6.0806,6.0806,6.0806,6.0629,6.0436,6.0218,5.9873,5.9612,5.9467,5.9467,5.9361,5.9197,5.9892,6.0087,5.9799,5.995,5.9942,5.9774,5.9388,5.9206,5.9187,5.8835,5.8654,5.8558,5.8448,5.8338,5.8219,5.8141,5.8099,5.8122,5.8312,5.829,5.8208,5.8219,5.8111,5.7997,5.7997,5.7997,5.7997,5.7997,5.7997,5.7997,5.7997,5.7997,5.7997,5.7997,5.7997,5.7909,5.7558,5.7498,5.7425,5.7154,5.6856,5.6474,5.5901,5.5589,5.5284,5.4957,5.4665,5.4496,5.4496,5.4496,5.4496,5.4496,5.4496,5.4496,5.4496,5.5522,5.6136,5.6015,5.6905,5.7301,5.7028,5.7181,5.7092,5.668,5.7067,5.7449,5.7832,5.7814,5.8119,5.8706,5.8706,5.8706,5.8706,5.8706,5.8706,5.8706,5.8706,5.8706,5.8706,5.8706,5.8706,5.8706,5.8706,5.8805,5.9025,5.9397,5.9646,5.9849]}]]